Date StartTime U_cm/s V_cm/s W_cm/s Ustd_cm/s Vstd_cm/s Wstd_cm/s Uvar_(cm/s)^2 Vvar_(cm/s)^2 Wvar_(cm/s)^2 KE_(m/s)^2 TurbulentKE_(m/s)^2 HorizWindSpeed_cm/s FrictionSpeec_cm/s DragCoef SpeedOfSound_m/s SonicTemperature_C Pressure_mb 
05/18/2014  00:00:00     -219.985      -45.577      -14.008       79.329       57.882       29.274     6293.011     3350.329      856.950        3.058        0.525      224.657       29.099        0.017      341.130       15.627      857.533
05/18/2014  00:01:00     -237.313      -25.577      -24.939       64.536       48.170       31.089     4164.926     2320.325      966.556        3.252        0.373      238.688       19.470        0.007      341.125       15.617      857.516
05/18/2014  00:02:00     -156.155      -54.215       -8.517       60.218       63.288       32.568     3626.183     4005.386     1060.654        1.804        0.435      165.299       31.548        0.036      341.087       15.556      857.517
05/18/2014  00:03:00     -141.805      -67.115       -4.202       44.194       44.792       25.606     1953.108     2006.319      655.684        1.462        0.231      156.885       23.341        0.022      341.027       15.455      857.529
05/18/2014  00:04:00     -191.117      -21.961        3.198       58.312       60.031       30.606     3400.298     3603.746      936.755        2.248        0.397      192.374       28.201        0.021      341.052       15.493      857.521
05/18/2014  00:05:00     -135.705        8.785       -0.562       84.128       48.799       35.127     7077.468     2381.374     1233.907        1.459        0.535      135.989       36.684        0.073      341.083       15.548      857.513
05/18/2014  00:06:00     -114.255      -19.754       -7.144       50.660       51.170       26.819     2566.444     2618.336      719.273        0.970        0.295      115.950       24.636        0.045      341.052       15.498      857.505
05/18/2014  00:07:00     -126.776      -12.573        5.143       57.194       49.778       31.229     3271.141     2477.835      975.252        1.149        0.336      127.398       32.878        0.067      341.012       15.430      857.499
05/18/2014  00:08:00      -66.322      -32.351       -1.546       46.888       25.510       17.318     2198.515      650.742      299.909        0.430        0.157       73.791       18.197        0.061      340.997       15.405      857.489
05/18/2014  00:09:00      -80.260      -29.024       -9.347       37.147       36.778       20.563     1379.880     1352.608      422.842        0.526        0.158       85.347       19.337        0.051      341.081       15.546      857.476
05/18/2014  00:10:00      -90.729        1.720       -4.674       25.051       28.960       15.949      627.544      838.701      254.362        0.499        0.086       90.746       15.462        0.029      341.223       15.787      857.464
05/18/2014  00:11:00      -84.117        1.593      -10.321       14.776       20.264       13.578      218.320      410.634      184.359        0.400        0.041       84.132        1.831        0.000      341.145       15.656      857.466
05/18/2014  00:12:00      -49.640        1.074       -2.816       23.985       26.776       13.922      575.263      716.957      193.811        0.198        0.074       49.652       14.764        0.088      341.072       15.531      857.464
05/18/2014  00:13:00      -69.320       40.555      -12.872       18.940       13.854       15.894      358.737      191.923      252.609        0.371        0.040       80.312       12.375        0.024      341.114       15.604      857.447
05/18/2014  00:14:00      -95.436       50.544      -17.480       31.928       23.065       18.515     1019.408      532.016      342.789        0.693        0.095      107.994       10.783        0.010      341.084       15.553      857.442
05/18/2014  00:15:00      -52.627       40.301       -9.260       19.653       36.167       15.828      386.247     1308.057      250.541        0.321        0.097       66.286       19.970        0.091      341.039       15.475      857.432
05/18/2014  00:16:00      -25.261      -22.519        9.636       25.779       29.816       18.474      664.580      889.021      341.279        0.157        0.095       33.841       15.581        0.212      341.113       15.601      857.447
05/18/2014  00:17:00      -38.947      -26.516       -6.232       16.795       12.256        9.305      282.088      150.214       86.584        0.139        0.026       47.116        5.812        0.015      341.066       15.521      857.446
05/18/2014  00:18:00       34.679       -9.606       11.965       41.099       26.314       24.978     1689.129      692.408      623.911        0.222        0.150       35.985       22.841        0.403      340.352       14.315      857.420
05/18/2014  00:19:00       16.702       -6.626       17.357       13.686       15.350       11.880      187.297      235.613      141.127        0.059        0.028       17.968        7.889        0.193      340.528       14.612      857.403
05/18/2014  00:20:00       21.632       -9.562        7.700       24.689       12.906       21.737      609.529      166.559      472.476        0.093        0.062       23.651       10.717        0.205      340.435       14.454      857.390
05/18/2014  00:21:00       38.701        7.524       20.275       27.357       12.984       21.609      748.388      168.573      466.937        0.167        0.069       39.426       14.339        0.132      340.472       14.516      857.373
05/18/2014  00:22:00       46.205        8.825       -6.856       31.644       24.631       17.415     1001.312      606.694      303.288        0.209        0.096       47.040       10.815        0.053      340.436       14.456      857.363
05/18/2014  00:23:00       -6.431      -12.008       -6.112       29.193       29.594       18.781      852.208      875.779      352.739        0.115        0.104       13.622       14.030        1.061      340.448       14.474      857.376
05/18/2014  00:24:00       -6.072       -8.396        5.703       16.028       21.345       18.331      256.903      455.622      336.025        0.059        0.052       10.362       16.820        2.635      340.348       14.307      857.387
05/18/2014  00:25:00       13.540      -42.244       -8.745       12.444       18.269       16.253      154.852      333.751      264.151        0.140        0.038       44.361        4.987        0.013      340.539       14.630      857.384
05/18/2014  00:26:00       25.597       -2.024        0.185       15.445       11.438       15.220      238.561      130.831      231.635        0.063        0.030       25.677       12.730        0.246      340.297       14.221      857.385
05/18/2014  00:27:00       18.228       -6.261        4.668       16.109       13.671       13.195      259.497      186.895      174.121        0.051        0.031       19.273        5.987        0.097      340.327       14.270      857.389
05/18/2014  00:28:00      -29.451       -8.294        2.280       30.147       12.412        8.633      908.831      154.047       74.531        0.104        0.057       30.596        7.846        0.066      340.686       14.879      857.379
05/18/2014  00:29:00      -82.884      -18.292       -1.865       26.573       20.653       14.915      706.146      426.541      222.463        0.428        0.068       84.879       13.826        0.027      340.955       15.332      857.380
05/18/2014  00:30:00     -188.605      -29.272       -2.972       73.208       44.607       33.547     5359.475     1989.809     1125.401        2.245        0.424      190.863       29.852        0.024      340.678       14.862      857.391
05/18/2014  00:31:00     -166.551      -59.633       -3.232       58.163       43.705       28.550     3382.901     1910.141      815.106        1.871        0.305      176.905       28.086        0.025      340.554       14.654      857.408
05/18/2014  00:32:00     -133.188      -37.139        1.376       53.628       41.098       27.558     2875.964     1689.040      759.460        1.222        0.266      138.269       28.003        0.041      340.576       14.692      857.404
05/18/2014  00:33:00     -142.456      -48.285      -13.520       35.538       36.833       25.337     1262.979     1356.645      641.988        1.303        0.163      150.417       23.611        0.025      340.705       14.910      857.380
05/18/2014  00:34:00      -98.444      -12.156       -9.157       26.919       21.931       18.324      724.636      480.965      335.751        0.573        0.077       99.191       15.199        0.023      340.777       15.032      857.367
05/18/2014  00:35:00      -21.546       -2.042        6.622       43.566       16.698       15.065     1898.005      278.833      226.941        0.146        0.120       21.643       20.832        0.927      340.606       14.740      857.349
05/18/2014  00:36:00       47.257      -26.179        0.168       28.720       25.866       23.463      824.844      669.046      550.535        0.248        0.102       54.024       15.228        0.079      340.061       13.823      857.338
05/18/2014  00:37:00       15.342      -25.428        3.023       28.549       18.916       15.779      815.060      357.820      248.961        0.116        0.071       29.698       12.797        0.186      340.384       14.368      857.330
05/18/2014  00:38:00      -37.805       -6.237       -2.269       14.101       12.261        6.585      198.839      150.335       43.363        0.093        0.020       38.316        6.095        0.025      340.918       15.270      857.312
05/18/2014  00:39:00      -50.431       18.619       -9.648       10.540       19.448        9.616      111.090      378.217       92.460        0.178        0.029       53.758        6.608        0.015      340.935       15.300      857.294
05/18/2014  00:40:00      -80.630       39.907      -14.205       11.343        8.295        5.237      128.669       68.807       27.429        0.426        0.011       89.966        2.483        0.001      341.067       15.523      857.270
05/18/2014  00:41:00      -71.887       35.905       -9.980       35.668       25.119       20.760     1272.207      630.952      430.973        0.444        0.117       80.355       21.039        0.069      341.055       15.503      857.264
05/18/2014  00:42:00     -137.182       52.881      -13.679       44.368       30.943       22.307     1968.542      957.469      497.580        1.261        0.171      147.021       20.452        0.019      340.797       15.067      857.283
05/18/2014  00:43:00     -114.273       34.077      -12.280       25.583       18.351       16.362      654.497      336.760      267.706        0.781        0.063      119.245       11.622        0.009      340.844       15.146      857.287
05/18/2014  00:44:00      -82.945       27.667       -4.867       28.608       13.647       16.044      818.422      186.237      257.419        0.447        0.063       87.437       13.496        0.024      340.832       15.124      857.270
05/18/2014  00:45:00      -19.186       42.529       -7.606       23.795       16.417        7.821      566.205      269.514       61.175        0.157        0.045       46.656        7.635        0.027      340.966       15.352      857.244
05/18/2014  00:46:00       31.163       13.479       13.549       15.480       16.124       15.784      239.643      259.995      249.138        0.104        0.037       33.953       13.327        0.154      340.761       15.005      857.220
05/18/2014  00:47:00       30.822      -36.050        6.756       38.337       34.409       26.920     1469.702     1183.978      724.701        0.284        0.169       47.430       18.497        0.152      340.274       14.183      857.217
05/18/2014  00:48:00       19.309      -58.553        9.256       51.474       64.017       55.296     2649.561     4098.208     3057.637        0.684        0.490       61.655       36.699        0.354      340.316       14.253      857.210
05/18/2014  00:49:00       14.745       -1.365       48.701       36.232       45.663       39.807     1312.740     2085.145     1584.563        0.379        0.249       14.808       29.269        3.907      340.162       13.993      857.193
05/18/2014  00:50:00       34.780      -31.025       16.501       34.194       47.547       27.399     1169.258     2260.682      750.716        0.331        0.209       46.607       30.823        0.437      340.092       13.874      857.171
05/18/2014  00:51:00       44.923      -23.916       -0.383       15.670       16.263       15.254      245.559      264.492      232.688        0.167        0.037       50.892       11.573        0.052      340.277       14.186      857.157
05/18/2014  00:52:00        7.301        7.195       15.341       15.870       23.750       13.249      251.863      564.055      175.537        0.067        0.050       10.250        8.885        0.751      340.388       14.372      857.153
05/18/2014  00:53:00      -10.544       85.284      -15.567       20.976       16.591       10.858      439.999      275.265      117.901        0.423        0.042       85.933        6.848        0.006      340.568       14.678      857.141
05/18/2014  00:54:00       -9.015       62.757       -9.481       23.251       17.630       11.651      540.614      310.805      135.736        0.255        0.049       63.402        9.304        0.022      340.578       14.694      857.134
05/18/2014  00:55:00      -34.440       39.540       -4.768       31.061       16.957       10.900      964.812      287.542      118.803        0.207        0.069       52.436        9.161        0.031      340.674       14.858      857.119
05/18/2014  00:56:00     -102.634      -14.128      -13.987       12.601       15.617       10.370      158.792      243.891      107.540        0.572        0.026      103.601        6.202        0.004      340.557       14.661      857.130
05/18/2014  00:57:00      -91.047      -59.333       -3.191       48.025       29.141       20.763     2306.355      849.176      431.113        0.770        0.179      108.674       21.170        0.038      340.528       14.611      857.135
05/18/2014  00:58:00      -73.455      -42.588        5.683       45.065       40.394       20.313     2030.853     1631.639      412.634        0.566        0.204       84.908       17.546        0.043      340.586       14.710      857.119
05/18/2014  00:59:00     -110.699      -18.936       -3.357       32.827       31.440       19.196     1077.601      988.498      368.486        0.753        0.122      112.307       14.450        0.017      340.680       14.868      857.119
05/18/2014  01:00:00      -59.305       -0.104        8.809       45.608       27.279       19.280     2080.087      744.132      371.719        0.339        0.160       59.306       17.235        0.084      340.696       14.896      857.102
05/18/2014  01:01:00       24.691       14.343       16.307       27.980       30.387       16.782      782.884      923.390      281.627        0.153        0.099       28.555       12.665        0.197      340.359       14.328      857.064
05/18/2014  01:02:00       66.188      -34.513        6.812       20.908       28.917       26.160      437.157      836.183      684.354        0.379        0.098       74.645        9.376        0.016      340.626       14.777      857.038
05/18/2014  01:03:00        3.408       18.590       30.232       17.363       21.887       14.794      301.470      479.046      218.851        0.114        0.050       18.900       13.935        0.544      340.408       14.408      857.041
05/18/2014  01:04:00      -76.065        7.166       -5.616       34.841       15.022       15.813     1213.914      225.659      250.061        0.378        0.084       76.402       17.983        0.055      340.850       15.155      857.049
05/18/2014  01:05:00      -62.910       15.125      -12.957       29.602       23.538       14.187      876.290      554.061      201.273        0.299        0.082       64.702        9.102        0.020      340.915       15.263      857.059
05/18/2014  01:06:00       29.573        1.627        8.810       40.535       17.973       19.953     1643.116      323.036      398.115        0.166        0.118       29.617       14.782        0.249      340.542       14.633      857.055
05/18/2014  01:07:00       73.094        8.713       10.534       35.544       23.266       26.274     1263.352      541.309      690.325        0.401        0.125       73.612       17.251        0.055      340.219       14.090      857.028
05/18/2014  01:08:00       30.263      -17.040       10.277       30.324       28.887       28.410      919.527      834.486      807.151        0.194        0.128       34.730       21.486        0.383      340.138       13.950      857.008
05/18/2014  01:09:00        1.010      -17.363       18.973       23.090       22.592       17.793      533.131      510.410      316.604        0.101        0.068       17.393       12.390        0.507      340.037       13.781      856.995
05/18/2014  01:10:00       -5.945      -21.910       14.385       16.575       25.354       14.006      274.729      642.826      196.168        0.092        0.056       22.702        9.068        0.160      340.350       14.311      856.986
05/18/2014  01:11:00       -0.755       10.098        5.763       15.617       14.265        7.886      243.880      203.489       62.183        0.032        0.025       10.126        8.677        0.734      339.962       13.656      857.000
05/18/2014  01:12:00      -96.386      -18.487       -3.575       41.134       18.526       15.410     1692.026      343.208      237.462        0.596        0.114       98.142       16.000        0.027      340.792       15.057      856.991
05/18/2014  01:13:00      -68.660       10.938       -6.182       27.704       31.698       14.595      767.485     1004.773      213.020        0.343        0.099       69.526       14.784        0.045      340.783       15.042      856.969
05/18/2014  01:14:00       17.585       42.132        9.930       22.119       17.776       11.046      489.241      315.981      122.005        0.155        0.046       45.654        7.524        0.027      340.773       15.026      856.916
05/18/2014  01:15:00       43.385       40.243       -1.506       14.155       23.574       15.398      200.364      555.749      237.089        0.225        0.050       59.176       11.036        0.035      340.604       14.738      856.865
05/18/2014  01:16:00       59.536      -34.469       -1.119       23.287       25.797       19.508      542.300      665.486      380.546        0.316        0.079       68.794       13.758        0.040      340.146       13.967      856.854
05/18/2014  01:17:00       17.411      -38.769       -9.219       24.024       28.872       25.717      577.158      833.571      661.349        0.198        0.104       42.499       17.863        0.177      339.817       13.410      856.881
05/18/2014  01:18:00       42.079       -0.691       -8.235       18.377       19.157       18.936      337.712      366.983      358.581        0.145        0.053       42.084       10.330        0.060      340.150       13.972      856.892
05/18/2014  01:19:00      -10.038        5.904        6.196       12.425        8.393       10.324      154.392       70.442      106.581        0.025        0.017       11.645        6.018        0.267      340.288       14.206      856.877
05/18/2014  01:20:00       13.252        9.402       25.040       16.887       12.005       14.032      285.156      144.129      196.883        0.076        0.031       16.248       10.884        0.449      340.131       13.939      856.861
05/18/2014  01:21:00       10.929       19.181       32.272       16.403       13.131       11.757      269.052      172.421      138.225        0.105        0.029       22.076        7.127        0.104      340.044       13.793      856.859
05/18/2014  01:22:00       64.903        8.629        6.250       19.200       15.982       22.727      368.631      255.416      516.497        0.273        0.057       65.475       15.512        0.056      339.977       13.680      856.864
05/18/2014  01:23:00       67.908       10.592       -6.598       14.500       16.149       16.206      210.251      260.795      262.638        0.275        0.037       68.729        4.613        0.005      340.163       13.994      856.873
05/18/2014  01:24:00       51.606       19.875        0.201       19.726       20.389       21.095      389.101      415.696      445.005        0.215        0.062       55.302       12.368        0.050      339.823       13.421      856.851
05/18/2014  01:25:00       63.637       18.620       -2.437       34.316       21.517       17.179     1177.615      462.988      295.115        0.317        0.097       66.305       17.038        0.066      340.189       14.038      856.839
05/18/2014  01:26:00       30.222        5.179       19.664       15.372       15.618       18.199      236.314      243.931      331.191        0.107        0.041       30.663        8.208        0.072      340.071       13.837      856.839
05/18/2014  01:27:00       39.107       30.666      -12.910       11.581       19.042       13.532      134.124      362.607      183.102        0.166        0.034       49.697       11.290        0.052      340.012       13.738      856.835
05/18/2014  01:28:00       25.288       11.842       -7.550       27.428       23.611       18.021      752.283      557.483      324.755        0.124        0.082       27.923       17.103        0.375      339.822       13.419      856.829
05/18/2014  01:29:00       83.255       25.336        4.078       32.082       20.931       20.833     1029.281      438.099      434.017        0.475        0.095       87.024       14.915        0.029      340.117       13.917      856.835
05/18/2014  01:30:00       47.787        8.871       -0.440       24.598       23.626       21.296      605.071      558.192      453.517        0.199        0.081       48.604       19.032        0.153      340.159       13.988      856.839
05/18/2014  01:31:00       36.475      -10.859        0.521       18.366       21.737       17.931      337.302      472.517      321.516        0.129        0.057       38.057       16.261        0.183      339.688       13.193      856.853
05/18/2014  01:32:00       71.180       11.136        7.158       19.774       18.874       24.340      391.004      356.220      592.460        0.329        0.067       72.046       18.675        0.067      340.193       14.045      856.857
05/18/2014  01:33:00       65.647      -13.720        4.994       25.987       23.907       20.062      675.307      571.543      402.465        0.309        0.082       67.065       17.700        0.070      340.051       13.805      856.842
05/18/2014  01:34:00       59.936       -7.469        7.175       27.093       15.562       16.488      734.020      242.172      271.866        0.247        0.062       60.399       14.841        0.060      339.880       13.517      856.832
05/18/2014  01:35:00       31.153        6.232       13.456       45.387       24.328       24.149     2059.982      591.841      583.192        0.221        0.162       31.770       27.743        0.763      339.485       12.850      856.832
05/18/2014  01:36:00       -0.249       11.233       42.705       21.736       40.788       15.719      472.463     1663.645      247.072        0.217        0.119       11.236        7.468        0.442      339.728       13.260      856.841
05/18/2014  01:37:00       65.047      -98.486       -7.417       63.063       73.764       35.724     3976.956     5441.152     1276.172        1.234        0.535      118.027       43.251        0.134      340.514       14.586      856.858
05/18/2014  01:38:00       12.338      -51.698       21.943       28.825       49.741       34.349      830.906     2474.178     1179.830        0.389        0.224       53.150       28.415        0.286      340.400       14.394      856.872
05/18/2014  01:39:00       46.311      -50.235        2.508       59.122       44.799       28.161     3495.369     2006.942      793.053        0.548        0.315       68.325       30.138        0.195      340.442       14.464      856.851
05/18/2014  01:40:00       -6.095      -42.763       11.364       35.361       54.491       20.764     1250.417     2969.306      431.128        0.332        0.233       43.195       22.763        0.278      340.437       14.457      856.819
05/18/2014  01:41:00       15.981      -21.439       20.527       32.858       22.194       21.488     1079.655      492.566      461.717        0.158        0.102       26.739       13.859        0.269      340.334       14.283      856.803
05/18/2014  01:42:00       65.401      -39.628        6.297       41.811       34.427       23.683     1748.122     1185.250      560.867        0.469        0.175       76.470       21.945        0.082      340.085       13.864      856.797
05/18/2014  01:43:00       29.790      -23.625       28.335       49.836       46.229       31.840     2483.644     2137.141     1013.794        0.394        0.282       38.021       35.607        0.877      340.438       14.458      856.776
05/18/2014  01:44:00       16.259        8.379       37.820       25.913       31.260       24.444      671.462      977.215      597.512        0.201        0.112       18.291       19.808        1.173      339.910       13.567      856.753
05/18/2014  01:45:00       21.626       35.123       46.674       28.035       25.222       24.385      785.975      636.174      594.604        0.295        0.101       41.247       17.989        0.190      339.682       13.183      856.725
05/18/2014  01:46:00       55.070       -6.568       16.194       34.478       30.225       31.418     1188.713      913.576      987.085        0.321        0.154       55.460       29.455        0.282      339.736       13.276      856.726
05/18/2014  01:47:00       51.087      -19.256       17.085       44.037       33.496       23.299     1939.287     1121.956      542.822        0.344        0.180       54.595       20.411        0.140      339.860       13.484      856.718
05/18/2014  01:48:00       60.032      -19.702        1.117       35.580       25.788       21.196     1265.917      665.022      449.266        0.319        0.119       63.183       17.666        0.078      339.795       13.373      856.704
05/18/2014  01:49:00       25.556       -9.186       28.226       29.175       40.463       26.849      851.197     1637.221      720.869        0.237        0.160       27.157       25.598        0.889      339.823       13.420      856.689
05/18/2014  01:50:00       89.961      -51.888        0.142       47.641       36.735       33.431     2269.644     1349.449     1117.647        0.776        0.237      103.852       30.921        0.089      339.732       13.268      856.675
05/18/2014  01:51:00       94.039      -47.407       18.705       45.011       44.283       34.122     2026.011     1961.005     1164.305        0.829        0.258      105.313       30.842        0.086      339.917       13.578      856.672
05/18/2014  01:52:00       64.525      -62.323       18.989       65.987       81.317       44.840     4354.278     6612.531     2010.653        1.069        0.649       89.709       51.756        0.333      340.208       14.070      856.686
05/18/2014  01:53:00       73.984      -24.917       40.333       79.413       97.754       66.310     6306.503     9555.866     4397.004        1.399        1.013       78.067       79.573        1.039      340.421       14.428      856.671
05/18/2014  01:54:00       38.647       27.594       72.249       59.173       54.730       53.803     3501.437     2995.318     2894.752        0.843        0.470       47.488       48.406        1.039      340.285       14.200      856.649
05/18/2014  01:55:00       96.590      -31.241       36.014       68.250       65.448       44.559     4658.094     4283.457     1985.543        1.126        0.546      101.517       47.092        0.215      340.121       13.924      856.620
05/18/2014  01:56:00       91.224      -40.409       20.290       43.495       38.229       37.712     1891.842     1461.468     1422.200        0.757        0.239       99.774       30.871        0.096      340.160       13.989      856.604
05/18/2014  01:57:00       78.440     -123.460      -11.343       59.768       45.458       28.983     3572.249     2066.406      840.040        1.400        0.324      146.270       26.112        0.032      340.379       14.361      856.627
05/18/2014  01:58:00      106.506     -199.719      -15.176       56.732       48.062       27.664     3218.483     2309.970      765.282        2.888        0.315      226.343       24.514        0.012      340.827       15.111      856.670
05/18/2014  01:59:00      109.294     -154.120      -10.856       68.177       90.868       46.678     4648.138     8257.039     2178.790        2.545        0.754      188.939       47.350        0.063      340.738       14.963      856.667
05/18/2014  02:00:00       62.350      -36.727       35.680       46.213       62.232       36.279     2135.596     3872.811     1316.170        0.692        0.366       72.363       33.863        0.219      340.344       14.301      856.650
05/18/2014  02:01:00       66.860      -31.153       19.560       56.951       60.517       34.917     3243.415     3662.273     1219.178        0.697        0.406       73.762       44.282        0.360      340.118       13.918      856.681
05/18/2014  02:02:00       56.642      -37.503       22.082       60.902       70.908       40.845     3709.079     5027.970     1668.280        0.775        0.520       67.932       47.988        0.499      340.314       14.250      856.690
05/18/2014  02:03:00      104.646      -33.718       11.343       48.321       46.685       28.205     2334.871     2179.505      795.544        0.876        0.265      109.944       25.504        0.054      340.326       14.270      856.673
05/18/2014  02:04:00       39.475        1.041       -1.940       28.497       32.243       17.227      812.081     1039.602      296.774        0.186        0.107       39.489       10.240        0.067      340.327       14.270      856.632
05/18/2014  02:05:00       36.534        6.464        3.160       25.781       27.320       21.474      664.684      746.355      461.149        0.163        0.094       37.101       16.604        0.200      340.241       14.126      856.601
05/18/2014  02:06:00       51.617       21.578        0.976       31.366       15.277       23.000      983.811      233.390      528.982        0.244        0.087       55.946       19.226        0.118      340.240       14.124      856.618
05/18/2014  02:07:00       33.143       11.619        1.528       25.345       13.963       14.774      642.349      194.954      218.285        0.115        0.053       35.121       13.273        0.143      340.248       14.138      856.607
05/18/2014  02:08:00       74.016       46.753       10.030       26.114       25.290       20.942      681.959      639.588      438.564        0.476        0.088       87.546       13.153        0.023      340.234       14.113      856.586
05/18/2014  02:09:00        6.810       10.317       15.983       20.623       21.095       14.353      425.300      444.978      206.021        0.074        0.054       12.362       11.542        0.872      340.132       13.941      856.619
05/18/2014  02:10:00       16.374        6.816        9.200       11.448       10.263       10.267      131.062      105.333      105.413        0.037        0.017       17.736        3.518        0.039      339.994       13.708      856.663
05/18/2014  02:11:00       39.854       30.731       14.607       15.320       16.327       14.011      234.709      266.579      196.315        0.172        0.035       50.326        9.925        0.039      339.894       13.540      856.653
05/18/2014  02:12:00       50.964       25.473       29.712       21.008       23.480       21.818      441.324      551.329      476.041        0.280        0.073       56.976       14.555        0.065      339.968       13.664      856.617
05/18/2014  02:13:00       18.127       39.708       -7.310       33.939       27.940       17.288     1151.882      780.639      298.888        0.209        0.112       43.650       14.345        0.108      340.072       13.841      856.585
05/18/2014  02:14:00      -12.998       50.268      -13.558       27.775       23.831       14.212      771.425      567.918      201.967        0.221        0.077       51.921       13.474        0.067      340.274       14.181      856.593
05/18/2014  02:15:00      -25.707       31.954       -8.034       18.790       33.792       10.436      353.051     1141.869      108.908        0.167        0.080       41.011       15.168        0.137      340.209       14.072      856.633
05/18/2014  02:16:00      -32.425      -11.743       -1.442       24.781       18.120       15.080      614.112      328.352      227.392        0.118        0.058       34.486       11.281        0.107      340.022       13.757      856.650
05/18/2014  02:17:00      -12.671       26.609        0.585       31.082       21.716       11.772      966.117      471.589      138.577        0.122        0.079       29.472        9.510        0.104      340.100       13.889      856.614
05/18/2014  02:18:00      -49.809       31.308       -7.641       25.058       21.371       16.027      627.925      456.732      256.865        0.243        0.067       58.831       16.378        0.077      340.305       14.236      856.580
05/18/2014  02:19:00      -86.193       25.806      -15.517       25.839       25.234       18.615      667.648      636.745      346.525        0.499        0.083       89.973       16.912        0.035      340.504       14.571      856.597
05/18/2014  02:20:00      -66.811       48.652       -8.040       26.233       25.849       19.600      688.169      668.153      384.177        0.432        0.087       82.649       12.218        0.022      340.508       14.577      856.603
05/18/2014  02:21:00      -52.242       59.034       -9.586       28.053       28.159       17.155      786.994      792.949      294.284        0.409        0.094       78.831       17.552        0.050      340.480       14.530      856.565
05/18/2014  02:22:00      -77.307       72.205      -14.901       30.117       39.865       19.497      907.044     1589.217      380.123        0.714        0.144      105.782       18.025        0.029      340.480       14.530      856.542
05/18/2014  02:23:00      -41.212       25.824       -2.593       17.902       27.129       16.474      320.492      736.000      271.384        0.185        0.066       48.634       16.869        0.120      340.432       14.450      856.552
05/18/2014  02:24:00      -35.167       31.577       -1.256       19.719       18.381       17.089      388.845      337.877      292.047        0.163        0.051       47.264       13.367        0.080      340.487       14.542      856.569
05/18/2014  02:25:00       41.198       42.937       11.051       23.779       11.309       16.574      565.460      127.893      274.695        0.232        0.048       59.506        8.557        0.021      340.369       14.342      856.581
05/18/2014  02:26:00       98.057       49.322        8.560       27.649       23.884       26.533      764.484      570.444      704.027        0.708        0.102      109.763       15.577        0.020      340.030       13.769      856.564
05/18/2014  02:27:00       89.642       54.205       23.431       36.705       28.376       31.262     1347.275      805.219      977.282        0.733        0.156      104.757       10.113        0.009      340.041       13.788      856.531
05/18/2014  02:28:00       69.140       35.787       24.356       26.507       19.036       17.300      702.620      362.357      299.288        0.401        0.068       77.853        5.696        0.005      340.095       13.879      856.532
05/18/2014  02:29:00       30.254       57.343       -7.051       29.469       40.832       18.320      868.431     1667.236      335.623        0.356        0.144       64.835       21.563        0.111      340.126       13.931      856.530
05/18/2014  02:30:00       25.346       40.388       -6.270       24.400       31.273       18.748      595.365      978.024      351.497        0.212        0.096       47.683       18.402        0.149      340.188       14.037      856.501
05/18/2014  02:31:00       24.425       66.058       -4.500       23.505       39.069       19.056      552.506     1526.398      363.133        0.371        0.122       70.429       21.128        0.090      340.204       14.063      856.479
05/18/2014  02:32:00       32.491       46.169       14.353       28.134       28.319       22.052      791.512      801.993      486.298        0.274        0.104       56.456        8.701        0.024      340.039       13.786      856.480
05/18/2014  02:33:00       29.144       -7.399       18.496       22.291       20.503       15.785      496.878      420.359      249.157        0.121        0.058       30.069        9.569        0.101      339.501       12.877      856.502
05/18/2014  02:34:00       36.270        2.518       17.284       23.429       18.122       20.252      548.934      328.402      410.133        0.145        0.064       36.357       11.176        0.094      339.672       13.166      856.517
05/18/2014  02:35:00       40.252      -13.598       13.306       17.150       20.037       21.975      294.111      401.495      482.909        0.158        0.059       42.486       16.594        0.153      340.152       13.976      856.533
05/18/2014  02:36:00       23.310        8.379        5.818       17.626       11.210       14.571      310.684      125.669      212.323        0.065        0.032       24.770       12.240        0.244      339.722       13.250      856.532
05/18/2014  02:37:00       23.123       38.267        3.358       14.636       26.562       14.609      214.206      705.561      213.420        0.157        0.057       44.711       17.297        0.150      339.978       13.683      856.475
05/18/2014  02:38:00       -5.346       81.818      -17.491       14.141       29.230        8.511      199.963      854.399       72.442        0.408        0.056       81.992       10.712        0.017      340.490       14.547      856.426
05/18/2014  02:39:00       29.064      107.962      -24.236       22.502       19.517       10.614      506.326      380.910      112.659        0.704        0.050      111.806       10.729        0.009      340.596       14.725      856.423
05/18/2014  02:40:00       53.911       97.439      -12.352       24.707       44.999       28.635      610.417     2024.911      819.984        0.800        0.173      111.359       24.053        0.047      340.427       14.441      856.418
05/18/2014  02:41:00       82.249       75.964        8.814       72.360       41.230       38.105     5235.901     1699.951     1451.963        1.050        0.419      111.962       30.420        0.074      340.312       14.246      856.373
05/18/2014  02:42:00      111.246       62.717        4.330       68.625       41.739       34.506     4709.429     1742.146     1190.666        1.198        0.382      127.707       21.232        0.028      340.265       14.166      856.332
05/18/2014  02:43:00      -47.294      -11.007        3.177       32.107       33.039       16.535     1030.869     1091.586      273.405        0.238        0.120       48.558        7.753        0.025      340.193       14.043      856.366
05/18/2014  02:44:00      -88.820      -55.670       -5.569       34.791       32.920       21.387     1210.402     1083.706      457.408        0.688        0.138      104.825       17.955        0.029      340.204       14.061      856.412
05/18/2014  02:45:00      -48.066      -33.868        1.612       19.305       28.786       20.027      372.677      828.654      401.063        0.253        0.080       58.800       19.484        0.110      340.278       14.188      856.413
05/18/2014  02:46:00       26.308      -14.026       10.633       25.402       29.122       27.096      645.256      848.067      734.194        0.161        0.111       29.813       21.442        0.517      339.671       13.163      856.400
05/18/2014  02:47:00       20.949       -7.797        6.716       23.209       18.525       16.162      538.635      343.191      261.212        0.084        0.057       22.353        6.843        0.094      339.601       13.046      856.394
05/18/2014  02:48:00        5.695       -8.923        3.774       14.726       21.065       17.514      216.869      443.742      306.723        0.055        0.048       10.586       18.736        3.133      339.842       13.453      856.373
05/18/2014  02:49:00      -76.335       -6.320       -3.641       24.092       15.074       13.379      580.426      227.215      178.985        0.343        0.049       76.597       13.396        0.031      340.459       14.493      856.370
05/18/2014  02:50:00      -61.552       -8.563       -6.120       21.395       13.082       11.413      457.764      171.137      130.267        0.233        0.038       62.145        8.645        0.019      340.511       14.581      856.387
05/18/2014  02:51:00      -14.101       20.046       -4.480       18.682       22.579       10.986      349.026      509.799      120.683        0.080        0.049       24.509        9.466        0.149      340.406       14.404      856.385
05/18/2014  02:52:00       37.494       75.799        8.882       43.527       22.327       19.777     1894.605      498.483      391.126        0.501        0.139       84.566       10.682        0.016      340.465       14.504      856.369
05/18/2014  02:53:00       90.552       50.140       15.817       40.262       29.835       23.572     1621.056      890.124      555.643        0.701        0.153      103.508       19.231        0.035      340.383       14.364      856.346
05/18/2014  02:54:00       87.978       37.350       12.027       31.775       27.176       26.972     1009.639      738.559      727.494        0.588        0.124       95.579       14.604        0.023      340.288       14.206      856.315
05/18/2014  02:55:00       96.710       54.948       11.049       44.789       31.260       26.203     2006.095      977.202      686.610        0.808        0.183      111.230       20.933        0.035      340.213       14.077      856.246
05/18/2014  02:56:00       64.112       56.555       13.186       44.160       28.868       21.854     1950.139      833.334      477.607        0.537        0.163       85.492       21.953        0.066      340.091       13.871      856.209
05/18/2014  02:57:00       61.819       35.377       15.792       30.993       25.704       19.232      960.543      660.718      369.875        0.366        0.100       71.226       16.326        0.053      340.124       13.927      856.233
05/18/2014  02:58:00       33.077       32.172        4.459       30.291       24.609       21.046      917.521      605.618      442.939        0.206        0.098       46.143        7.105        0.024      340.221       14.091      856.271
05/18/2014  02:59:00       20.058       45.525        1.610       20.911       21.901       15.880      437.272      479.673      252.161        0.182        0.058       49.748        5.782        0.014      340.202       14.059      856.279
05/18/2014  03:00:00       30.427       47.077       -0.722       16.127       19.652       19.251      260.095      386.192      370.605        0.208        0.051       56.054        8.952        0.026      340.150       13.972      856.265
05/18/2014  03:01:00        9.544       -1.078       -0.113       25.213       13.829       15.338      635.700      191.249      235.252        0.058        0.053        9.605       13.313        1.921      339.843       13.455      856.270
05/18/2014  03:02:00       33.842       10.899        9.517       25.906       14.255       17.684      671.132      203.191      312.726        0.127        0.059       35.554       10.844        0.093      339.858       13.480      856.289
05/18/2014  03:03:00       88.487       43.284       22.529       47.187       24.835       21.733     2226.620      616.791      472.311        0.676        0.166       98.506       18.210        0.034      339.924       13.590      856.289
05/18/2014  03:04:00       48.086       49.641       11.313       27.411       12.889       16.321      751.377      166.115      266.368        0.304        0.059       69.112       12.663        0.034      340.184       14.031      856.276
05/18/2014  03:05:00       43.030       53.660        5.194       34.306       31.161       24.259     1176.898      971.022      588.497        0.375        0.137       68.782       19.995        0.085      340.229       14.106      856.233
05/18/2014  03:06:00       42.348       99.970      -14.280       38.613       34.827       21.397     1490.957     1212.904      457.843        0.758        0.158      108.570       18.289        0.028      340.239       14.123      856.218
05/18/2014  03:07:00      -65.984       49.404      -18.305       36.028       35.224       17.101     1298.047     1240.726      292.441        0.498        0.142       82.430       13.580        0.027      340.490       14.547      856.251
05/18/2014  03:08:00      -88.072       55.688      -21.441       18.984       17.235       14.644      360.405      297.041      214.452        0.609        0.044      104.201       10.365        0.010      340.409       14.410      856.266
05/18/2014  03:09:00      -44.154       39.922       -7.671       16.455       24.542       14.852      270.757      602.322      220.585        0.235        0.055       59.526       12.455        0.044      340.430       14.445      856.248
05/18/2014  03:10:00      -55.823       18.595      -12.786       22.452       20.801       13.520      504.109      432.672      182.798        0.237        0.056       58.838       11.518        0.038      340.476       14.523      856.274
05/18/2014  03:11:00        2.338       47.288       -5.184       30.325       16.012       12.854      919.627      256.383      165.222        0.180        0.067       47.345       11.557        0.060      340.459       14.493      856.270
05/18/2014  03:12:00       33.968       83.992      -10.487       17.136       37.581       17.240      293.655     1412.366      297.226        0.516        0.100       90.600       18.307        0.041      340.391       14.378      856.223
05/18/2014  03:13:00       37.109       40.369        0.169       49.472       36.271       26.637     2447.496     1315.581      709.533        0.374        0.224       54.834       25.712        0.220      340.245       14.133      856.177
05/18/2014  03:14:00       53.488       63.372        2.106       32.153       41.628       30.756     1033.827     1732.927      945.937        0.530        0.186       82.927       28.928        0.122      340.193       14.043      856.159
05/18/2014  03:15:00       47.550      108.044       -7.230       33.278       48.319       33.929     1107.421     2334.767     1151.180        0.929        0.230      118.045       32.655        0.077      340.251       14.142      856.131
05/18/2014  03:16:00       16.914      165.583      -27.271       24.846       27.695       12.129      617.329      766.993      147.110        1.499        0.077      166.445       10.043        0.004      340.281       14.194      856.123
05/18/2014  03:17:00        2.931      179.123      -30.421       19.098       25.144       10.144      364.719      632.246      102.901        1.706        0.055      179.147       10.236        0.003      340.329       14.274      856.144
05/18/2014  03:18:00       59.709      202.559      -29.500       34.711       42.311       30.690     1204.885     1790.195      941.864        2.470        0.197      211.177       24.937        0.014      340.401       14.394      856.131
05/18/2014  03:19:00       48.510       91.608       -1.146       52.201       64.247       38.794     2724.927     4127.653     1504.940        0.955        0.418      103.659       34.083        0.108      340.321       14.262      856.090
05/18/2014  03:20:00       55.098       39.711        3.411       32.193       43.949       28.226     1036.382     1931.532      796.729        0.419        0.188       67.917       23.970        0.125      340.290       14.208      856.098
05/18/2014  03:21:00       28.181       32.691       10.375       36.257       25.859       17.416     1314.554      668.693      303.329        0.213        0.114       43.161        7.889        0.033      340.210       14.072      856.121
05/18/2014  03:22:00       25.654       45.264        1.889       23.083       27.531       19.060      532.817      757.964      363.279        0.218        0.083       52.029       17.355        0.111      340.215       14.083      856.145
05/18/2014  03:23:00       68.301       91.925       12.036       42.823       28.797       33.361     1833.790      829.265     1112.953        0.852        0.189      114.522       25.195        0.048      340.334       14.283      856.159
05/18/2014  03:24:00      120.186       92.594       20.174       68.054       39.354       33.645     4631.330     1548.749     1131.972        1.537        0.366      151.719       16.611        0.012      340.406       14.405      856.062
05/18/2014  03:25:00       65.780       37.302       13.604       56.911       38.564       31.431     3238.913     1487.153      987.918        0.581        0.286       75.620       12.841        0.029      340.310       14.242      856.033
05/18/2014  03:26:00      106.237       74.319       17.775       40.771       38.234       30.468     1662.270     1461.828      928.273        1.059        0.203      129.652       19.188        0.022      340.339       14.292      856.045
05/18/2014  03:27:00       83.823       60.254        8.987       43.705       49.589       29.043     1910.150     2459.020      843.510        0.797        0.261      103.232       19.817        0.037      340.140       13.954      856.011
05/18/2014  03:28:00       91.628       40.668       16.887       45.549       38.042       32.569     2074.677     1447.167     1060.732        0.746        0.229      100.248       24.700        0.061      340.045       13.795      855.996
05/18/2014  03:29:00       89.281       41.655       16.188       43.918       28.393       28.757     1928.813      806.173      826.938        0.676        0.178       98.520       16.350        0.028      340.038       13.784      856.053
05/18/2014  03:30:00       51.214       23.027       11.446       28.127       33.241       18.961      791.141     1104.977      359.502        0.277        0.113       56.152       15.594        0.077      339.733       13.269      856.083
05/18/2014  03:31:00       16.135       26.055       21.623       16.463       22.215       15.619      271.042      493.503      243.938        0.121        0.050       30.646        1.966        0.004      339.760       13.315      856.058
05/18/2014  03:32:00       14.406       27.094       28.103       29.275       18.310       15.029      857.049      335.247      225.885        0.157        0.071       30.686       10.160        0.110      339.812       13.403      856.042
05/18/2014  03:33:00        5.463       10.469       -0.944       14.562       28.789       20.847      212.055      828.817      434.615        0.081        0.074       11.809       14.055        1.417      339.869       13.499      856.055
05/18/2014  03:34:00        2.247       22.059       -3.125       21.005       15.730       19.300      441.209      247.446      372.498        0.078        0.053       22.173       15.136        0.466      340.134       13.946      856.064
05/18/2014  03:35:00        7.084        5.155       -1.612       19.793       23.352       12.592      391.758      545.306      158.565        0.059        0.055        8.761        6.269        0.512      340.030       13.770      856.091
05/18/2014  03:36:00       35.393      -22.524       -0.052       31.190       26.916       22.482      972.809      724.490      505.435        0.198        0.110       41.953        3.101        0.005      339.922       13.588      856.095
05/18/2014  03:37:00       38.394      -22.365       15.452       33.600       28.263       26.693     1128.963      798.773      712.508        0.243        0.132       44.433       22.260        0.251      339.643       13.116      856.110
05/18/2014  03:38:00       23.130      -16.129        0.798       37.574       48.335       36.221     1411.777     2336.283     1311.964        0.293        0.253       28.198       34.322        1.482      339.905       13.557      856.132
05/18/2014  03:39:00       12.596       65.325       86.987       34.333       49.076       37.894     1178.780     2408.414     1435.992        0.851        0.251       66.529       34.634        0.271      339.610       13.062      856.120
05/18/2014  03:40:00      174.828       66.885      104.350       97.853       94.141       61.678     9575.168     8862.506     3804.170        3.408        1.112      187.185       66.913        0.128      340.142       13.955      856.079
05/18/2014  03:41:00       59.369      115.880      120.718       74.562       83.088       45.259     5559.454     6903.639     2048.408        2.302        0.726      130.203       41.831        0.103      339.831       13.433      856.052
05/18/2014  03:42:00        7.355       13.467       64.438       28.160       53.649       36.894      792.998     2878.168     1361.132        0.471        0.252       15.344       35.460        5.340      339.875       13.507      856.051
05/18/2014  03:43:00       27.860       26.415       14.749       42.337       40.958       32.230     1792.408     1677.579     1038.755        0.310        0.225       38.391       14.540        0.143      339.887       13.529      856.061
05/18/2014  03:44:00       -1.279      -11.924      -10.071       22.770       29.451       16.359      518.493      867.368      267.632        0.095        0.083       11.992        7.563        0.398      339.896       13.544      856.087
05/18/2014  03:45:00      -34.292       -7.177        3.137       31.168       28.135       13.679      971.420      791.605      187.107        0.159        0.098       35.035       11.848        0.114      340.251       14.144      856.092
05/18/2014  03:46:00      -35.347      -10.771        1.158       27.106       19.194       14.072      734.754      368.423      198.017        0.133        0.065       36.952       15.430        0.174      340.272       14.178      856.072
05/18/2014  03:47:00       17.184       10.478        4.470       25.377       26.367       16.650      643.969      695.209      277.206        0.102        0.081       20.126       17.098        0.722      340.247       14.137      856.055
05/18/2014  03:48:00       60.107       39.362        9.593       21.818       26.847       15.969      476.030      720.785      254.998        0.335        0.073       71.849        3.634        0.003      340.107       13.900      856.051
05/18/2014  03:49:00       51.996       90.076      -16.179       35.372       39.382       30.164     1251.153     1550.947      909.891        0.739        0.186      104.006       25.113        0.058      340.199       14.053      856.008
05/18/2014  03:50:00       20.020       10.697       -3.191       33.460       40.764       22.162     1119.586     1661.687      491.142        0.190        0.164       22.699       23.384        1.061      340.109       13.902      855.986
05/18/2014  03:51:00       20.633       -4.767       -2.932       25.667       15.089       14.790      658.780      227.669      218.735        0.078        0.055       21.176        4.887        0.053      340.158       13.985      855.986
05/18/2014  03:52:00       44.401      -60.903      -15.345       29.501       31.060       18.752      870.322      964.753      351.621        0.405        0.109       75.370       15.894        0.044      340.045       13.795      855.963
05/18/2014  03:53:00       38.611      -47.179       15.964       34.679       33.673       26.497     1202.651     1133.903      702.109        0.350        0.152       60.965       20.029        0.108      340.204       14.062      856.009
05/18/2014  03:54:00        4.613      -17.661       13.177       22.591       21.373       16.362      510.371      456.820      267.720        0.087        0.062       18.254       14.124        0.599      340.154       13.980      856.069
05/18/2014  03:55:00       41.315       -9.637       19.463       29.970       28.248       26.190      898.225      797.948      685.901        0.228        0.119       42.424       24.110        0.323      339.970       13.670      856.085
05/18/2014  03:56:00       44.066       -4.394       11.338       29.481       27.665       31.008      869.145      765.333      961.513        0.234        0.130       44.284       20.314        0.210      339.642       13.116      856.078
05/18/2014  03:57:00       20.972      -36.332       -3.193       36.608       30.997       25.825     1340.120      960.843      666.910        0.237        0.148       41.950       24.557        0.343      339.448       12.788      856.075
05/18/2014  03:58:00       49.919      -32.455        0.098       36.301       31.623       19.736     1317.727     1000.003      389.502        0.313        0.135       59.542       17.811        0.089      339.411       12.726      856.063
05/18/2014  03:59:00       38.726       -4.805       14.114       28.637       29.830       29.295      820.086      889.850      858.201        0.214        0.128       39.023       23.441        0.361      339.502       12.879      856.050
05/18/2014  04:00:00       83.091      -23.325       -5.515       29.848       27.442       22.885      890.881      753.089      523.743        0.482        0.108       86.302       12.385        0.021      339.442       12.778      856.059
05/18/2014  04:01:00       57.791       36.845       57.987       56.477       60.007       50.922     3189.703     3600.797     2593.026        0.872        0.469       68.537       46.889        0.468      339.847       13.462      856.033
05/18/2014  04:02:00      -17.611      -62.785        4.435       23.743       41.843       39.110      563.708     1750.845     1529.591        0.406        0.192       65.208       25.289        0.150      340.063       13.825      855.973
05/18/2014  04:03:00      -13.336      -14.459      -11.845       31.149       30.020       22.135      970.260      901.214      489.945        0.144        0.118       19.670       20.000        1.034      340.035       13.779      855.960
05/18/2014  04:04:00      -20.990       -9.793       16.436       29.575       24.229       14.455      874.662      587.056      208.943        0.124        0.084       23.162        8.784        0.144      339.966       13.661      855.977
05/18/2014  04:05:00      -54.829       12.033      -12.474       33.932       27.091       17.516     1151.357      733.915      306.817        0.275        0.110       56.134        9.518        0.029      340.129       13.937      856.008
05/18/2014  04:06:00      -58.237      -37.425       -8.762       33.317       13.578       11.701     1110.001      184.357      136.905        0.315        0.072       69.225        9.573        0.019      340.110       13.904      856.044
05/18/2014  04:07:00      -59.639      -61.777        2.808       30.909       23.416       15.078      955.369      548.310      227.350        0.456        0.087       85.867       17.023        0.039      340.191       14.040      856.074
05/18/2014  04:08:00      -81.947      -61.671       -5.176       52.479       30.882       20.202     2754.093      953.670      408.137        0.733        0.206      102.560       20.083        0.038      340.172       14.009      856.082
05/18/2014  04:09:00      -39.288      -41.042        2.419       29.774       25.583       18.986      886.494      654.477      360.476        0.257        0.095       56.815       16.104        0.080      340.100       13.887      856.037
05/18/2014  04:10:00     -171.628      -77.800      -12.411       58.778       53.420       33.752     3454.839     2853.720     1139.197        2.155        0.372      188.438       33.668        0.032      340.549       14.645      855.939
05/18/2014  04:11:00     -105.589      -60.350       -0.121       41.872       35.081       26.105     1753.224     1230.645      681.471        0.923        0.183      121.619       22.964        0.036      340.545       14.640      855.894
05/18/2014  04:12:00      -78.200      -78.424       10.540       93.617       41.386       30.352     8764.196     1712.786      921.251        1.189        0.570      110.750       39.078        0.125      340.459       14.493      855.940
05/18/2014  04:13:00      -36.287        4.070       15.062       42.773       46.757       27.429     1829.503     2186.242      752.329        0.316        0.238       36.515       19.470        0.284      340.422       14.432      855.971
05/18/2014  04:14:00       45.233      -31.798       10.599       39.569       47.472       39.622     1565.715     2253.613     1569.912        0.428        0.269       55.292       39.914        0.521      340.019       13.752      855.974
05/18/2014  04:15:00       40.205       -6.570       15.280       35.412       38.863       25.295     1253.984     1510.371      639.819        0.265        0.170       40.739       23.504        0.333      340.084       13.862      855.979
05/18/2014  04:16:00       51.000       -0.696        1.812       25.713       22.231       23.894      661.167      494.200      570.900        0.217        0.086       51.005        8.744        0.029      339.857       13.477      855.967
05/18/2014  04:17:00       38.657       22.878       -8.166       10.916       24.952       16.292      119.156      622.579      265.417        0.155        0.050       44.920        8.791        0.038      340.303       14.231      855.941
05/18/2014  04:18:00       38.378      -31.439        7.480       39.692       46.840       36.695     1575.451     2193.951     1346.502        0.382        0.256       49.611       33.311        0.451      339.623       13.083      855.920
05/18/2014  04:19:00       -1.549        8.037       27.797       40.070       47.450       27.323     1605.609     2251.514      746.522        0.272        0.230        8.185       26.649       10.601      339.603       13.050      855.897
05/18/2014  04:20:00      -26.248      -54.482       -9.594       29.346       47.737       21.317      861.217     2278.797      454.426        0.367        0.180       60.476       18.910        0.098      340.064       13.827      855.905
05/18/2014  04:21:00       25.561       28.952       23.753       27.435       17.788       10.771      752.704      316.425      116.018        0.162        0.059       38.621       10.064        0.068      340.140       13.955      855.908
05/18/2014  04:22:00       10.177       23.032        3.587       29.192       15.380       14.994      852.171      236.541      224.808        0.098        0.066       25.180        8.802        0.122      340.121       13.923      855.880
05/18/2014  04:23:00        2.639        5.219       17.615       16.332       13.008       12.506      266.750      169.211      156.407        0.047        0.030        5.848        6.931        1.405      340.004       13.726      855.867
05/18/2014  04:24:00       23.554        1.687       18.234       26.936       23.390       17.902      725.575      547.103      320.483        0.124        0.080       23.614       13.223        0.314      339.815       13.406      855.848
05/18/2014  04:25:00      -17.629       -9.762        3.323       18.432       20.741       13.409      339.750      430.190      179.800        0.068        0.047       20.152        7.742        0.148      340.232       14.111      855.853
05/18/2014  04:26:00      -34.175      -74.272        6.672       44.997       63.587       24.542     2024.766     4043.298      602.285        0.670        0.334       81.757       23.149        0.080      340.195       14.048      855.867
05/18/2014  04:27:00        7.985       -7.516       13.332       12.927       12.544       10.540      167.104      157.344      111.088        0.037        0.022       10.966        5.237        0.228      340.189       14.038      855.849
05/18/2014  04:28:00       37.232        3.113       10.901       48.525       24.980       25.676     2354.637      624.021      659.257        0.258        0.182       37.362       19.340        0.268      339.955       13.642      855.855
05/18/2014  04:29:00       47.744        9.087       23.587       43.141       38.331       26.177     1861.104     1469.232      685.257        0.347        0.201       48.601       26.994        0.308      339.805       13.391      855.869
05/18/2014  04:30:00      -19.425      -31.698      -14.479       21.883       28.645       25.985      478.883      820.553      675.207        0.178        0.099       37.177       19.542        0.276      339.711       13.231      855.880
05/18/2014  04:31:00      -12.823      -20.856        0.243       17.792       20.871       17.227      316.561      435.615      296.764        0.082        0.052       24.483        8.362        0.117      339.658       13.143      855.886
05/18/2014  04:32:00        7.137       -0.332       16.436       19.588       12.243       13.655      383.678      149.896      186.456        0.052        0.036        7.144       10.963        2.355      339.699       13.213      855.905
05/18/2014  04:33:00       22.804       18.610        9.341       16.715       12.447       16.375      279.400      154.925      268.125        0.083        0.035       29.435        8.241        0.078      339.851       13.467      855.911
05/18/2014  04:34:00       54.676       13.619        7.019       25.641       20.889       20.839      657.449      436.362      434.281        0.238        0.076       56.346       19.430        0.119      339.870       13.501      855.890
05/18/2014  04:35:00       34.850      -13.525        1.594       25.407       49.673       23.848      645.532     2467.374      568.708        0.254        0.184       37.382       17.566        0.221      339.686       13.189      855.877
05/18/2014  04:36:00       -8.177      -57.981      -12.091       32.777       32.872       27.903     1074.312     1080.564      778.550        0.325        0.147       58.554       23.351        0.159      339.493       12.864      855.895
05/18/2014  04:37:00       -1.415      -41.349       14.936       18.083       25.985       17.596      327.002      675.244      309.636        0.162        0.066       41.373       12.393        0.090      339.808       13.396      855.902
05/18/2014  04:38:00       -8.729      -11.163        4.026       18.923       14.436       11.541      358.099      208.390      133.195        0.046        0.035       14.170        6.857        0.234      339.836       13.442      855.902
05/18/2014  04:39:00       17.364      -11.475       13.528       30.078       30.743       23.609      904.696      945.129      557.401        0.151        0.120       20.813       25.079        1.452      339.754       13.307      855.892
05/18/2014  04:40:00       22.927       45.116       12.761       22.505       42.053       18.777      506.466     1768.485      352.589        0.268        0.131       50.607       11.111        0.048      339.728       13.262      855.846
05/18/2014  04:41:00       54.417       69.378       -6.901       27.596       19.954       29.146      761.523      398.147      849.496        0.492        0.100       88.173       11.459        0.017      339.939       13.616      855.802
05/18/2014  04:42:00      101.094       73.397       28.820       33.825       22.004       39.503     1144.164      484.181     1560.458        0.981        0.159      124.928       23.433        0.035      340.001       13.721      855.783
05/18/2014  04:43:00       55.808       53.546       53.873       34.938       31.100       24.303     1220.662      967.219      590.656        0.583        0.139       77.341       17.283        0.050      339.940       13.618      855.801
05/18/2014  04:44:00        4.939       -9.028        1.969       21.735       30.724       21.351      472.416      943.947      455.884        0.099        0.094       10.291       19.146        3.461      339.718       13.244      855.818
05/18/2014  04:45:00       25.154      -26.218      -16.786       25.452       23.690       14.278      647.799      561.216      203.869        0.151        0.071       36.333       11.950        0.108      339.512       12.896      855.830
05/18/2014  04:46:00       40.425      -29.769       -0.718       26.075       26.973       27.958      679.889      727.541      781.632        0.235        0.109       50.203       17.024        0.115      339.508       12.890      855.825
05/18/2014  04:47:00       46.726        2.767       18.444       42.085       31.407       26.725     1771.162      986.426      714.231        0.300        0.174       46.808       24.970        0.285      339.379       12.671      855.795
05/18/2014  04:48:00       45.742      -21.037       11.950       32.039       44.632       31.769     1026.511     1992.023     1009.287        0.335        0.201       50.348       30.691        0.372      339.511       12.894      855.771
05/18/2014  04:49:00       18.882       -0.868       21.232       24.088       23.049       17.012      580.226      531.243      289.392        0.110        0.070       18.902        8.931        0.223      339.592       13.031      855.726
05/18/2014  04:50:00      -39.305       -7.483        6.158       50.888       27.124       24.585     2589.614      735.700      604.402        0.278        0.196       40.011       16.424        0.168      340.007       13.732      855.702
05/18/2014  04:51:00       42.756       12.547        8.858       18.758       40.022       22.472      351.864     1601.732      504.998        0.226        0.123       44.559       21.337        0.229      339.746       13.292      855.683
05/18/2014  04:52:00       30.591      -20.469       14.375       23.593       19.274       18.833      556.607      371.499      354.677        0.142        0.064       36.807        9.183        0.062      339.655       13.137      855.695
05/18/2014  04:53:00       47.867      -36.859       11.522       43.375       41.444       34.046     1881.409     1717.599     1159.111        0.427        0.238       60.414       28.039        0.215      339.834       13.440      855.685
05/18/2014  04:54:00       -2.053        6.088       25.060       30.545       34.644       25.108      933.009     1200.225      630.426        0.172        0.138        6.425       13.783        4.602      339.568       12.990      855.656
05/18/2014  04:55:00       36.704        4.919       -4.839       20.367       17.655       14.691      414.822      311.698      215.839        0.117        0.047       37.033        7.722        0.043      339.539       12.940      855.644
05/18/2014  04:56:00       35.098        9.007        7.638       20.731       17.169       23.107      429.791      294.769      533.940        0.131        0.063       36.235       14.608        0.163      339.765       13.322      855.629
05/18/2014  04:57:00       32.822        8.549       11.476       14.592       19.580       17.656      212.936      383.369      311.729        0.109        0.045       33.917       14.301        0.178      339.815       13.408      855.615
05/18/2014  04:58:00       -3.250      -17.346        5.469       11.849       11.714        9.773      140.404      137.209       95.514        0.036        0.019       17.648        6.777        0.147      339.836       13.443      855.632
05/18/2014  04:59:00        2.501        3.610        5.391        8.472       14.906        9.104       71.773      222.181       82.889        0.021        0.019        4.392        6.577        2.243      339.747       13.291      855.634
05/18/2014  05:00:00       -6.896       32.948        6.883       16.617        8.840        9.103      276.125       78.148       82.865        0.081        0.022       33.662        4.415        0.017      339.958       13.649      855.626
05/18/2014  05:01:00       -5.308       54.139      -11.032       16.764        9.270        8.574      281.025       85.940       73.522        0.176        0.022       54.398        9.815        0.033      339.870       13.501      855.626
05/18/2014  05:02:00       23.234       66.574      -10.265       12.754       18.136       11.396      162.676      328.929      129.858        0.285        0.031       70.512        7.366        0.011      339.940       13.617      855.636
05/18/2014  05:03:00       23.986       -6.887       -5.170       19.605       25.971       10.365      384.353      674.468      107.439        0.091        0.058       24.956        8.115        0.106      339.781       13.350      855.639
05/18/2014  05:04:00       24.722       31.335       25.212       18.404       18.015       15.924      338.702      324.543      253.578        0.157        0.046       39.913       11.428        0.082      339.567       12.988      855.651
05/18/2014  05:05:00       32.140       27.925       19.998       22.851       16.183       27.218      522.189      261.874      740.839        0.187        0.076       42.577       18.773        0.194      339.668       13.161      855.647
05/18/2014  05:06:00      -13.757       86.406       -9.558       48.481       61.193       35.971     2350.396     3744.596     1293.890        0.757        0.369       87.494       32.179        0.135      339.960       13.651      855.633
05/18/2014  05:07:00     -123.497       49.240       -6.791       81.663       84.173       39.018     6668.789     7085.032     1522.433        1.650        0.764      132.951       42.820        0.104      340.094       13.876      855.613
05/18/2014  05:08:00     -261.691       11.580      -26.674       63.728       49.749       24.560     4061.280     2474.938      603.202        3.823        0.357      261.947       24.502        0.009      340.248       14.132      855.612
05/18/2014  05:09:00     -148.847       -3.274       -5.892       62.594       32.824       24.364     3918.025     1077.432      593.610        1.389        0.279      148.883       28.089        0.036      340.129       13.936      855.614
05/18/2014  05:10:00     -127.918      -18.251       -7.563       50.412       34.316       21.666     2541.349     1177.606      469.417        1.047        0.209      129.213       24.445        0.036      340.189       14.037      855.612
05/18/2014  05:11:00      -84.356      -15.154        3.653       58.417       47.653       23.756     3412.497     2270.801      564.337        0.680        0.312       85.706       28.154        0.108      340.134       13.946      855.595
05/18/2014  05:12:00     -111.498       23.062       -0.526       57.505       36.405       20.172     3306.832     1325.305      406.916        0.900        0.252      113.858       16.415        0.021      340.097       13.882      855.588
05/18/2014  05:13:00     -132.417       31.928      -14.740       35.119       34.689       18.339     1233.315     1203.343      336.326        1.077        0.139      136.212       10.619        0.006      340.118       13.918      855.562
05/18/2014  05:14:00      -96.641       41.963      -12.427       38.719       44.489       23.648     1499.150     1979.304      559.205        0.765        0.202      105.359       17.520        0.028      340.142       13.959      855.541
05/18/2014  05:15:00      -20.232       11.752        3.738       45.813       30.211       19.785     2098.864      912.727      391.452        0.198        0.170       23.398       18.149        0.602      340.004       13.728      855.560
05/18/2014  05:16:00       26.902      -74.440        9.607       85.164       84.105       47.240     7252.901     7073.687     2231.633        1.145        0.828       79.152       47.128        0.355      340.113       13.908      855.546
05/18/2014  05:17:00      -64.637      -58.347       -0.124       56.544       49.640       26.171     3197.262     2464.105      684.934        0.696        0.317       87.077       32.660        0.141      340.173       14.011      855.546
05/18/2014  05:18:00       -6.752      -29.533       17.161       45.080       52.577       26.176     2032.205     2764.323      685.181        0.335        0.274       30.295       24.543        0.656      339.989       13.702      855.554
05/18/2014  05:19:00       -2.847      -30.511       24.129       18.761       40.848       15.152      351.974     1668.528      229.586        0.189        0.113       30.643        9.550        0.097      339.995       13.712      855.537
05/18/2014  05:20:00      -77.051       -7.553        2.116       35.191       35.716       23.298     1238.395     1275.663      542.820        0.453        0.153       77.421       17.999        0.054      340.041       13.788      855.529
05/18/2014  05:21:00      -55.571      -10.404        7.854       48.183       31.741       21.101     2321.641     1007.464      445.250        0.352        0.189       56.536       20.916        0.137      340.041       13.787      855.533
05/18/2014  05:22:00       -6.931      -28.556       10.489       39.052       23.075       20.580     1525.052      532.473      423.520        0.173        0.124       29.385       23.160        0.621      339.875       13.509      855.531
05/18/2014  05:23:00       31.624        3.586        5.380       19.721        7.738       19.918      388.923       59.871      396.741        0.094        0.042       31.827        8.829        0.077      339.501       12.878      855.516
05/18/2014  05:24:00       18.718       -5.641        0.699       11.506       12.553        8.934      132.378      157.584       79.818        0.038        0.018       19.549        3.087        0.025      339.629       13.094      855.519
05/18/2014  05:25:00        8.046       -7.780       -5.052       13.582       19.577       11.166      184.477      383.263      124.684        0.042        0.035       11.192       11.493        1.055      339.864       13.491      855.528
05/18/2014  05:26:00       29.570       39.693        5.284       32.898       17.550       14.104     1082.304      308.012      198.924        0.203        0.079       49.497       14.965        0.091      339.792       13.369      855.528
05/18/2014  05:27:00       58.881       35.002       10.796       20.094       21.272       28.051      403.774      452.493      786.847        0.323        0.082       68.499       14.580        0.045      339.722       13.250      855.511
05/18/2014  05:28:00       88.871       49.568       37.837       22.817       20.868       21.397      520.603      435.484      457.812        0.660        0.071      101.759       15.006        0.022      339.875       13.508      855.522
05/18/2014  05:29:00       88.364       41.263       12.951       32.055       24.351       24.255     1027.510      592.961      588.317        0.594        0.110       97.524       13.793        0.020      339.885       13.524      855.537
05/18/2014  05:30:00       58.131       34.553        2.335       31.759       14.952       14.153     1008.618      223.559      200.306        0.301        0.072       67.625       14.695        0.047      339.756       13.309      855.543
05/18/2014  05:31:00       21.968        6.066        7.618       19.255       13.696       13.942      370.747      187.583      194.386        0.066        0.038       22.790        7.046        0.096      339.552       12.965      855.548
05/18/2014  05:32:00       33.580      -41.363       -9.310       31.077       31.972       16.081      965.750     1022.231      258.614        0.259        0.112       53.278       12.388        0.054      339.307       12.550      855.562
05/18/2014  05:33:00       35.675      -39.404       -2.287       24.398       15.624       19.524      595.273      244.097      381.181        0.203        0.061       53.155        8.118        0.023      339.294       12.530      855.572
05/18/2014  05:34:00       32.131      -20.206        5.885       32.318       24.898       19.913     1044.424      619.898      396.529        0.177        0.103       37.957       11.024        0.084      339.249       12.455      855.553
05/18/2014  05:35:00       47.270       52.453       15.033       29.572       19.786       25.917      874.487      391.479      671.703        0.357        0.097       70.610       19.497        0.076      339.275       12.498      855.548
05/18/2014  05:36:00      102.772       52.114       25.497       38.054       27.211       25.604     1448.132      740.444      655.566        0.839        0.142      115.230       19.564        0.029      339.749       13.295      855.561
05/18/2014  05:37:00       95.203       67.197       34.981       19.815       19.726       20.884      392.615      389.108      436.144        0.801        0.061      116.529        7.980        0.005      339.838       13.446      855.573
05/18/2014  05:38:00       81.293       53.037        5.423       22.100       17.007       23.684      488.395      289.243      560.931        0.539        0.067       97.064       11.474        0.014      339.850       13.467      855.578
05/18/2014  05:39:00       32.530       22.295       -0.277       16.146       15.027       12.580      260.678      225.819      158.263        0.110        0.032       39.437        5.612        0.020      339.812       13.402      855.579
05/18/2014  05:40:00       20.817       69.164      -10.415       13.651       16.060        8.474      186.350      257.910       71.816        0.292        0.026       72.229        6.495        0.008      339.822       13.418      855.558
05/18/2014  05:41:00       43.176       67.285       -3.653       23.090       25.237       20.490      533.159      636.930      419.850        0.400        0.079       79.947       15.467        0.037      339.799       13.380      855.530
05/18/2014  05:42:00       -3.536        6.237        6.329       35.624       12.699       10.221     1269.103      161.253      104.459        0.081        0.077        7.169        9.496        1.754      339.649       13.128      855.538
05/18/2014  05:43:00      -11.716        0.848       -2.332       12.584       13.933        9.754      158.348      194.136       95.133        0.030        0.022       11.747        9.506        0.655      339.668       13.160      855.570
05/18/2014  05:44:00       35.835      -14.894       10.576       26.799       27.388       28.740      718.168      750.104      825.989        0.196        0.115       38.807       20.365        0.275      339.377       12.668      855.596
05/18/2014  05:45:00      107.948       61.965       10.519       32.971       23.076       24.812     1087.081      532.515      615.650        0.892        0.112      124.468       18.033        0.021      339.480       12.841      855.587
05/18/2014  05:46:00      125.260       40.252       22.342       57.341       37.480       38.317     3288.010     1404.717     1468.196        1.198        0.308      131.568       23.300        0.031      339.624       13.084      855.565
05/18/2014  05:47:00       71.250       50.024       13.015       33.771       20.870       24.543     1140.504      435.537      602.348        0.496        0.109       87.057       15.279        0.031      339.629       13.094      855.587
05/18/2014  05:48:00      -39.501       16.215      -11.848       42.833       16.385       18.439     1834.663      268.480      339.989        0.220        0.122       42.700       19.541        0.209      339.752       13.301      855.628
05/18/2014  05:49:00      -25.897       60.298      -13.397       24.080       15.675       11.571      579.826      245.709      133.891        0.272        0.048       65.624        8.233        0.016      339.948       13.632      855.639
05/18/2014  05:50:00        7.318       25.790        8.389       14.347       22.079       12.195      205.840      487.469      148.724        0.082        0.042       26.808       11.178        0.174      339.889       13.531      855.636
05/18/2014  05:51:00       -2.544        8.683        5.228        8.084        9.378        8.056       65.356       87.940       64.893        0.016        0.011        9.048        3.306        0.134      339.578       13.008      855.640
05/18/2014  05:52:00        9.614       36.982        3.138        8.272        8.163        8.156       68.421       66.629       66.517        0.084        0.010       38.211        3.766        0.010      339.688       13.193      855.646
05/18/2014  05:53:00       12.919        6.593       -2.681       26.229       13.034       14.460      687.941      169.874      209.082        0.064        0.053       14.504       11.729        0.654      339.742       13.284      855.657
05/18/2014  05:54:00      -69.102      -48.605        6.596       50.830       39.786       29.904     2583.732     1582.906      894.275        0.612        0.253       84.484       26.860        0.101      339.810       13.399      855.667
05/18/2014  05:55:00      -72.096     -110.764       -3.219       28.767       44.939       23.867      827.551     2019.550      569.639        1.045        0.171      132.161       20.654        0.024      340.131       13.940      855.698
05/18/2014  05:56:00       -7.972      -14.587        4.801       35.447       28.094       22.688     1256.474      789.252      514.767        0.143        0.128       16.623       16.886        1.032      339.870       13.501      855.712
05/18/2014  05:57:00       11.470       47.844        0.494       21.308       27.011       18.754      454.041      729.614      351.724        0.198        0.077       49.200       17.418        0.125      339.660       13.145      855.694
05/18/2014  05:58:00       60.202       61.671       11.545       27.794       24.492       22.308      772.492      599.865      497.653        0.472        0.094       86.184       16.852        0.038      339.860       13.483      855.672
05/18/2014  05:59:00        3.831       35.378        4.894       10.044       37.607       12.983      100.873     1414.281      168.560        0.149        0.084       35.585       15.938        0.201      339.949       13.632      855.692
05/18/2014  06:00:00        1.693       -1.762        5.474        5.639        9.739        5.334       31.799       94.857       28.448        0.010        0.008        2.443        2.224        0.829      339.926       13.594      855.723
05/18/2014  06:01:00       -9.523       12.182        2.044       11.029       11.932        9.117      121.631      142.364       83.119        0.030        0.017       15.463        5.505        0.127      339.783       13.353      855.753
05/18/2014  06:02:00      -17.725        8.402        7.456       18.620       17.483        8.778      346.701      305.638       77.048        0.058        0.036       19.616        4.322        0.049      339.732       13.268      855.751
05/18/2014  06:03:00        2.924       32.000        4.916       21.928       15.545       14.471      480.841      241.645      209.413        0.099        0.047       32.133       10.524        0.107      339.832       13.436      855.729
05/18/2014  06:04:00       42.485      -28.867        2.290       28.081       32.038       18.919      788.525     1026.433      357.914        0.241        0.109       51.364       16.032        0.097      339.609       13.059      855.715
05/18/2014  06:05:00       36.150      -34.518        2.179       21.820       17.750       15.144      476.105      315.071      229.341        0.176        0.051       49.983       11.284        0.051      339.556       12.969      855.702
05/18/2014  06:06:00        3.933       -9.632       -2.539        8.343       16.030        9.958       69.598      256.953       99.168        0.027        0.021       10.404       11.444        1.210      339.652       13.133      855.693
05/18/2014  06:07:00       18.465        1.857        1.736       10.126        8.116        5.094      102.538       65.871       25.947        0.027        0.010       18.558        1.677        0.008      339.550       12.960      855.692
05/18/2014  06:08:00        8.670      -27.803        5.537       11.630       22.760       11.465      135.263      518.033      131.443        0.083        0.039       29.123       11.027        0.143      339.677       13.175      855.707
05/18/2014  06:09:00      -22.058      -87.751        2.414       16.264       55.718       16.562      264.525     3104.462      274.290        0.592        0.182       90.481       13.738        0.023      339.807       13.392      855.736
05/18/2014  06:10:00      -30.011      -56.618       -3.356       19.594       46.729       16.190      383.911     2183.575      262.105        0.347        0.141       64.080       16.680        0.068      339.931       13.602      855.739
05/18/2014  06:11:00       20.105        0.851        9.525       10.699        8.641       11.764      114.467       74.668      138.385        0.041        0.016       20.123        8.564        0.181      339.816       13.408      855.730
05/18/2014  06:12:00      -37.275       70.083      -15.329       56.421       41.139       23.624     3183.363     1692.398      558.086        0.598        0.272       79.380       30.278        0.145      339.900       13.550      855.704
05/18/2014  06:13:00     -118.755      104.988      -17.289       60.318       58.024       32.884     3638.218     3366.772     1081.383        1.675        0.404      158.509       22.992        0.021      339.958       13.648      855.685
05/18/2014  06:14:00     -127.688      -27.712       -7.805       57.926       36.463       25.053     3355.444     1329.543      627.649        1.122        0.266      130.661       27.407        0.044      339.923       13.591      855.704
05/18/2014  06:15:00      -87.834      -14.307        0.417       38.734       36.260       21.050     1500.335     1314.776      443.099        0.559        0.163       88.991       20.119        0.051      339.878       13.513      855.743
05/18/2014  06:16:00      -30.992      -76.206       -5.178       59.449       42.722       22.385     3534.239     1825.160      501.082        0.633        0.293       82.267       20.818        0.064      339.936       13.611      855.768
05/18/2014  06:17:00     -123.260      -64.560       -1.127       49.209       34.934       22.254     2421.511     1220.417      495.254        1.175        0.207      139.144       27.629        0.039      339.903       13.556      855.765
05/18/2014  06:18:00      -99.586      -30.150       -1.731       31.219       24.965       16.864      974.614      623.245      284.409        0.636        0.094      104.050       13.458        0.017      339.870       13.499      855.751
05/18/2014  06:19:00     -211.891      -49.201      -19.674       87.444       57.010       24.986     7646.373     3250.112      624.299        2.961        0.576      217.529       35.271        0.026      339.980       13.682      855.753
05/18/2014  06:20:00     -121.382      -64.552       -1.564       63.064       37.184       27.644     3977.026     1382.685      764.190        1.251        0.306      137.480       29.117        0.045      339.959       13.648      855.768
05/18/2014  06:21:00     -105.937      -71.725       -1.694       53.358       42.873       23.076     2847.090     1838.114      532.512        1.079        0.261      127.934       24.016        0.035      340.002       13.722      855.777
05/18/2014  06:22:00      -27.150        4.513       -1.062       25.588       33.171       15.990      654.744     1100.327      255.682        0.138        0.101       27.523       17.632        0.410      339.889       13.531      855.782
05/18/2014  06:23:00      -46.740       21.602       -7.819       23.681       14.428       11.598      560.798      208.180      134.505        0.181        0.045       51.490        4.907        0.009      339.898       13.549      855.797
05/18/2014  06:24:00      -51.736        9.525       -6.881       22.938       14.464       14.918      526.173      209.216      222.557        0.189        0.048       52.605       13.903        0.070      339.919       13.583      855.803
05/18/2014  06:25:00      -13.399        5.929       -1.274        8.705       13.353        9.328       75.770      178.304       87.005        0.028        0.017       14.652        2.727        0.035      339.920       13.585      855.811
05/18/2014  06:26:00       -9.510       41.701      -13.286       22.730       29.532       10.219      516.664      872.164      104.420        0.175        0.075       42.771       10.450        0.060      340.042       13.789      855.814
05/18/2014  06:27:00       30.510       56.101        4.057       21.918       35.932       21.383      480.388     1291.117      457.242        0.316        0.111       63.861       21.038        0.109      339.887       13.529      855.805
05/18/2014  06:28:00        1.196       30.499       -6.958       18.785       27.370        9.906      352.862      749.127       98.130        0.109        0.060       30.523        8.684        0.081      339.854       13.473      855.813
05/18/2014  06:29:00      -29.027       11.751       -4.951       16.987       19.282        9.059      288.562      371.790       82.058        0.087        0.037       31.316       10.995        0.123      339.831       13.434      855.841
05/18/2014  06:30:00      -52.269       -3.360       -1.737       22.465       17.044       14.972      504.695      290.506      224.159        0.188        0.051       52.377       12.858        0.060      339.791       13.367      855.862
05/18/2014  06:31:00      -44.407      -26.038       -2.173       23.822       14.024       11.324      567.493      196.665      128.243        0.177        0.045       51.478       12.010        0.054      339.927       13.595      855.835
05/18/2014  06:32:00       25.465       34.922       11.082       14.845       23.472       13.504      220.387      550.928      182.365        0.147        0.048       43.221       11.729        0.074      339.797       13.377      855.805
05/18/2014  06:33:00      -11.348       56.174       -6.575       23.852       20.736       17.813      568.936      429.994      317.291        0.232        0.066       57.309       10.770        0.035      339.967       13.664      855.808
05/18/2014  06:34:00       -8.775       76.037       18.562       40.361       60.337       37.543     1629.026     3640.606     1409.470        0.644        0.334       76.541       27.262        0.127      339.900       13.550      855.832
05/18/2014  06:35:00      -20.318       68.334        1.939       26.924       33.138       19.800      724.917     1098.131      392.030        0.365        0.111       71.290       18.417        0.067      339.966       13.660      855.865
05/18/2014  06:36:00       39.948       38.093        7.552       34.663       20.625       15.514     1201.524      425.384      240.681        0.249        0.093       55.199       10.167        0.034      340.042       13.790      855.866
05/18/2014  06:37:00       -1.843       17.509       -4.812       35.209       28.406       19.374     1239.700      806.922      375.360        0.138        0.121       17.606       14.343        0.664      339.943       13.624      855.854
05/18/2014  06:38:00        0.830      141.133      -15.242       21.868       63.332       31.518      478.195     4010.905      993.375        1.282        0.274      141.136       32.320        0.052      339.962       13.655      855.869
05/18/2014  06:39:00      -57.983       53.886        3.610       35.692       40.137       23.718     1273.902     1610.974      562.564        0.486        0.172       79.156       12.914        0.027      340.007       13.731      855.898
05/18/2014  06:40:00      -16.775       47.109        3.804       17.713       45.998       23.748      313.760     2115.781      563.985        0.275        0.150       50.007       16.054        0.103      340.036       13.780      855.896
05/18/2014  06:41:00      -29.485       16.596        2.982       31.286       16.637       13.492      978.839      276.794      182.034        0.130        0.072       33.835       13.968        0.170      340.045       13.793      855.916
05/18/2014  06:42:00      -32.329       28.387        8.101       38.024       50.066       18.145     1445.827     2506.595      329.251        0.310        0.214       43.023       21.973        0.261      340.098       13.885      855.919
05/18/2014  06:43:00     -160.474      -28.229      -16.103       60.391       49.853       27.825     3647.102     2485.321      774.244        1.686        0.345      162.938       31.126        0.036      339.973       13.673      855.914
05/18/2014  06:44:00     -129.708      -75.203       -1.392       45.924       36.526       23.044     2109.050     1334.158      531.012        1.323        0.199      149.932       21.573        0.021      339.955       13.644      855.920
05/18/2014  06:45:00      -96.798       16.058        3.907       78.285       46.006       35.240     6128.562     2116.546     1241.886        0.956        0.474       98.121       44.214        0.203      339.962       13.656      855.927
05/18/2014  06:46:00     -103.872        6.653       -8.923       73.218       51.102       25.331     5360.945     2611.401      641.648        0.976        0.431      104.085       16.783        0.026      339.977       13.680      855.929
05/18/2014  06:47:00     -166.328       27.207      -10.853       47.491       55.552       32.202     2255.357     3085.983     1036.985        1.745        0.319      168.539       29.391        0.030      339.985       13.694      855.943
05/18/2014  06:48:00     -107.240        6.618       -5.436       28.152       34.698       17.655      792.533     1203.941      311.714        0.694        0.115      107.444       15.207        0.020      340.023       13.757      855.931
05/18/2014  06:49:00      -74.608      -18.699       -2.591       35.791       35.140       19.213     1281.001     1234.788      369.144        0.440        0.144       76.916       18.184        0.056      340.028       13.765      855.930
05/18/2014  06:50:00      -87.030        5.163        2.891       76.065       43.582       20.512     5785.832     1899.357      420.761        0.786        0.405       87.183       29.030        0.111      340.061       13.821      855.919
05/18/2014  06:51:00     -103.049       37.232      -14.234       42.541       61.279       27.570     1809.741     3755.065      760.097        0.927        0.316      109.569       24.109        0.048      340.018       13.750      855.904
05/18/2014  06:52:00     -134.889       59.006      -14.813       56.685       92.254       35.486     3213.190     8510.765     1259.283        1.744        0.649      147.230       28.066        0.036      340.028       13.765      855.903
05/18/2014  06:53:00     -155.040       -2.561       -8.162       47.050       53.945       30.709     2213.731     2910.070      943.041        1.509        0.303      155.061       26.122        0.028      340.022       13.755      855.894
05/18/2014  06:54:00      -41.901      -59.849        3.780       41.816       56.287       30.274     1748.600     3168.270      916.496        0.559        0.292       73.059       25.945        0.126      340.096       13.881      855.897
05/18/2014  06:55:00      -30.999       48.621       13.275       49.805       43.999       34.089     2480.582     1935.907     1162.082        0.454        0.279       57.662       17.122        0.088      340.058       13.818      855.896
05/18/2014  06:56:00      -73.052      -50.902        7.374       86.898       74.994       43.148     7551.178     5624.167     1861.787        1.151        0.752       89.037       45.896        0.266      340.154       13.977      855.894
05/18/2014  06:57:00     -148.675      -35.556       -2.531      132.890      121.377       65.814    17659.794    14732.444     4331.480        3.004        1.836      152.868       80.113        0.275      340.093       13.872      855.880
05/18/2014  06:58:00     -316.827       -1.851      -21.298      113.012      148.877       53.973    12771.810    22164.479     2913.062        6.934        1.892      316.833       30.308        0.009      340.047       13.794      855.821
05/18/2014  06:59:00     -223.028      -41.791        1.929       94.919       75.592       47.414     9009.623     5714.120     2248.097        3.423        0.849      226.910       47.410        0.044      340.059       13.814      855.833
05/18/2014  07:00:00     -165.264      -48.237        3.990       85.393       76.004       35.161     7291.891     5776.639     1236.283        2.198        0.715      172.160       42.257        0.060      340.116       13.912      855.833
05/18/2014  07:01:00     -112.739      -76.816        0.541      105.694       72.199       42.263    11171.117     5212.744     1786.184        1.839        0.909      136.422       47.375        0.121      340.148       13.967      855.847
05/18/2014  07:02:00     -139.763     -106.980       -5.456      100.559       61.135       44.751    10112.119     3737.506     2002.626        2.343        0.793      176.007       40.703        0.053      340.156       13.980      855.862
05/18/2014  07:03:00     -234.162     -100.552       -4.198      164.483      144.113       70.649    27054.550    20768.501     4991.230        5.888        2.641      254.838       84.806        0.111      340.154       13.976      855.886
05/18/2014  07:04:00     -323.751     -106.259      -14.775      151.438      103.410       69.850    22933.448    10693.656     4879.064        7.741        1.925      340.742       74.477        0.048      340.120       13.918      855.872
05/18/2014  07:05:00     -161.870      -41.192        8.265      109.320       88.505       55.682    11950.825     7833.064     3100.463        2.542        1.144      167.029       53.204        0.101      340.196       14.047      855.876
05/18/2014  07:06:00     -165.619      -43.211       10.137      140.996      142.566       65.312    19879.921    20325.111     4265.665        3.693        2.224      171.163       60.627        0.125      340.172       14.007      855.859
05/18/2014  07:07:00     -224.240     -125.076       -1.844      169.982      113.894       78.896    28894.031    12971.760     6224.591        5.700        2.405      256.764       82.494        0.103      340.207       14.063      855.848
05/18/2014  07:08:00      -92.901      -31.160       11.047      118.056       80.557       44.137    13937.160     6489.421     1948.034        1.604        1.119       97.988       46.994        0.230      340.277       14.185      855.865
05/18/2014  07:09:00     -107.770       -5.647       13.836       99.908       85.500       57.249     9981.655     7310.262     3277.473        1.620        1.028      107.918       49.248        0.208      340.319       14.257      855.869
05/18/2014  07:10:00     -313.875      -53.720       -8.441      100.878      128.739       58.394    10176.356    16573.815     3409.912        6.581        1.508      318.439       43.959        0.019      340.206       14.062      855.868
05/18/2014  07:11:00     -222.410      -91.298       -2.841      123.912       95.047       60.737    15354.205     9034.027     3688.934        4.294        1.404      240.419       69.377        0.083      340.232       14.108      855.882
05/18/2014  07:12:00     -105.644      -22.546       -6.487       73.796       64.955       33.693     5445.782     4219.091     1135.225        1.125        0.540      108.023       40.049        0.137      340.357       14.321      855.893
05/18/2014  07:13:00      -70.520      -59.614       11.410       77.728       55.740       40.294     6041.626     3106.916     1623.617        0.971        0.539       92.342       48.471        0.276      340.411       14.412      855.911
05/18/2014  07:14:00      -76.826       -8.002       18.120       75.070       63.820       43.591     5635.505     4073.017     1900.166        0.895        0.580       77.242       43.407        0.316      340.477       14.524      855.914
05/18/2014  07:15:00     -253.126      -93.356        2.687      160.763      120.222       67.088    25844.812    14453.244     4500.744        5.879        2.240      269.792       74.839        0.077      340.302       14.226      855.903
05/18/2014  07:16:00     -260.034     -133.259      -14.429      124.523       98.895       53.815    15505.881     9780.310     2896.085        5.688        1.409      292.191       57.281        0.038      340.305       14.230      855.900
05/18/2014  07:17:00     -378.616      -70.806        0.434      137.124       85.633       67.734    18803.082     7333.089     4587.943        8.954        1.536      385.180       67.341        0.031      340.226       14.096      855.880
05/18/2014  07:18:00     -236.935      -65.205      -15.626       98.859       92.577       45.542     9773.157     8570.494     2074.118        4.052        1.021      245.744       50.776        0.043      340.306       14.231      855.889
05/18/2014  07:19:00      -45.033       -8.303       17.659       76.722       59.760       36.056     5886.318     3571.256     1300.009        0.658        0.538       45.792       14.588        0.101      340.365       14.335      855.909
05/18/2014  07:20:00      -59.818       -3.386        0.965       55.516       37.867       24.359     3082.061     1433.890      593.347        0.435        0.255       59.914       16.976        0.080      340.370       14.344      855.897
05/18/2014  07:21:00     -155.925       10.935      -12.921      152.560       38.416       35.499    23274.458     1475.801     1260.183        2.530        1.301      156.308       52.143        0.111      340.351       14.310      855.896
05/18/2014  07:22:00     -184.278      -21.024      -15.085       88.484       58.680       44.570     7829.338     3443.340     1986.490        2.394        0.663      185.473       46.644        0.063      340.316       14.250      855.892
05/18/2014  07:23:00     -155.968       37.971      -10.933       69.727       74.245       40.857     4861.842     5512.363     1669.292        1.896        0.602      160.524       44.374        0.076      340.288       14.204      855.908
05/18/2014  07:24:00     -168.827      -32.738      -19.264       93.681       71.242       40.451     8776.103     5075.400     1636.302        2.271        0.774      171.972       39.170        0.052      340.317       14.252      855.913
05/18/2014  07:25:00     -193.862       -8.197       -3.769      111.803       62.151       45.429    12499.933     3862.715     2063.813        2.804        0.921      194.036       57.286        0.087      340.384       14.364      855.941
05/18/2014  07:26:00     -144.707      -24.430       -5.460       92.702       54.047       38.090     8593.606     2921.126     1450.876        1.726        0.648      146.754       44.734        0.093      340.398       14.390      855.956
05/18/2014  07:27:00     -222.819      -19.197      -10.091       87.136       93.399       48.802     7592.740     8723.303     2381.619        3.440        0.935      223.645       49.858        0.050      340.326       14.265      855.953
05/18/2014  07:28:00     -184.394      -46.492       -8.775       81.982       72.293       47.626     6721.034     5226.231     2268.231        2.522        0.711      190.165       40.271        0.045      340.373       14.346      855.940
05/18/2014  07:29:00     -161.846      -46.175       -8.171       65.653       62.004       33.783     4310.349     3844.488     1141.275        1.884        0.465      168.304       30.612        0.033      340.385       14.367      855.934
05/18/2014  07:30:00     -142.287      -65.930        2.921       65.547       62.032       35.564     4296.465     3847.988     1264.832        1.700        0.470      156.820       35.368        0.051      340.402       14.396      855.959
05/18/2014  07:31:00     -194.956      -78.702      -16.458      120.168       88.186       57.694    14440.408     7776.782     3328.595        3.500        1.277      210.243       52.294        0.062      340.341       14.294      855.973
05/18/2014  07:32:00     -112.658      -25.344        5.540       95.254       64.449       43.123     9073.418     4153.664     1859.552        1.422        0.754      115.473       45.088        0.152      340.448       14.474      855.980
05/18/2014  07:33:00     -173.908      -42.872      -10.658      100.223       62.944       47.614    10044.594     3961.955     2267.109        2.423        0.814      179.115       52.895        0.087      340.437       14.453      856.017
05/18/2014  07:34:00     -254.448       -3.735      -20.951      114.062       79.424       44.959    13010.041     6308.220     2021.346        4.326        1.067      254.475       55.745        0.048      340.411       14.410      856.045
05/18/2014  07:35:00     -140.530      -57.951       -8.397       75.556       55.926       27.128     5708.655     3127.738      735.951        1.637        0.479      152.010       27.278        0.032      340.487       14.540      856.054
05/18/2014  07:36:00      -82.052      -30.497        0.878       72.996       65.258       35.741     5328.383     4258.598     1277.399        0.926        0.543       87.536       39.647        0.205      340.606       14.743      856.082
05/18/2014  07:37:00     -236.095        2.763      -19.873      109.180       89.774       42.738    11920.237     8059.382     1826.545        3.897        1.090      236.111       50.676        0.046      340.504       14.567      856.095
05/18/2014  07:38:00       -7.188      -15.636       12.512       40.247       38.945       28.861     1619.832     1516.724      832.977        0.221        0.198       17.209       21.942        1.626      340.771       15.023      856.071
05/18/2014  07:39:00      -69.835      -22.983       10.352       87.164       69.981       35.707     7597.595     4897.289     1274.991        0.964        0.688       73.519       46.449        0.399      340.850       15.154      856.072
05/18/2014  07:40:00     -283.149      -46.441      -10.797       90.842       84.219       45.908     8252.185     7092.766     2107.576        4.995        0.873      286.932       39.064        0.019      340.564       14.669      856.063
05/18/2014  07:41:00     -264.936      -47.175      -19.607      120.412       71.371       45.047    14498.942     5093.855     2029.271        4.721        1.081      269.103       48.178        0.032      340.635       14.788      856.063
05/18/2014  07:42:00     -365.709      -97.867      -12.390       99.148       75.181       50.154     9830.279     5652.174     2515.454        8.073        0.900      378.578       53.083        0.020      340.626       14.774      856.059
05/18/2014  07:43:00     -172.502     -157.561       -6.798       94.455       58.155       41.641     8921.741     3381.947     1733.996        3.433        0.702      233.629       48.233        0.043      340.671       14.848      856.061
05/18/2014  07:44:00     -105.371      -24.065       -3.476       72.197       76.053       32.465     5212.374     5784.027     1053.960        1.187        0.603      108.084       17.612        0.027      340.744       14.976      856.073
05/18/2014  07:45:00     -188.948       22.265      -13.680       79.211       76.928       39.759     6274.455     5917.890     1580.817        2.508        0.689      190.255       37.582        0.039      340.777       15.028      856.097
05/18/2014  07:46:00      -64.052       34.855       -0.380       60.650       32.484       30.870     3678.459     1055.208      952.959        0.550        0.284       72.922       24.460        0.113      341.003       15.414      856.104
05/18/2014  07:47:00     -121.196       28.249       -6.056       81.081       41.519       34.881     6574.109     1723.815     1216.711        1.252        0.476      124.445       25.739        0.043      340.917       15.266      856.111
05/18/2014  07:48:00     -129.304       18.559       -3.709       73.640       71.086       41.953     5422.801     5053.204     1760.071        1.465        0.612      130.629       42.348        0.105      340.869       15.188      856.117
05/18/2014  07:49:00      -55.030      -70.200        5.025      102.268       86.710       50.644    10458.824     7518.649     2564.800        1.426        1.027       89.199       51.583        0.334      340.998       15.406      856.123
05/18/2014  07:50:00      -97.539      -84.322        2.128       71.086       52.116       31.502     5053.222     2716.035      992.378        1.269        0.438      128.934       30.174        0.055      340.924       15.281      856.131
05/18/2014  07:51:00      -43.097       -8.835      -11.511       30.963       30.797       23.948      958.687      948.478      573.523        0.227        0.124       43.993        6.573        0.022      341.022       15.447      856.138
05/18/2014  07:52:00      -36.245      -10.933       -6.055       16.392       31.137       13.254      268.687      969.536      175.677        0.144        0.071       37.858       10.480        0.077      341.001       15.409      856.142
05/18/2014  07:53:00      -92.516      -14.717       -8.527       55.428       53.428       40.967     3072.276     2854.525     1678.289        0.823        0.380       93.679       25.643        0.075      341.001       15.409      856.143
05/18/2014  07:54:00     -110.518      -11.103        9.092      129.454      112.424       52.122    16758.379    12639.243     2716.711        2.226        1.606      111.074       50.958        0.210      341.028       15.455      856.131
05/18/2014  07:55:00     -306.836      -99.078       -4.943      105.194      103.219       53.002    11065.723    10654.166     2809.205        6.425        1.226      322.436       45.875        0.020      340.796       15.059      856.130
05/18/2014  07:56:00     -245.860        1.233        1.128      135.956      107.329       60.623    18484.079    11519.582     3675.102        4.706        1.684      245.863       50.285        0.042      340.844       15.143      856.114
05/18/2014  07:57:00     -105.836      -61.726       -7.072       45.162       58.934       29.377     2039.610     3473.200      862.998        1.072        0.319      122.520       27.784        0.051      340.909       15.256      856.120
05/18/2014  07:58:00     -271.632     -142.414      -17.761      177.803      101.416       68.914    31613.730    10285.248     4749.072        7.051        2.332      306.701       67.428        0.048      340.888       15.216      856.112
05/18/2014  07:59:00     -116.997      -70.108        2.597      111.897       74.905       45.576    12520.835     5610.747     2077.131        1.941        1.010      136.395       48.638        0.127      340.964       15.347      856.128
05/18/2014  08:00:00      -52.868     -121.508        8.641       52.928       58.470       29.335     2801.409     3418.752      860.515        1.236        0.354      132.511       24.731        0.035      340.812       15.089      856.118
05/18/2014  08:01:00     -110.144      -68.651       16.598       97.815       70.383       46.958     9567.705     4953.739     2205.086        1.692        0.836      129.787       49.144        0.143      340.996       15.401      856.119
05/18/2014  08:02:00      -71.712      -25.320        5.410       66.230       64.088       36.678     4386.451     4107.326     1345.302        0.782        0.492       76.050       40.327        0.281      341.137       15.641      856.121
05/18/2014  08:03:00     -247.592       37.715       -7.415       76.549       79.716       44.853     5859.685     6354.600     2011.830        3.850        0.711      250.448       38.101        0.023      340.944       15.310      856.126
05/18/2014  08:04:00      -80.123        5.486       17.676       62.414       42.514       37.714     3895.518     1807.403     1422.377        0.694        0.356       80.311       27.685        0.119      341.082       15.547      856.130
05/18/2014  08:05:00      -14.830       16.617       15.639       38.081       31.883       29.729     1450.133     1016.506      883.790        0.204        0.168       22.272       28.682        1.658      341.225       15.791      856.112
05/18/2014  08:06:00     -144.477      -35.295       -3.720      105.173       61.492       27.375    11061.351     3781.248      749.366        1.886        0.780      148.726       34.853        0.055      341.105       15.585      856.126
05/18/2014  08:07:00      -92.984        0.214       15.722       62.065       46.095       30.510     3852.063     2124.748      930.854        0.790        0.345       92.984       22.804        0.060      341.136       15.638      856.128
05/18/2014  08:08:00       12.605       37.511       32.739       40.561       23.182       31.456     1645.200      537.424      989.473        0.290        0.159       39.572       22.516        0.324      341.472       16.210      856.110
05/18/2014  08:09:00       17.560      -69.445        1.240       66.614       77.129       42.993     4437.489     5948.885     1848.376        0.868        0.612       71.631       46.798        0.427      341.204       15.755      856.117
05/18/2014  08:10:00      -27.347      -86.741        0.108       45.528       48.042       28.356     2072.838     2308.001      804.035        0.673        0.259       90.950       27.322        0.090      341.289       15.897      856.128
05/18/2014  08:11:00      -99.958      -37.644      -17.412       65.082       53.306       48.695     4235.696     2841.533     2371.179        1.058        0.472      106.811       33.500        0.098      341.189       15.729      856.122
05/18/2014  08:12:00      -76.758      -36.116       14.131       91.829       73.617       39.470     8432.635     5419.420     1557.861        1.140        0.770       84.831       46.249        0.297      341.336       15.978      856.121
05/18/2014  08:13:00     -109.747       -7.180       -8.519       93.724       73.842       40.738     8784.214     5452.651     1659.585        1.403        0.795      109.982       32.003        0.085      341.372       16.037      856.148
05/18/2014  08:14:00     -345.100      -68.984      -14.194      178.534      111.538       59.609    31874.339    12440.643     3553.239        8.595        2.393      351.927       75.218        0.046      341.075       15.533      856.167
05/18/2014  08:15:00     -235.221      -75.891        6.851       94.239       92.208       44.590     8880.969     8502.275     1988.305        4.025        0.969      247.161       48.653        0.039      341.040       15.472      856.192
05/18/2014  08:16:00     -114.537      -69.550       -2.883       61.619       47.822       27.597     3796.945     2286.924      761.583        1.240        0.342      133.999       26.718        0.040      340.964       15.348      856.187
05/18/2014  08:17:00      -20.337      -25.016        0.963       24.924       29.046       24.200      621.213      843.696      585.643        0.155        0.103       32.240       19.893        0.381      341.267       15.861      856.164
05/18/2014  08:18:00      -14.913      -38.804       11.795       29.242       28.747       24.348      855.081      826.380      592.847        0.207        0.114       41.571       24.022        0.334      341.337       15.979      856.161
05/18/2014  08:19:00       58.661      -37.387       38.578       60.638       66.215       42.012     3676.945     4384.443     1765.044        0.807        0.491       69.562       45.331        0.425      341.282       15.887      856.162
05/18/2014  08:20:00      -17.911     -115.776       20.028       56.868      112.336       36.684     3233.978    12619.484     1345.732        1.566        0.860      117.153       45.210        0.149      341.166       15.690      856.153
05/18/2014  08:21:00     -103.773     -125.927        1.142      142.433       77.175       56.250    20287.191     5955.987     3164.095        2.801        1.470      163.176       31.944        0.038      341.352       16.004      856.155
05/18/2014  08:22:00     -144.064      -83.079        6.428      137.393      133.724       52.990    18876.817    17882.080     2807.934        3.362        1.978      166.302       59.777        0.129      341.485       16.229      856.160
05/18/2014  08:23:00     -227.146       57.383      -14.630      113.437       86.248       56.231    12868.012     7438.773     3161.891        3.928        1.173      234.282       54.747        0.055      341.253       15.835      856.184
05/18/2014  08:24:00     -297.823      -77.722      -15.229       95.015       99.164       44.940     9027.816     9833.515     2019.579        5.792        1.044      307.797       38.888        0.016      341.248       15.826      856.162
05/18/2014  08:25:00     -218.205      -33.899       -4.196       87.854       59.028       45.825     7718.274     3484.329     2099.932        3.104        0.665      220.823       43.488        0.039      341.240       15.811      856.158
05/18/2014  08:26:00     -181.146        2.721      -19.773       91.991       69.439       32.845     8462.296     4821.824     1078.769        2.378        0.718      181.167       32.792        0.033      341.279       15.878      856.172
05/18/2014  08:27:00     -161.316      -65.117       -4.002      115.744      135.839       53.591    13396.649    18452.174     2871.977        3.249        1.736      173.963       60.766        0.122      341.384       16.057      856.187
05/18/2014  08:28:00     -141.699     -197.551       25.889      165.067      148.241       69.877    27247.011    21975.508     4882.793        5.693        2.705      243.115       68.712        0.080      341.502       16.257      856.197
05/18/2014  08:29:00     -280.826     -171.994       -6.829       95.978       75.805       57.528     9211.836     5746.451     3309.473        6.338        0.913      329.310       54.737        0.028      341.333       15.968      856.199
05/18/2014  08:30:00     -116.510      -56.545        2.714      127.966       91.307       49.047    16375.183     8336.928     2405.608        2.194        1.356      129.506       67.897        0.275      341.422       16.122      856.183
05/18/2014  08:31:00     -167.781       31.031       -3.634       70.727       58.194       41.928     5002.244     3386.595     1757.967        1.963        0.507      170.626       33.743        0.039      341.352       16.005      856.199
05/18/2014  08:32:00     -130.411       17.516      -10.818       63.356       81.871       31.560     4013.988     6702.854      996.006        1.457        0.586      131.582       36.209        0.076      341.253       15.837      856.198
05/18/2014  08:33:00     -182.757       56.041      -20.032       55.241       52.686       33.962     3051.513     2775.864     1153.444        2.196        0.349      191.156       31.801        0.028      341.266       15.857      856.187
05/18/2014  08:34:00     -118.992       38.748      -20.171       50.945       40.141       26.489     2595.402     1611.283      701.688        1.049        0.245      125.142        4.031        0.001      341.417       16.115      856.181
05/18/2014  08:35:00      -96.266       25.628        3.787      102.470       67.704       51.003    10500.195     4583.885     2601.300        1.381        0.884       99.619       45.355        0.207      341.524       16.296      856.187
05/18/2014  08:36:00      -60.096      -13.527        8.435       78.287       67.543       62.731     6128.838     4562.014     3935.186        0.924        0.731       61.600       57.405        0.868      341.956       17.029      856.201
05/18/2014  08:37:00     -158.730       -8.245      -12.825       91.246       82.485       43.155     8325.901     6803.791     1862.338        2.121        0.850      158.944       39.611        0.062      341.424       16.127      856.188
05/18/2014  08:38:00     -117.802     -177.223        3.000       88.695       94.953       49.291     7866.833     9016.011     2429.627        3.230        0.966      212.803       46.317        0.047      341.476       16.211      856.195
05/18/2014  08:39:00     -143.873     -144.954       12.397      144.336      120.033       70.193    20832.746    14407.857     4927.107        4.101        2.008      204.233       78.743        0.149      341.460       16.186      856.189
05/18/2014  08:40:00     -161.611     -164.911       21.109      123.941      104.189       69.218    15361.380    10855.427     4791.168        4.238        1.550      230.898       65.297        0.080      341.671       16.542      856.195
05/18/2014  08:41:00     -314.555     -151.432        5.135      187.655      144.126       73.513    35214.265    20772.234     5404.147        9.163        3.070      349.108       88.880        0.065      341.510       16.269      856.208
05/18/2014  08:42:00     -247.203     -130.330       -3.152      140.648      120.869       67.080    19781.806    14609.307     4499.696        5.849        1.945      279.455       75.198        0.072      341.609       16.438      856.222
05/18/2014  08:43:00     -261.562     -163.339       -0.953      159.298      114.672       73.098    25375.833    13149.782     5343.315        6.947        2.193      308.374       70.320        0.052      341.587       16.400      856.215
05/18/2014  08:44:00     -252.516     -121.290        4.406      147.392      105.421       61.001    21724.271    11113.566     3721.071        5.752        1.828      280.135       68.602        0.060      341.409       16.098      856.245
05/18/2014  08:45:00     -236.942     -179.210       -3.496      105.280      100.352       56.344    11083.924    10070.487     3174.672        5.629        1.216      297.082       59.039        0.039      341.400       16.084      856.240
05/18/2014  08:46:00     -119.495      -83.378        1.978       89.354       84.783       41.111     7984.187     7188.135     1690.108        1.905        0.843      145.708       41.907        0.083      341.445       16.162      856.257
05/18/2014  08:47:00      -79.681      -80.788        8.890       83.092       51.342       39.964     6904.278     2636.051     1597.090        1.204        0.557      113.472       47.767        0.177      341.643       16.496      856.273
05/18/2014  08:48:00     -299.571       20.699      -12.975      131.516      117.099       57.209    17296.335    13712.181     3272.834        6.230        1.714      300.285       60.947        0.041      341.466       16.194      856.262
05/18/2014  08:49:00     -412.863     -103.864      -30.044      145.435      120.273       75.761    21151.250    14465.676     5739.680       11.174        2.068      425.727       73.848        0.030      341.320       15.947      856.258
05/18/2014  08:50:00     -242.161      -42.265      -17.204      109.080       82.105       56.258    11898.385     6741.190     3164.959        4.126        1.090      245.822       47.872        0.038      341.355       16.006      856.250
05/18/2014  08:51:00     -349.489     -161.588       -0.332      159.934      126.709       71.202    25578.967    16055.253     5069.752        9.747        2.335      385.037       75.064        0.038      341.354       16.005      856.250
05/18/2014  08:52:00     -284.960       -0.752      -21.882      131.827       79.699       59.186    17378.469     6351.996     3503.039        5.445        1.362      284.961       55.002        0.037      341.269       15.860      856.246
05/18/2014  08:53:00      -60.722       -5.525       17.252       81.889       63.162       42.365     6705.867     3989.430     1794.801        0.825        0.625       60.973       44.774        0.539      341.721       16.630      856.225
05/18/2014  08:54:00      -83.135       -5.316       -5.971       87.570       62.931       35.077     7668.528     3960.252     1230.424        0.991        0.643       83.305       39.845        0.229      341.776       16.725      856.232
05/18/2014  08:55:00     -394.200       13.706      -30.190      207.150      141.415       67.605    42911.322    19998.149     4570.436       11.197        3.374      394.438       86.272        0.048      341.425       16.125      856.219
05/18/2014  08:56:00     -247.762      -70.558       -2.434      179.153      107.004       76.293    32095.758    11449.819     5820.685        5.786        2.468      257.613       89.026        0.119      341.673       16.548      856.198
05/18/2014  08:57:00     -177.729      -53.745       10.152      180.840       96.920       58.285    32703.140     9393.492     3397.192        4.003        2.275      185.677       65.801        0.126      341.610       16.441      856.203
05/18/2014  08:58:00     -199.216       22.400       11.248      143.856      100.404       57.998    20694.422    10080.944     3363.712        3.722        1.707      200.471       58.958        0.086      341.673       16.547      856.163
05/18/2014  08:59:00     -364.689      115.535      -32.958      136.798      100.174       57.030    18713.811    10034.800     3252.456        8.971        1.600      382.553       44.381        0.013      341.467       16.196      856.164
05/18/2014  09:00:00     -200.794       36.406       -1.944      128.643      108.132       57.513    16549.020    11692.505     3307.700        3.659        1.577      204.068       49.150        0.058      341.736       16.652      856.152
05/18/2014  09:01:00     -303.211      -25.388      -14.675      162.255      139.915       72.145    26326.595    19576.309     5204.845        7.194        2.555      304.272       68.807        0.051      341.618       16.453      856.171
05/18/2014  09:02:00     -424.115      -45.306      -25.898      176.235      147.705       73.227    31058.762    21816.910     5362.181       12.041        2.912      426.528       78.504        0.034      341.549       16.334      856.165
05/18/2014  09:03:00     -305.928      -17.425      -11.060      152.643      100.025       69.992    23299.768    10004.907     4898.857        6.610        1.910      306.424       82.793        0.073      341.547       16.332      856.169
05/18/2014  09:04:00     -136.742      -26.157       11.556      143.620       62.242       50.206    20626.698     3874.106     2520.669        2.326        1.351      139.222       69.443        0.249      341.678       16.556      856.142
05/18/2014  09:05:00     -132.413       -2.800       -4.846       82.125       72.569       35.604     6744.500     5266.277     1267.638        1.542        0.664      132.442       34.026        0.066      341.640       16.493      856.108
05/18/2014  09:06:00     -305.985       68.918      -12.553      170.152      118.039       77.248    28951.621    13933.322     5967.326        7.368        2.443      313.651       78.147        0.062      341.637       16.484      856.126
05/18/2014  09:07:00     -491.700      -49.988      -23.005      224.862      133.044       87.303    50563.056    17700.604     7621.810       16.033        3.794      494.235      110.358        0.050      341.467       16.195      856.095
05/18/2014  09:08:00     -252.850      -31.644       -0.613      167.876      108.710       74.321    28182.307    11817.971     5523.627        5.522        2.276      254.822       89.511        0.123      341.734       16.650      856.106
05/18/2014  09:09:00     -497.004     -126.889      -29.416      196.044      132.042       79.094    38433.088    17435.091     6255.896       16.304        3.106      512.947       74.577        0.021      341.529       16.302      856.107
05/18/2014  09:10:00     -417.953       -5.439      -27.432      225.217      166.965       90.857    50722.811    27877.446     8255.076       13.114        4.343      417.988      102.014        0.060      341.453       16.174      856.092
05/18/2014  09:11:00     -353.112      -35.547      -15.924      154.526      166.465       64.802    23878.430    27710.606     4199.239        9.099        2.789      354.897       60.977        0.030      341.523       16.290      856.105
05/18/2014  09:12:00     -272.927      -36.081      -12.889      185.865      135.112       72.207    34545.933    18255.332     5213.920        6.697        2.901      275.301       87.363        0.101      341.640       16.490      856.097
05/18/2014  09:13:00     -413.392       41.449      -28.967      276.056      152.375       84.882    76206.760    23218.031     7204.901       14.002        5.331      415.465      109.625        0.070      341.563       16.360      856.055
05/18/2014  09:14:00     -428.088       24.503      -34.494      129.999      141.249       58.388    16899.733    19951.419     3409.142       11.265        2.013      428.789       53.429        0.016      341.475       16.210      856.069
05/18/2014  09:15:00     -550.986        1.083      -22.639      242.425      201.252       92.838    58769.684    40502.358     8618.979       20.597        5.395      550.987      113.119        0.042      341.444       16.157      856.003
05/18/2014  09:16:00     -453.602     -125.412      -15.876      177.870      164.842       89.097    31637.841    27172.745     7938.239       14.423        3.337      470.619       73.426        0.024      341.523       16.292      855.993
05/18/2014  09:17:00     -484.763      -26.397      -34.567      144.716      151.081       71.605    20942.862    22825.403     5127.266       14.288        2.445      485.481       69.565        0.021      341.491       16.237      856.002
05/18/2014  09:18:00     -456.509      -76.167      -27.243      238.194      114.754       75.561    56736.438    13168.493     5709.415       14.526        3.781      462.819      101.136        0.048      341.683       16.562      856.007
05/18/2014  09:19:00     -439.393      -55.564      -23.464      126.590      137.418       68.135    16025.049    18883.647     4642.339       11.812        1.978      442.892       63.609        0.021      341.762       16.696      856.026
05/18/2014  09:20:00     -282.110     -111.375       16.337      236.872      141.332       80.693    56108.330    19974.790     6511.438        8.741        4.130      303.300       85.849        0.080      341.888       16.911      856.071
05/18/2014  09:21:00     -445.924     -235.289       -5.711      218.133      117.849       81.059    47581.849    13888.419     6570.578       16.113        3.402      504.192       97.023        0.037      341.531       16.305      856.070
05/18/2014  09:22:00     -515.135     -138.348      -48.034      175.132      156.734       76.727    30671.078    24565.432     5887.063       17.396        3.056      533.389       78.582        0.022      341.509       16.267      856.079
05/18/2014  09:23:00     -438.090      -76.421      -13.313      227.410      158.706       95.926    51715.425    25187.632     9201.747       14.201        4.305      444.706      117.786        0.070      341.645       16.497      856.082
05/18/2014  09:24:00     -240.802      -82.440        4.317      200.896      130.539       70.997    40359.355    17040.451     5040.534        6.361        3.122      254.523       94.839        0.139      341.827       16.806      856.079
05/18/2014  09:25:00     -235.486      -19.503       -4.265      234.780      110.329       61.212    55121.835    12172.528     3746.940        6.343        3.552      236.292       48.742        0.043      341.674       16.547      856.051
05/18/2014  09:26:00     -127.272     -194.973       15.812      108.770      117.369       71.129    11830.934    13775.422     5059.367        4.256        1.533      232.836       58.492        0.063      341.734       16.650      856.025
05/18/2014  09:27:00     -185.416      -78.353        3.677      143.731      115.358       52.749    20658.670    13307.490     2782.419        3.863        1.837      201.292       60.557        0.091      341.929       16.981      856.030
05/18/2014  09:28:00     -247.293      -66.952       -0.180      153.797      125.347       63.763    23653.543    15711.810     4065.746        5.452        2.172      256.196       77.830        0.092      341.885       16.906      856.036
05/18/2014  09:29:00     -178.298      -95.565       11.820      201.273      140.803      102.599    40510.835    19825.554    10526.649        5.595        3.543      202.294      113.241        0.313      341.867       16.874      855.990
05/18/2014  09:30:00     -439.694      -23.975      -40.882      149.909      146.077       72.944    22472.655    21338.481     5320.769       12.234        2.457      440.347       67.915        0.024      341.622       16.458      855.982
05/18/2014  09:31:00     -459.474      -54.808      -38.153      204.240      152.747       85.339    41713.973    23331.648     7282.797       14.394        3.616      462.732       87.716        0.036      341.607       16.434      855.931
05/18/2014  09:32:00     -224.082      -69.261      -16.980      147.196      106.508       66.354    21666.799    11343.935     4402.868        4.635        1.871      234.542       42.861        0.033      341.886       16.906      855.921
05/18/2014  09:33:00     -161.663      -76.615       10.322      151.233      117.134       57.321    22871.489    13720.386     3285.711        3.599        1.994      178.899       64.573        0.130      342.208       17.455      855.960
05/18/2014  09:34:00     -123.763       31.348       20.093      206.469      114.647       66.059    42629.592    13143.974     4363.756        3.841        3.007      127.672       88.132        0.477      342.412       17.802      855.960
05/18/2014  09:35:00     -268.562      -21.530      -17.492      160.704      191.644       69.835    25825.813    36727.299     4876.982        7.015        3.372      269.423       65.603        0.059      341.900       16.931      855.956
05/18/2014  09:36:00     -456.681       22.343      -52.026      180.649      148.450       83.419    32634.046    22037.395     6958.728       13.668        3.082      457.227       90.800        0.039      341.632       16.477      855.950
05/18/2014  09:37:00     -548.014      -92.582      -32.108      196.376      183.712       73.310    38563.621    33750.196     5374.312       19.379        3.884      555.779       66.582        0.014      341.669       16.539      855.938
05/18/2014  09:38:00     -448.770      -45.975       -9.719      189.222      125.142       81.864    35805.100    15660.484     6701.641       13.087        2.908      451.119       94.428        0.044      341.705       16.600      855.925
05/18/2014  09:39:00     -351.421     -140.218       12.465      217.736      137.766       77.064    47409.162    18979.353     5938.902       10.781        3.616      378.362       96.278        0.065      341.921       16.968      855.995
05/18/2014  09:40:00     -180.832     -238.445       -4.946      164.194      143.485       69.276    26959.747    20587.955     4799.209        7.095        2.617      299.260       70.828        0.056      341.661       16.526      855.967
05/18/2014  09:41:00     -302.142     -229.364      -11.936      115.776      109.863       74.528    13403.974    12069.790     5554.350        8.753        1.551      379.338       57.240        0.023      341.673       16.545      855.961
05/18/2014  09:42:00     -240.525     -170.436        3.935      178.269      143.003       66.931    31779.677    20449.834     4479.763        7.180        2.835      294.789       81.669        0.077      342.066       17.212      855.964
05/18/2014  09:43:00     -424.616     -174.811       -8.257      246.704      144.623       98.806    60862.824    20915.800     9762.545       15.122        4.577      459.192      125.967        0.075      341.780       16.726      855.948
05/18/2014  09:44:00     -593.253     -171.599      -22.521      152.848      144.735       83.733    23362.570    20948.149     7011.249       21.660        2.566      617.572       81.900        0.018      341.605       16.430      855.938
05/18/2014  09:45:00     -444.912       -4.304      -36.590      179.563      164.768       76.619    32242.810    27148.544     5870.422       13.227        3.263      444.932       67.351        0.023      341.800       16.760      855.910
05/18/2014  09:46:00     -402.863      -90.014      -18.407      141.889      105.215       62.823    20132.419    11070.129     3946.712       10.294        1.757      412.797       51.399        0.016      341.860       16.862      855.913
05/18/2014  09:47:00     -405.924        2.954      -29.372      115.463      120.183       67.992    13331.742    14443.936     4622.968        9.902        1.620      405.935       56.496        0.019      341.981       17.068      855.916
05/18/2014  09:48:00     -359.316       57.358      -17.473      124.411      126.028       65.333    15477.989    15883.023     4268.424        8.416        1.781      363.865       51.767        0.020      341.919       16.962      855.932
05/18/2014  09:49:00     -244.047       -7.845       -1.347      127.356      150.686       66.300    16219.523    22706.244     4395.628        5.146        2.166      244.173       65.382        0.072      342.043       17.174      855.913
05/18/2014  09:50:00     -349.226       63.714      -15.222      146.282      130.446       59.398    21398.464    17016.277     3528.166        8.409        2.097      354.991       46.932        0.017      342.122       17.308      855.916
05/18/2014  09:51:00     -287.992      -25.016        1.727      162.440      143.161       70.608    26386.610    20494.978     4985.522        6.771        2.593      289.077       78.894        0.074      342.085       17.244      855.899
05/18/2014  09:52:00     -293.746     -133.983        2.331      171.110      147.932       86.220    29278.668    21883.902     7433.863        8.141        2.930      322.860      102.520        0.101      342.224       17.482      855.886
05/18/2014  09:53:00     -159.933      -44.175        2.861      141.054      108.781       76.117    19896.101    11833.375     5793.772        3.252        1.876      165.922       57.891        0.122      342.354       17.702      855.894
05/18/2014  09:54:00     -384.275     -196.342        8.215      228.308      174.345      101.616    52124.315    30396.083    10325.744       13.955        4.642      431.529      117.924        0.075      342.155       17.363      855.907
05/18/2014  09:55:00     -358.560     -123.421       -4.974      198.926      161.710       92.116    39571.413    26150.109     8485.435       10.900        3.710      379.207       92.932        0.060      341.860       16.861      855.909
05/18/2014  09:56:00     -464.000      -27.119      -16.933      188.854      133.016       84.780    35665.779    17693.199     7187.720       13.842        3.027      464.792       96.591        0.043      341.856       16.855      855.883
05/18/2014  09:57:00     -304.996      -40.603      -13.617      163.168      118.670       65.647    26623.839    14082.652     4309.529        6.993        2.251      307.687       81.183        0.070      342.165       17.380      855.836
05/18/2014  09:58:00     -377.749     -111.653       -1.902      226.208      193.188       92.734    51170.111    37321.517     8599.626       12.611        4.855      393.905      104.474        0.070      342.255       17.535      855.856
05/18/2014  09:59:00     -496.726     -106.449      -22.863      206.405      188.151       86.575    42603.147    35400.671     7495.236       17.203        4.275      508.004      100.624        0.039      341.879       16.895      855.852
05/18/2014  10:00:00     -325.433      -54.816        1.606      200.664      130.832       78.494    40266.177    17117.129     6161.355        8.622        3.177      330.017      101.221        0.094      342.128       17.318      855.845
05/18/2014  10:01:00     -323.825       -8.597        2.118      188.661      163.691       78.748    35593.103    26794.788     6201.285        8.675        3.429      323.939       94.825        0.086      342.029       17.150      855.886
05/18/2014  10:02:00     -196.432       -7.054        4.802      132.268      112.464       57.571    17494.736    12648.181     3314.428        3.605        1.673      196.559       65.576        0.111      342.241       17.511      855.895
05/18/2014  10:03:00     -203.102     -144.328      -11.010      109.422       89.158       53.825    11973.156     7949.140     2897.134        4.251        1.141      249.161       57.836        0.054      342.035       17.160      855.878
05/18/2014  10:04:00     -191.355     -163.046       -8.181      115.513       83.121       52.905    13343.233     6909.090     2798.973        4.315        1.153      251.398       61.115        0.059      342.039       17.166      855.858
05/18/2014  10:05:00     -294.891     -132.558       -6.512      161.872      120.244       75.315    26202.612    14458.521     5672.325        7.544        2.317      323.315       91.476        0.080      342.304       17.617      855.858
05/18/2014  10:06:00     -351.575     -345.835       -1.355      249.960      200.734       98.152    62480.000    40294.147     9633.878       17.779        5.620      493.160      104.690        0.045      342.107       17.281      855.856
05/18/2014  10:07:00     -444.934     -299.418       -3.924      242.155      152.611      106.850    58639.025    23290.043    11416.915       19.047        4.667      536.300      118.785        0.049      342.059       17.200      855.872
05/18/2014  10:08:00     -356.285     -184.873      -10.972      201.423      166.938       89.915    40571.396    27868.401     8084.687       11.887        3.826      401.394      101.546        0.064      342.304       17.616      855.865
05/18/2014  10:09:00     -386.551     -184.106        1.434      245.636      193.808      108.546    60337.267    37561.689    11782.239       14.648        5.484      428.155      129.332        0.091      342.090       17.253      855.840
05/18/2014  10:10:00     -263.796       12.082       15.217      209.654      128.038       75.209    43954.871    16393.685     5656.407        6.797        3.300      264.072       92.783        0.123      342.392       17.767      855.849
05/18/2014  10:11:00     -221.703     -138.977        8.809      156.878      135.583       76.788    24610.778    18382.808     5896.465        5.871        2.445      261.662       90.388        0.119      342.393       17.768      855.826
05/18/2014  10:12:00     -331.044     -142.374      -15.850      168.794      128.047       77.519    28491.327    16395.926     6009.243        9.049        2.545      360.361       89.890        0.062      342.303       17.615      855.807
05/18/2014  10:13:00     -466.906      -80.728      -23.899      203.162      209.318       88.052    41274.613    43814.095     7753.119       15.895        4.642      473.833       76.173        0.026      342.172       17.393      855.796
05/18/2014  10:14:00     -464.749      -56.205      -20.196      184.880      155.371       75.151    34180.549    24140.081     5647.681       14.175        3.198      468.135       77.326        0.027      341.980       17.067      855.800
05/18/2014  10:15:00     -306.717     -133.208        8.946      183.158      140.091       79.239    33547.012    19625.371     6278.789        8.566        2.973      334.394       87.287        0.068      342.310       17.628      855.769
05/18/2014  10:16:00     -385.519      -84.358       -3.619      205.281      134.057       83.363    42140.290    17971.396     6949.422       11.139        3.353      394.641      101.452        0.066      342.392       17.765      855.778
05/18/2014  10:17:00     -242.373      -91.549        0.289      137.035      119.685       61.029    18778.653    14324.565     3724.543        5.197        1.841      259.087       52.031        0.040      342.662       18.225      855.778
05/18/2014  10:18:00     -521.272     -184.123      -13.135      172.630      132.833       81.648    29801.218    17644.717     6666.395       17.994        2.706      552.834       74.264        0.018      342.246       17.518      855.771
05/18/2014  10:19:00     -393.676     -282.859        0.344      185.299      186.365       95.196    34335.755    34731.936     9062.220       15.654        3.906      484.757       97.311        0.040      342.156       17.365      855.805
05/18/2014  10:20:00     -107.152      -87.022       35.368      156.285      132.119       95.864    24425.076    17455.542     9189.979        3.568        2.554      138.038       93.785        0.462      342.550       18.035      855.730
05/18/2014  10:21:00     -260.460     -175.021       24.866      243.521      217.723      107.965    59302.240    47403.178    11656.402       10.870        5.918      313.802      120.270        0.147      342.312       17.630      855.721
05/18/2014  10:22:00     -211.571      -77.321       -0.454      170.115      123.207       76.142    28939.016    15179.877     5797.574        5.032        2.496      225.257       82.506        0.134      342.432       17.836      855.743
05/18/2014  10:23:00     -364.853      -75.076       -9.343      193.894      152.485       90.420    37594.951    23251.555     8175.710       10.392        3.451      372.497       97.244        0.068      342.389       17.760      855.743
05/18/2014  10:24:00     -111.810      -32.092       27.421      164.853       91.145       72.899    27176.407     8307.457     5314.324        2.753        2.040      116.324       70.668        0.369      342.693       18.280      855.732
05/18/2014  10:25:00     -199.642      -90.504        4.609      168.700      125.267       77.589    28459.693    15691.733     6020.027        4.911        2.509      219.199       91.371        0.174      342.570       18.071      855.742
05/18/2014  10:26:00     -596.238      -48.344      -44.534      214.699      181.230       85.252    46095.726    32844.317     7267.832       22.300        4.310      598.194       91.231        0.023      342.235       17.498      855.677
05/18/2014  10:27:00     -440.737     -300.999      -12.984      238.808      199.763      100.591    57029.208    39905.211    10118.641       19.601        5.353      533.713      111.342        0.044      342.261       17.545      855.692
05/18/2014  10:28:00     -252.198     -159.465       16.365      286.768      143.139       90.400    82236.155    20488.722     8172.217       10.008        5.545      298.384      124.332        0.174      342.271       17.562      855.716
05/18/2014  10:29:00     -259.392     -144.549       23.820      192.413      122.422       78.795    37022.810    14987.200     6208.672        7.347        2.911      296.949       88.666        0.089      342.347       17.689      855.704
05/18/2014  10:30:00     -379.383     -132.120       -9.061      245.774      122.578       91.732    60404.849    15025.297     8414.809       12.264        4.192      401.730      114.707        0.082      342.359       17.711      855.691
05/18/2014  10:31:00     -280.867     -142.188       -9.225      211.479      115.340       74.885    44723.551    13303.279     5607.739        8.140        3.182      314.807       98.752        0.098      342.324       17.651      855.705
05/18/2014  10:32:00     -259.163      -17.185      -10.240      135.683      135.703       69.813    18409.851    18415.426     4873.829        5.462        2.085      259.732       67.267        0.067      342.628       18.169      855.692
05/18/2014  10:33:00     -399.188     -222.683      -16.338      243.183      219.137       92.270    59138.122    48020.951     8513.813       16.242        5.784      457.099       91.248        0.040      342.357       17.707      855.714
05/18/2014  10:34:00     -389.719     -156.842       -8.419      264.869      201.195       95.225    70155.482    40479.321     9067.740       14.810        5.985      420.095       81.461        0.038      342.478       17.914      855.703
05/18/2014  10:35:00     -483.919     -169.983      -18.470      255.365      211.707      114.105    65211.163    44820.006    13020.007       19.321        6.153      512.906       99.526        0.038      342.382       17.750      855.688
05/18/2014  10:36:00     -377.117      -99.253        3.716      276.579      193.913      106.435    76496.139    37602.163    11328.476       13.873        6.271      389.960      123.374        0.100      342.565       18.062      855.714
05/18/2014  10:37:00     -486.286      -96.433      -31.756      249.354      235.096      118.796    62177.321    55270.026    14112.545       18.914        6.578      495.755      135.738        0.075      342.468       17.896      855.707
05/18/2014  10:38:00     -423.811      -98.728      -14.198      211.689      120.347       87.334    44812.441    14483.391     7627.253       12.823        3.346      435.159      107.187        0.061      342.484       17.922      855.691
05/18/2014  10:39:00     -570.023      -76.967      -35.483      250.918      149.119       83.616    62960.016    22236.403     6991.583       21.213        4.609      575.196       94.960        0.027      342.337       17.672      855.694
05/18/2014  10:40:00     -266.580        5.747       -7.052      149.947      117.380       70.150    22484.085    13778.138     4921.032        5.616        2.059      266.642       72.825        0.075      342.720       18.324      855.683
05/18/2014  10:41:00     -209.986     -130.289        3.309      168.256      116.364       74.200    28310.247    13540.560     5505.639        5.421        2.368      247.122       84.734        0.118      342.845       18.539      855.670
05/18/2014  10:42:00     -333.190     -206.626      -10.040      176.816      126.978       88.234    31263.851    16123.378     7785.201       10.448        2.759      392.058       73.524        0.035      342.357       17.706      855.657
05/18/2014  10:43:00     -208.485     -115.169        3.898      128.166      112.899       63.553    16426.591    12746.115     4039.000        4.497        1.661      238.181       68.877        0.084      342.627       18.167      855.666
05/18/2014  10:44:00      -67.760      -65.996       -5.903      130.439      100.717       45.251    17014.316    10143.837     2047.674        1.909        1.460       94.589       25.694        0.074      342.951       18.720      855.672
05/18/2014  10:45:00     -183.230      -56.200       28.849      203.645      154.900       86.602    41471.418    23993.940     7499.989        5.525        3.648      191.655       94.478        0.243      342.847       18.541      855.668
05/18/2014  10:46:00     -259.015      -62.538       -2.020      253.059      131.042       86.956    64038.767    17172.113     7561.432        7.987        4.439      266.458      116.260        0.190      342.669       18.238      855.679
05/18/2014  10:47:00     -170.421      -64.472        6.710      124.424       97.991       60.065    15481.256     9602.292     3607.854        3.096        1.435      182.209       58.708        0.104      343.038       18.868      855.676
05/18/2014  10:48:00     -111.711      -31.557        2.507      170.287      101.701       53.587    28997.796    10343.110     2871.552        2.784        2.111      116.082       62.195        0.287      342.977       18.762      855.652
05/18/2014  10:49:00     -402.508      -45.186      -27.265      227.910      138.778       75.872    51942.898    19259.471     5756.551       12.086        3.848      405.036       83.918        0.043      342.821       18.496      855.678
05/18/2014  10:50:00     -280.486      -44.470        4.432      158.762      113.957       75.958    25205.424    12986.260     5769.631        6.231        2.198      283.990       83.480        0.086      342.881       18.597      855.728
05/18/2014  10:51:00     -265.365      -30.810      -15.503      125.617      137.945       62.925    15779.653    19028.720     3959.584        5.518        1.938      267.148       65.358        0.060      342.618       18.152      855.719
05/18/2014  10:52:00     -224.156      -24.770        2.294      121.447       85.352       53.171    14749.301     7284.943     2827.177        3.786        1.243      225.521       51.002        0.051      342.573       18.076      855.690
05/18/2014  10:53:00     -172.059      -39.733       -3.834      127.646      106.420       56.007    16293.384    11325.152     3136.733        3.097        1.538      176.587       61.064        0.120      342.637       18.182      855.662
05/18/2014  10:54:00     -437.700       71.214      -27.548      150.074      154.972       65.209    22522.223    24016.454     4252.258       12.409        2.540      443.456       67.000        0.023      342.420       17.813      855.685
05/18/2014  10:55:00     -348.843      -58.376      -28.090      148.222      120.152       69.333    21969.849    14436.474     4807.045        8.354        2.061      353.693       75.935        0.046      342.679       18.255      855.659
05/18/2014  10:56:00     -467.053       -6.120      -32.487      197.917      184.564       90.363    39171.081    34063.822     8165.489       15.030        4.070      467.093       84.950        0.033      342.493       17.938      855.635
05/18/2014  10:57:00     -577.109       -6.577      -43.967      204.159      211.169      100.826    41681.020    44592.548    10165.890       21.572        4.822      577.146      100.103        0.030      342.283       17.581      855.604
05/18/2014  10:58:00     -428.395     -152.104        4.199      211.347      163.624       88.351    44667.622    26772.661     7805.909       14.295        3.962      454.597      106.313        0.055      342.477       17.910      855.616
05/18/2014  10:59:00     -333.452      -47.766       -1.582      189.382      158.072       93.290    35865.483    24986.611     8703.094        9.150        3.478      336.856       97.404        0.084      342.593       18.108      855.681
05/18/2014  11:00:00     -331.880     -122.467       -7.222      234.335      171.964       93.981    54912.919    29571.671     8832.396       10.924        4.666      353.755      123.176        0.121      342.706       18.301      855.668
05/18/2014  11:01:00     -422.757     -165.834      -18.426      161.918      137.593       79.258    26217.369    18931.864     6281.899       12.899        2.572      454.119       83.935        0.034      342.553       18.040      855.666
05/18/2014  11:02:00     -399.354     -132.046       -8.599      202.505      203.215       86.103    41008.168    41296.423     7413.780       13.334        4.486      420.618       94.957        0.051      342.760       18.392      855.680
05/18/2014  11:03:00     -533.087      -71.183      -39.594      255.510      227.318       98.575    65285.591    51673.566     9717.129       20.872        6.334      537.818      119.158        0.049      342.412       17.799      855.665
05/18/2014  11:04:00     -461.645       22.962      -53.528      195.267      147.510       77.242    38129.375    21759.309     5966.343       14.117        3.293      462.216       76.582        0.027      342.566       18.063      855.618
05/18/2014  11:05:00     -167.837      -35.825       21.492      147.118      125.026       77.223    21643.851    15631.610     5963.444        3.657        2.162      171.618       74.664        0.189      343.064       18.910      855.640
05/18/2014  11:06:00     -246.023       26.510        0.916      224.183      129.764       81.904    50257.838    16838.590     6708.317        6.750        3.690      247.448      101.113        0.167      343.018       18.833      855.672
05/18/2014  11:07:00     -293.297       -3.612      -32.221      167.153      128.218       73.216    27940.197    16439.807     5360.515        6.840        2.487      293.320       72.778        0.062      342.849       18.544      855.641
05/18/2014  11:08:00     -669.066      -40.200      -58.494      184.785      187.883       72.024    34145.400    35300.070     5187.518       26.364        3.732      670.272       70.445        0.011      342.425       17.823      855.615
05/18/2014  11:09:00     -524.679     -228.057      -20.817      220.265      182.041      112.137    48516.718    33138.909    12574.755       21.096        4.712      572.100      113.076        0.039      342.709       18.304      855.606
05/18/2014  11:10:00     -430.750     -197.806        5.290      230.847      149.252      101.794    53290.465    22276.123    10362.030       15.530        4.296      473.997      111.554        0.055      342.634       18.180      855.638
05/18/2014  11:11:00     -476.810       34.293      -17.294      269.078      229.832      105.171    72403.199    52822.961    11060.927       18.253        6.814      478.042       97.163        0.041      342.606       18.130      855.625
05/18/2014  11:12:00     -450.294     -142.992       -2.193      218.151      146.412       80.106    47589.937    21436.460     6416.903       14.932        3.772      472.453       83.862        0.032      342.742       18.362      855.601
05/18/2014  11:13:00     -470.950        4.330      -45.843      242.214      170.455       80.105    58667.555    29055.039     6416.809       15.901        4.707      470.970       91.365        0.038      342.646       18.199      855.633
05/18/2014  11:14:00     -498.944      -85.854      -32.026      215.590      205.048       91.771    46479.241    42044.685     8421.871       17.712        4.847      506.276       96.103        0.036      342.668       18.234      855.632
05/18/2014  11:15:00     -463.712      -70.298      -11.672      221.020      220.795      100.473    48849.813    48750.455    10094.805       16.388        5.385      469.010      110.413        0.055      342.955       18.724      855.654
05/18/2014  11:16:00     -180.761      -99.101       38.350      177.283      134.177       90.338    31429.333    18003.454     8160.895        5.077        2.880      206.145       95.419        0.214      343.036       18.863      855.677
05/18/2014  11:17:00     -216.432      -84.883        3.951      154.096      106.792       67.512    23745.674    11404.486     4557.833        4.688        1.985      232.482       75.393        0.105      343.072       18.923      855.671
05/18/2014  11:18:00     -240.628      -44.250      -10.838      234.258      142.687       75.707    54876.642    20359.509     5731.537        7.046        4.048      244.662      110.113        0.203      343.097       18.967      855.679
05/18/2014  11:19:00     -466.183     -120.184       -8.087      212.635      185.969       90.979    45213.513    34584.345     8277.195       15.994        4.404      481.426      103.551        0.046      342.788       18.441      855.728
05/18/2014  11:20:00     -369.817     -189.910        2.613      258.512      186.647      122.874    66828.324    34837.079    15098.069       14.478        5.838      415.729      149.313        0.129      342.542       18.022      855.736
05/18/2014  11:21:00     -306.631     -186.924       -9.988      181.120      160.694      105.953    32804.297    25822.690    11225.945        9.944        3.493      359.115      100.885        0.079      342.577       18.080      855.734
05/18/2014  11:22:00     -283.290       17.960       -0.789      193.130      116.522       70.453    37299.332    13577.364     4963.593        6.820        2.792      283.858       87.035        0.094      342.837       18.523      855.734
05/18/2014  11:23:00     -364.527      -20.742      -19.426      207.885      164.766       89.279    43216.333    27147.764     7970.677       10.599        3.917      365.116       83.214        0.052      342.815       18.485      855.737
05/18/2014  11:24:00     -293.197     -101.671       -9.502      198.960      131.111       86.568    39585.201    17190.011     7493.945        8.032        3.213      310.325       92.077        0.088      342.919       18.663      855.690
05/18/2014  11:25:00     -191.219     -109.340       -3.984      163.849      164.295       78.740    26846.339    26992.988     6200.052        5.428        3.002      220.272       83.144        0.142      343.095       18.965      855.689
05/18/2014  11:26:00     -316.670     -221.567        8.390      225.143      213.198      102.123    50689.234    45453.504    10429.192       12.799        5.329      386.487      113.911        0.087      342.810       18.479      855.746
05/18/2014  11:27:00     -395.962     -217.020       -7.404      276.391      223.240      125.891    76391.910    49835.875    15848.624       17.298        7.104      451.535      136.316        0.091      342.668       18.236      855.683
05/18/2014  11:28:00     -254.054     -102.623       19.397      229.960      139.772       78.725    52881.715    19536.255     6197.702        7.702        3.931      273.998      101.596        0.137      342.827       18.506      855.743
05/18/2014  11:29:00     -348.189        8.421        0.057      173.872      165.413       81.727    30231.422    27361.598     6679.378        9.278        3.214      348.291       95.640        0.075      342.875       18.587      855.737
05/18/2014  11:30:00     -371.549     -173.438       -2.268      242.670      251.312       90.350    58888.704    63157.947     8163.174       14.915        6.510      410.036       92.408        0.051      342.896       18.623      855.706
05/18/2014  11:31:00     -425.400     -198.877       -5.532      272.577      228.208      125.181    74298.025    52078.682    15670.276       18.127        7.102      469.593      141.184        0.090      342.695       18.281      855.688
05/18/2014  11:32:00     -398.242      -38.482      -25.662      199.115      146.472       85.595    39646.681    21453.960     7326.462       11.457        3.421      400.097       94.677        0.056      342.878       18.593      855.707
05/18/2014  11:33:00     -188.518     -101.353        5.908      155.396      137.134       74.543    24147.887    18805.678     5556.640        4.717        2.426      214.036       84.166        0.155      343.210       19.159      855.735
05/18/2014  11:34:00     -480.766     -271.099      -21.868      246.838      183.893      101.925    60928.958    33816.621    10388.759       20.510        5.257      551.934      131.428        0.057      342.607       18.131      855.747
05/18/2014  11:35:00     -495.281     -163.435      -14.540      202.707      151.273       86.351    41089.940    22883.570     7456.428       17.181        3.571      521.550       88.465        0.029      342.537       18.014      855.766
05/18/2014  11:36:00     -401.927     -138.502       -7.604      189.168      181.747       81.761    35784.493    33031.972     6684.868       12.813        3.775      425.121       78.809        0.034      342.487       17.929      855.787
05/18/2014  11:37:00     -257.768     -130.798        3.748      221.608      205.065       99.382    49110.083    42051.572     9876.803        9.228        5.052      289.054      121.719        0.177      342.653       18.209      855.780
05/18/2014  11:38:00     -322.882     -161.951       -7.383      190.710      155.944       81.514    36370.213    24318.513     6644.530        9.892        3.367      361.222       91.376        0.064      342.500       17.951      855.745
05/18/2014  11:39:00     -445.599      -83.053        1.224      279.738      205.489      109.184    78253.183    42225.823    11921.104       16.890        6.620      453.273      117.413        0.067      342.683       18.262      855.741
05/18/2014  11:40:00     -728.582     -142.102      -45.120      231.655      254.591      113.814    53663.846    64816.461    12953.635       34.222        6.572      742.310      113.691        0.023      342.570       18.069      855.726
05/18/2014  11:41:00     -650.938     -145.171      -36.334      213.246      196.073      116.186    45473.810    38444.456    13499.144       27.175        4.871      666.930      117.970        0.031      342.502       17.953      855.742
05/18/2014  11:42:00     -483.788     -295.704      -23.629      281.391      203.472      108.479    79180.997    41400.964    11767.743       22.717        6.617      567.002      119.971        0.045      342.410       17.796      855.698
05/18/2014  11:43:00     -501.614     -303.207      -21.499      285.834      221.112      123.322    81700.997    48890.600    15208.196       24.488        7.290      586.132      136.835        0.055      342.520       17.984      855.648
05/18/2014  11:44:00     -224.707     -154.193      -17.274      139.687      147.234       81.737    19512.408    21677.756     6680.953        6.121        2.394      272.523       76.028        0.078      342.784       18.433      855.691
05/18/2014  11:45:00     -254.284     -234.602       40.917      268.604      231.601      131.648    72148.068    53638.848    17331.196       13.222        7.156      345.975      163.149        0.222      342.921       18.667      855.698
05/18/2014  11:46:00     -403.742     -234.700      -11.888      214.255      169.806      101.275    45905.271    28834.071    10256.633       15.160        4.250      467.003      115.245        0.061      342.753       18.379      855.714
05/18/2014  11:47:00     -344.401     -145.936        3.137      204.042      165.376       92.727    41632.981    27349.365     8598.276       10.873        3.879      374.044       97.400        0.068      342.856       18.555      855.736
05/18/2014  11:48:00     -335.208     -171.193      -19.324      198.121      167.220       90.429    39252.046    27962.470     8177.358       10.870        3.770      376.393       94.488        0.063      343.024       18.840      855.757
05/18/2014  11:49:00     -229.348       -8.924        3.993      164.600      121.061       76.228    27093.157    14655.656     5810.710        5.012        2.378      229.521       89.029        0.150      343.229       19.193      855.744
05/18/2014  11:50:00     -218.992      -57.998      -27.229      145.496       90.860       68.399    21169.155     8255.527     4678.446        4.308        1.705      226.542       65.486        0.084      343.104       18.979      855.734
05/18/2014  11:51:00     -661.617       32.844      -57.518      249.341      205.523       95.777    62170.837    42239.546     9173.325       27.783        5.679      662.432      115.440        0.030      342.782       18.428      855.687
05/18/2014  11:52:00     -405.068        0.600      -20.427      275.241      145.736       96.255    75757.823    21238.989     9264.995       13.536        5.313      405.069      132.440        0.107      343.086       18.947      855.618
05/18/2014  11:53:00     -212.017      -49.784       30.583      183.869      125.088       86.349    33807.876    15647.126     7456.152        5.263        2.846      217.784       79.577        0.134      343.375       19.439      855.723
05/18/2014  11:54:00     -299.678     -187.896      -18.920      196.424      166.656       96.364    38582.539    27774.246     9285.925       10.054        3.782      353.711       95.916        0.074      342.982       18.770      855.705
05/18/2014  11:55:00     -311.826     -164.525       -7.316      182.097      180.268       89.419    33159.450    32496.659     7995.780        9.899        3.683      352.567       80.013        0.052      343.036       18.863      855.683
05/18/2014  11:56:00     -361.863     -145.867       -1.973      223.125      153.583       95.858    49784.640    23587.694     9188.812       11.738        4.128      390.157      107.330        0.076      343.099       18.969      855.736
05/18/2014  11:57:00     -527.577     -100.313       -9.649      281.424      174.424      107.982    79199.311    30423.603    11660.194       20.486        6.064      537.029      113.946        0.045      342.727       18.338      855.723
05/18/2014  11:58:00     -729.417      -15.429      -47.714      275.084      225.060      113.401    75670.943    50651.820    12859.806       33.685        6.959      729.580      128.309        0.031      342.562       18.057      855.757
05/18/2014  11:59:00     -652.702      -80.025      -32.599      300.047      203.414      110.208    90028.392    41377.382    12145.774       28.849        7.178      657.589      151.527        0.053      342.443       17.853      855.773
05/18/2014  12:00:00     -563.496     -168.424      -13.319      231.958      185.688       99.462    53804.385    34480.209     9892.737       22.210        4.909      588.128      103.017        0.031      342.337       17.673      855.807
05/18/2014  12:01:00     -440.848      -45.158      -23.790      192.855      200.475       81.748    37193.119    40190.119     6682.727       14.049        4.203      443.155       81.772        0.034      342.486       17.926      855.793
05/18/2014  12:02:00     -411.727        0.825      -34.853      239.683      163.066       84.136    57448.150    26590.589     7078.795       13.091        4.556      411.728      102.092        0.061      342.661       18.225      855.746
05/18/2014  12:03:00     -282.105     -168.325        0.017      157.935      147.577       78.829    24943.328    21779.077     6213.951        8.042        2.647      328.507       76.856        0.055      342.751       18.376      855.740
05/18/2014  12:04:00     -564.072      -47.684      -34.800      226.563      199.993       98.475    51330.881    39997.277     9697.352       21.132        5.051      566.083      102.709        0.033      342.689       18.271      855.756
05/18/2014  12:05:00     -453.579      -42.533      -15.982      228.401      171.442       93.372    52166.938    29392.290     8718.402       14.902        4.514      455.569      110.213        0.059      342.811       18.479      855.781
05/18/2014  12:06:00     -507.728     -165.946      -15.690      283.810      178.528       99.232    80548.122    31872.390     9846.951       20.390        6.113      534.159      119.394        0.050      342.696       18.282      855.772
05/18/2014  12:07:00     -319.408      -26.199       -3.940      178.095      128.578       69.186    31717.904    16532.259     4786.713        7.787        2.652      320.480       62.447        0.038      342.685       18.264      855.791
05/18/2014  12:08:00     -344.488     -154.062      -12.128      254.940      172.565      100.765    64994.315    29778.719    10153.559       12.372        5.246      377.368      114.578        0.092      342.745       18.368      855.775
05/18/2014  12:09:00     -539.696     -239.834      -24.204      306.870      184.720      102.734    94169.400    34121.483    10554.315       24.408        6.942      590.586      129.944        0.048      342.569       18.069      855.765
05/18/2014  12:10:00     -264.208     -124.590        3.976      200.413      154.124       98.591    40165.334    23754.231     9720.092        7.948        3.682      292.110      107.069        0.134      342.833       18.515      855.780
05/18/2014  12:11:00     -512.196     -122.603       -7.696      291.597      176.646      106.232    85028.852    31203.798    11285.161       20.245        6.376      526.665      114.104        0.047      342.418       17.811      855.767
05/18/2014  12:12:00     -623.627      -76.127      -25.488      211.632      204.557       93.177    44788.291    41843.627     8681.989       24.532        4.766      628.256       86.564        0.019      342.299       17.608      855.783
05/18/2014  12:13:00     -484.953       19.555      -25.463      272.559      168.319      103.723    74288.240    28331.384    10758.516       17.477        5.669      485.347      131.211        0.073      342.567       18.065      855.815
05/18/2014  12:14:00     -292.185      -46.038       -1.132      175.018      126.834       75.220    30631.169    16086.934     5658.009        6.992        2.619      295.789       82.655        0.078      342.762       18.396      855.833
05/18/2014  12:15:00     -463.051       -0.830      -25.960      235.383      201.038      100.774    55405.165    40416.387    10155.374       16.051        5.299      463.052      101.304        0.048      342.650       18.206      855.760
05/18/2014  12:16:00     -493.914      -59.104      -29.912      251.872      173.043      109.895    63439.629    29943.988    12076.812       17.688        5.273      497.437      118.542        0.057      342.779       18.426      855.746
05/18/2014  12:17:00     -478.699     -271.477      -13.353      243.749      168.451       87.399    59413.362    28375.886     7638.544       19.921        4.771      550.320       97.807        0.032      342.745       18.365      855.792
05/18/2014  12:18:00     -347.760      -96.163       -9.146      205.255      168.847       83.962    42129.416    28509.440     7049.677       10.396        3.884      360.811       86.493        0.057      343.057       18.898      855.823
05/18/2014  12:19:00     -510.056     -188.043      -46.363      214.559      240.222      100.040    46035.420    57706.826    10007.938       20.569        5.688      543.615      106.210        0.038      342.649       18.203      855.870
05/18/2014  12:20:00     -408.666     -152.598      -20.456      182.518      180.626       74.832    33312.867    32625.695     5599.885       13.111        3.577      436.227       55.621        0.016      342.644       18.197      855.850
05/18/2014  12:21:00     -337.568      -43.907       -7.568      209.296      164.065       91.230    43804.823    26917.401     8322.962        9.748        3.952      340.412      103.016        0.092      342.822       18.498      855.837
05/18/2014  12:22:00     -564.539     -149.604      -16.979      279.849      242.088      112.774    78315.483    58606.490    12718.038       24.548        7.482      584.025      137.717        0.056      342.739       18.357      855.829
05/18/2014  12:23:00     -365.694     -136.110       -7.921      257.003      194.294      112.949    66050.727    37750.336    12757.442       13.442        5.828      390.203      119.717        0.094      342.693       18.279      855.831
05/18/2014  12:24:00     -389.818     -154.234       -9.586      213.949      219.421       94.111    45774.387    48145.478     8856.817       13.929        5.139      419.221       97.594        0.054      342.752       18.379      855.829
05/18/2014  12:25:00     -450.393      -54.359      -20.256      279.755      161.792       99.079    78262.863    26176.684     9816.701       16.021        5.713      453.661       92.980        0.042      342.665       18.231      855.833
05/18/2014  12:26:00     -469.676      -20.844      -40.831      198.583      181.106       71.441    39435.276    32799.535     5103.856       15.000        3.867      470.138       85.928        0.033      342.709       18.305      855.806
05/18/2014  12:27:00     -456.849     -187.025      -21.094      247.417      208.989       95.164    61215.182    43676.219     9056.154       17.902        5.697      493.649      111.769        0.051      342.661       18.225      855.799
05/18/2014  12:28:00     -500.289     -200.788      -19.294      221.881      196.681       93.112    49231.134    38683.470     8669.901       19.376        4.829      539.078      105.093        0.038      342.641       18.190      855.794
05/18/2014  12:29:00     -582.016     -346.205      -23.005      330.556      230.738      130.527   109267.417    53240.080    17037.321       31.930        8.977      677.200      169.693        0.063      342.502       17.952      855.813
05/18/2014  12:30:00     -587.323     -159.310      -40.574      296.347      206.685      115.167    87821.759    42718.521    13263.423       25.786        7.190      608.545      126.919        0.043      342.368       17.725      855.816
05/18/2014  12:31:00     -447.155     -152.878      -13.215      272.146      215.902      122.474    74063.664    46613.654    14999.962       17.956        6.784      472.567      136.977        0.084      342.323       17.651      855.858
05/18/2014  12:32:00     -238.256     -124.374       16.897      210.746      187.624      111.057    44413.784    35202.755    12333.722        8.222        4.598      268.765      116.949        0.189      342.351       17.698      855.807
05/18/2014  12:33:00     -489.659     -260.184       -6.934      268.925      217.647      113.297    72320.682    47370.416    12836.293       21.999        6.626      554.492      133.768        0.058      342.373       17.733      855.746
05/18/2014  12:34:00     -436.883     -289.128      -19.383      210.976      199.838      100.904    44511.082    39935.088    10181.550       18.471        4.731      523.891      101.474        0.038      342.449       17.861      855.748
05/18/2014  12:35:00     -605.039     -435.376      -15.436      302.215      268.443      144.548    91334.046    72061.691    20894.027       37.004        9.214      745.403      181.507        0.059      342.491       17.936      855.667
05/18/2014  12:36:00     -604.501     -444.470      -15.107      313.354      219.875      129.523    98190.762    48344.978    16776.246       36.322        8.166      750.316      144.394        0.037      342.459       17.881      855.686
05/18/2014  12:37:00     -597.302     -276.870      -27.869      242.795      201.849      109.514    58949.189    40742.941    11993.386       27.292        5.584      658.352      110.767        0.028      342.510       17.967      855.735
05/18/2014  12:38:00     -557.065     -139.651      -18.732      359.946      223.805      117.611   129560.914    50088.544    13832.339       26.179        9.674      574.303      150.679        0.069      342.504       17.957      855.743
05/18/2014  12:39:00     -561.635     -146.434      -21.053      236.203      155.448      100.867    55792.073    24163.968    10174.153       21.371        4.507      580.411      119.301        0.042      342.553       18.039      855.813
05/18/2014  12:40:00     -545.760     -171.373      -17.166      288.757      244.472      113.273    83380.438    59766.538    12830.835       24.172        7.799      572.034      138.050        0.058      342.545       18.026      855.846
05/18/2014  12:41:00     -482.516     -395.887      -12.024      228.416      202.590      127.893    52173.874    41042.577    16356.522       24.961        5.479      624.138      136.110        0.048      342.383       17.750      855.859
05/18/2014  12:42:00     -586.785     -248.285       -3.674      276.284      249.903      114.829    76333.005    62451.315    13185.782       27.894        7.599      637.152      116.370        0.033      342.282       17.580      855.883
05/18/2014  12:43:00     -480.856      -93.873      -13.109      236.552      190.157      101.427    55956.760    36159.515    10287.430       17.128        5.120      489.933       97.022        0.039      342.300       17.611      855.874
05/18/2014  12:44:00     -395.823     -213.141        0.732      193.667      177.015       82.098    37506.903    31334.274     6740.053       13.883        3.779      449.560      101.256        0.051      342.420       17.814      855.840
05/18/2014  12:45:00     -282.783     -143.530       10.250      189.681      165.789       83.998    35978.894    27485.874     7055.725        8.558        3.526      317.123       98.516        0.097      342.624       18.162      855.858
05/18/2014  12:46:00     -218.706     -119.099       30.187      203.148      151.613      100.415    41269.132    22986.415    10083.146        6.862        3.717      249.032      106.010        0.181      342.625       18.163      855.859
05/18/2014  12:47:00     -354.975     -267.698       -6.297      218.709      167.405      107.436    47833.578    28024.482    11542.397       14.254        4.370      444.601      118.790        0.071      342.472       17.902      855.864
05/18/2014  12:48:00     -362.407     -127.874        4.625      225.779      180.156      101.686    50976.324    32456.356    10339.943       12.072        4.689      384.306      114.225        0.088      342.494       17.941      855.868
05/18/2014  12:49:00     -384.420     -221.469       -3.592      171.352      172.236       93.574    29361.522    29665.169     8756.037       13.230        3.389      443.652      100.423        0.051      342.435       17.840      855.841
05/18/2014  12:50:00     -273.648      -60.990       -6.117      277.141      163.080      105.599    76807.409    26595.210    11151.252        9.657        5.728      280.362      134.927        0.232      342.662       18.225      855.834
05/18/2014  12:51:00     -676.493     -149.472      -45.198      322.094      253.807      112.443   103744.741    64417.991    12643.389       33.138        9.040      692.809      131.288        0.036      342.438       17.845      855.788
05/18/2014  12:52:00     -738.377     -252.171      -36.235      289.637      276.174      122.551    83889.395    76272.091    15018.743       39.261        8.759      780.250      137.314        0.031      342.494       17.941      855.801
05/18/2014  12:53:00     -626.734     -301.532      -33.321      285.036      243.491      136.364    81245.628    59288.045    18595.237       32.195        7.956      695.497      132.402        0.036      342.551       18.036      855.852
05/18/2014  12:54:00     -448.776     -252.425        1.905      270.607      225.459      116.840    73227.906    50831.744    13651.535       20.139        6.886      514.896      129.775        0.064      342.592       18.106      855.883
05/18/2014  12:55:00     -458.662     -171.645      -15.687      265.907      164.576       85.030    70706.633    27085.237     7230.100       17.253        5.251      489.727      105.145        0.046      342.591       18.104      855.859
05/18/2014  12:56:00     -386.251     -157.020       15.712      268.734      219.589      107.519    72217.842    48219.323    11560.351       15.302        6.600      416.947      128.303        0.095      342.692       18.276      855.775
05/18/2014  12:57:00     -497.187     -147.540       -5.157      349.182      249.141      132.383   121928.350    62071.359    17525.301       23.522       10.076      518.617      152.420        0.086      342.738       18.354      855.787
05/18/2014  12:58:00     -379.364     -127.759      -12.029      244.566      157.199       89.791    59812.338    24711.446     8062.394       12.647        4.629      400.299      107.026        0.071      342.872       18.583      855.819
05/18/2014  12:59:00     -372.994     -170.903        6.856      234.483      198.967      108.553    54982.460    39587.796    11783.707       13.735        5.318      410.283      123.137        0.090      342.767       18.404      855.814
05/18/2014  13:00:00     -386.677     -182.007       -3.729      281.907      240.041      111.584    79471.433    57619.545    12450.940       16.607        7.477      427.371      120.119        0.079      342.871       18.580      855.787
05/18/2014  13:01:00     -345.715     -183.974      -16.298      198.474      150.786       86.107    39391.736    22736.274     7414.407       11.157        3.477      391.618       75.836        0.037      342.851       18.547      855.803
05/18/2014  13:02:00     -199.644      -52.479       15.329      194.625      154.855       93.191    37878.984    23980.160     8684.576        5.668        3.527      206.426       97.437        0.223      343.019       18.834      855.733
05/18/2014  13:03:00     -339.995      -81.795       18.319      284.992      159.097       88.488    81220.707    25311.882     7830.183       11.847        5.718      349.696      118.105        0.114      343.093       18.960      855.735
05/18/2014  13:04:00     -555.203     -307.383      -11.008      290.399      198.654      128.338    84331.845    39463.319    16470.725       27.153        7.013      634.614      128.930        0.041      342.741       18.361      855.754
05/18/2014  13:05:00     -393.780     -253.152       -7.343      258.667      196.445      111.844    66908.396    38590.681    12509.145       16.858        5.900      468.133      120.586        0.066      342.843       18.532      855.790
05/18/2014  13:06:00     -527.253     -338.211      -15.188      216.572      180.079      107.885    46903.366    32428.280    11639.162       24.177        4.549      626.404      102.889        0.027      342.840       18.527      855.779
05/18/2014  13:07:00     -422.883     -225.466        1.580      237.595      194.146       98.718    56451.520    37692.643     9745.167       16.676        5.194      479.234      104.184        0.047      342.674       18.246      855.773
05/18/2014  13:08:00     -317.887     -184.986        8.386      184.093      182.499       96.660    33890.342    33305.842     9343.142       10.593        3.827      367.794      105.423        0.082      342.945       18.706      855.759
05/18/2014  13:09:00     -174.000     -189.988        4.294      164.935      133.503       79.180    27203.419    17823.017     6269.415        5.883        2.565      257.626       87.588        0.116      342.906       18.641      855.748
05/18/2014  13:10:00     -461.709     -294.887      -22.232      183.833      172.971       94.137    33794.674    29919.047     8861.796       18.659        3.629      547.845       93.176        0.029      342.840       18.529      855.753
05/18/2014  13:11:00     -514.048     -256.391       12.170      295.605      217.731      116.422    87382.220    47406.960    13554.128       23.921        7.417      574.440      123.702        0.046      342.835       18.520      855.759
05/18/2014  13:12:00     -362.509     -176.471       37.059      247.913      228.995      100.538    61461.070    52438.867    10107.877       14.394        6.200      403.181      112.363        0.078      343.025       18.844      855.747
05/18/2014  13:13:00     -313.331     -291.860        9.347      273.548      184.124      116.854    74828.706    33901.755    13654.745       15.289        6.119      428.204      141.170        0.109      342.952       18.717      855.739
05/18/2014  13:14:00     -332.819     -158.852       14.561      241.199      182.004       96.224    58177.029    33125.565     9258.982       11.837        5.028      368.785      110.820        0.090      343.083       18.942      855.733
05/18/2014  13:15:00     -405.377     -254.990        2.132      258.619      227.353      111.564    66883.580    51689.476    12446.486       18.016        6.551      478.905      114.312        0.057      343.049       18.883      855.781
05/18/2014  13:16:00     -540.255     -295.591       -9.307      301.361      172.592       92.188    90818.644    29788.136     8498.623       25.419        6.455      615.832      117.428        0.036      342.665       18.230      855.784
05/18/2014  13:17:00     -247.567     -194.366       11.988      146.443      164.425       77.428    21445.439    27035.420     5995.064        7.683        2.724      314.750       83.049        0.070      342.945       18.708      855.720
05/18/2014  13:18:00     -366.573     -294.071       -3.360      325.966      181.358      100.774   106254.104    32890.770    10155.454       18.505        7.465      469.951      130.350        0.077      342.980       18.767      855.726
05/18/2014  13:19:00     -435.900     -215.778      -15.464      245.544      203.677      103.370    60291.787    41484.410    10685.340       17.461        5.623      486.383      102.252        0.044      342.882       18.601      855.717
05/18/2014  13:20:00     -521.502     -338.807       -6.417      265.687      167.180      114.730    70589.498    27949.026    13163.010       24.923        5.585      621.896      119.221        0.037      342.774       18.417      855.708
05/18/2014  13:21:00     -547.839     -179.655       -3.209      321.350      236.896      119.855   103265.640    56119.616    14365.189       25.305        8.688      576.544      137.926        0.057      342.726       18.334      855.630
05/18/2014  13:22:00     -563.283     -264.821       -8.119      345.724      286.874      118.999   119525.245    82296.755    14160.674       30.169       10.799      622.429      132.369        0.045      342.781       18.429      855.655
05/18/2014  13:23:00     -413.909     -303.308      -10.154      306.081      240.056      113.162    93685.282    57626.744    12805.681       21.374        8.206      513.144      124.026        0.058      342.619       18.153      855.692
05/18/2014  13:24:00     -205.326     -326.947       -1.378      187.240      212.875       84.640    35058.645    45315.956     7163.880       11.828        4.377      386.074       76.395        0.039      342.851       18.548      855.622
05/18/2014  13:25:00     -500.181     -260.388      -12.827      226.438      234.644      120.347    51274.026    55057.897    14483.418       21.946        6.041      563.899      116.804        0.043      342.858       18.557      855.625
05/18/2014  13:26:00     -520.117     -298.001       -1.337      278.605      241.072      118.608    77620.926    58115.523    14067.809       25.454        7.490      599.438      128.057        0.046      342.752       18.377      855.688
05/18/2014  13:27:00     -399.051     -232.925       15.531      233.952      197.548      109.626    54733.521    39025.336    12017.790       15.974        5.289      462.056      122.445        0.070      342.791       18.443      855.728
05/18/2014  13:28:00     -452.401     -332.023      -13.654      240.202      232.501       83.280    57696.873    54056.917     6935.478       21.687        5.934      561.165       95.080        0.029      342.622       18.158      855.730
05/18/2014  13:29:00     -401.720     -269.899       -8.206      248.825      197.557      121.433    61913.852    39028.688    14745.853       17.497        5.784      483.968      144.935        0.090      342.915       18.656      855.730
05/18/2014  13:30:00     -416.539     -114.342      -11.407      189.187      162.772       88.646    35791.807    26494.627     7858.158       12.841        3.507      431.948       90.915        0.044      343.016       18.827      855.710
05/18/2014  13:31:00     -514.331     -117.596       -4.920      330.462      254.211      127.568   109204.858    64623.470    16273.605       23.421        9.505      527.604      131.667        0.062      343.001       18.802      855.634
05/18/2014  13:32:00     -388.308     -320.002        0.758      229.887      205.772      103.472    52847.812    42341.947    10706.440       17.952        5.295      503.174      108.771        0.047      343.005       18.807      855.676
05/18/2014  13:33:00     -316.969     -279.047       -1.173      215.408      162.857       93.197    46400.808    26522.436     8685.709       12.996        4.080      422.299       89.104        0.045      343.087       18.948      855.702
05/18/2014  13:34:00     -370.104     -244.203      -19.774      169.539      111.250       72.162    28743.497    12376.499     5207.419       12.166        2.316      443.409       68.217        0.024      342.744       18.364      855.647
05/18/2014  13:35:00     -544.022     -203.064       -0.839      210.104      179.273       99.646    44143.681    32138.861     9929.283       21.169        4.311      580.685      107.081        0.034      342.761       18.394      855.634
05/18/2014  13:36:00     -278.617      -60.181       15.420      174.958      173.485       74.319    30610.150    30097.027     5523.349        7.385        3.312      285.042       74.294        0.068      343.028       18.848      855.631
05/18/2014  13:37:00     -287.936     -241.798       -6.137      186.556      211.246       83.017    34803.021    44624.936     6891.767       11.385        4.316      375.997       68.231        0.033      343.287       19.289      855.655
05/18/2014  13:38:00     -344.710     -261.927        2.231      226.022      216.513       96.445    51085.741    46877.868     9301.622       14.733        5.363      432.932      107.395        0.062      343.055       18.895      855.649
05/18/2014  13:39:00     -470.474     -174.665      -11.386      278.207      197.163      105.205    77398.959    38873.284    11068.082       18.964        6.367      501.850      127.757        0.065      343.104       18.979      855.595
05/18/2014  13:40:00     -506.946     -264.356       -3.790      301.141      240.202      110.913    90685.780    57696.820    12301.683       24.376        8.034      571.733      110.033        0.037      342.952       18.719      855.643
05/18/2014  13:41:00     -577.161     -369.345       -9.638      288.784      212.802      127.814    83396.231    45284.609    16336.474       30.729        7.251      685.223      151.825        0.049      342.651       18.208      855.596
05/18/2014  13:42:00     -569.283     -411.330      -39.699      213.101      225.671      101.775    45411.880    50927.353    10358.054       30.075        5.335      702.336       94.186        0.018      342.554       18.041      855.593
05/18/2014  13:43:00     -425.370     -338.260       -4.693      288.503      245.383      126.330    83233.812    60212.622    15959.148       22.736        7.970      543.470      141.512        0.068      342.830       18.510      855.555
05/18/2014  13:44:00     -631.350     -376.675      -25.992      361.277      251.639      142.099   130521.259    63322.256    20192.087       37.756       10.702      735.178      163.840        0.050      342.831       18.513      855.615
05/18/2014  13:45:00     -599.018     -334.602       -5.949      279.878      209.238      115.673    78331.586    43780.489    13380.185       30.313        6.775      686.135      128.475        0.035      342.556       18.044      855.666
05/18/2014  13:46:00     -380.325     -232.327       -1.857      211.370      167.618       88.151    44677.461    28095.903     7770.642       13.957        4.027      445.671      109.115        0.060      342.768       18.405      855.654
05/18/2014  13:47:00     -662.486     -437.808      -24.823      296.777      274.690      143.481    88076.702    75454.795    20586.745       40.761        9.206      794.080      155.511        0.038      342.692       18.277      855.616
05/18/2014  13:48:00     -628.985     -354.372      -11.289      240.872      206.734      114.713    58019.161    42738.802    13159.104       31.760        5.696      721.943      126.200        0.031      342.470       17.899      855.669
05/18/2014  13:49:00     -459.438     -227.209      -22.299      291.797      185.606      105.239    85145.419    34449.658    11075.172       19.691        6.534      512.549      129.805        0.064      342.694       18.280      855.611
05/18/2014  13:50:00     -158.263     -122.790       18.727      209.954      152.400       96.518    44080.663    23225.714     9315.820        5.853        3.831      200.311      116.559        0.339      343.236       19.203      855.599
05/18/2014  13:51:00     -203.120     -218.567       12.352      171.632      156.952       83.926    29457.673    24633.834     7043.600        7.515        3.057      298.377       86.442        0.084      343.079       18.935      855.617
05/18/2014  13:52:00     -245.974     -267.782       -1.380      165.012      144.263       85.679    27229.080    20811.940     7340.901        9.379        2.769      363.607       90.955        0.063      343.153       19.061      855.583
05/18/2014  13:53:00     -149.234     -322.440      -21.652      130.266      209.499       66.977    16969.324    43889.791     4485.900        9.601        3.267      355.301       58.909        0.027      342.977       18.761      855.613
05/18/2014  13:54:00     -366.348     -119.869      -33.247      207.619      146.793       80.160    43105.507    21548.243     6425.705       11.037        3.554      385.460       80.755        0.044      342.866       18.573      855.581
05/18/2014  13:55:00     -190.121     -209.563        7.549      140.038      113.452       55.067    19610.628    12871.369     3032.423        5.781        1.776      282.953       54.085        0.037      342.692       18.276      855.551
05/18/2014  13:56:00     -357.511     -230.093      -12.827      192.481      183.911      104.836    37048.960    33823.403    10990.506       13.138        4.093      425.155      104.215        0.060      342.926       18.675      855.518
05/18/2014  13:57:00     -249.583     -140.063        2.682      211.211      104.542       75.859    44610.028    10929.055     5754.636        7.159        3.065      286.198       94.615        0.109      343.294       19.302      855.463
05/18/2014  13:58:00     -318.675     -269.631        1.144      333.075      216.572      120.327   110939.214    46903.457    14478.656       17.325        8.616      417.438      120.616        0.083      343.422       19.519      855.484
05/18/2014  13:59:00     -303.616     -261.726       13.022      209.991      211.385       96.727    44096.204    44683.539     9356.197       12.947        4.907      400.853       92.333        0.053      343.397       19.477      855.535
05/18/2014  14:00:00     -360.001     -289.067        3.551      237.587      235.868       92.084    56447.421    55633.814     8479.419       16.684        6.028      461.693      107.202        0.054      343.060       18.902      855.573
05/18/2014  14:01:00     -290.503     -130.805        1.074      159.062      182.356       75.572    25300.812    33253.701     5711.185        8.287        3.213      318.594       68.515        0.046      343.077       18.930      855.582
05/18/2014  14:02:00     -401.405     -293.011      -32.245      241.008      183.747       80.604    58084.924    33762.979     6497.030       17.316        4.917      496.972       86.298        0.030      342.939       18.696      855.569
05/18/2014  14:03:00     -286.060     -257.286        6.531      237.596      192.579       95.867    56451.844    37086.503     9190.416       12.538        5.136      384.742       97.598        0.064      343.115       18.996      855.585
05/18/2014  14:04:00     -365.621     -247.499       24.066      285.189      197.690      119.423    81332.979    39081.501    14261.831       16.507        6.734      441.514      136.487        0.096      342.851       18.548      855.542
05/18/2014  14:05:00     -102.043     -116.352       19.051      134.350      122.273       65.007    18049.957    14950.779     4225.918        3.076        1.861      154.760       76.147        0.242      343.162       19.077      855.542
05/18/2014  14:06:00     -368.410     -229.464      -14.242      204.314      210.579       95.477    41744.312    44343.526     9115.922       14.187        4.760      434.027       87.530        0.041      343.123       19.010      855.548
05/18/2014  14:07:00     -253.400     -111.068       27.788      251.180      171.845      102.083    63091.422    29530.629    10420.873        9.016        5.152      276.672      119.905        0.188      343.270       19.261      855.527
05/18/2014  14:08:00     -307.488      -94.232       -6.453      186.418      136.652       73.857    34751.659    18673.803     5454.812        8.116        2.944      321.604       75.133        0.055      343.456       19.577      855.527
05/18/2014  14:09:00     -243.085     -131.317      -26.384      145.287      133.304       57.669    21108.399    17770.074     3325.728        5.961        2.110      276.287       57.595        0.043      343.523       19.692      855.552
05/18/2014  14:10:00     -131.406      -69.545       19.347      127.984      120.236       64.953    16379.957    14456.727     4218.856        2.876        1.753      148.675       64.934        0.191      343.942       20.408      855.575
05/18/2014  14:11:00     -337.711     -142.400        3.704      219.343      169.590       81.494    48111.216    28760.827     6641.216       10.891        4.176      366.506       86.097        0.055      343.626       19.865      855.601
05/18/2014  14:12:00     -389.407     -298.514      -14.170      248.520      213.484       84.821    61762.254    45575.534     7194.545       17.772        5.727      490.661       83.571        0.029      343.071       18.921      855.621
05/18/2014  14:13:00     -533.263     -239.464      -13.944      276.632      214.770       87.405    76525.411    46126.224     7639.698       23.607        6.515      584.562       88.458        0.023      343.092       18.957      855.593
05/18/2014  14:14:00     -525.929     -301.584        2.545      234.644      198.566      118.200    55057.581    39428.270    13971.272       23.799        5.423      606.263      113.454        0.035      342.901       18.631      855.586
05/18/2014  14:15:00     -229.145     -277.670        7.541      235.595      175.848       87.990    55505.138    30922.459     7742.170       11.190        4.708      360.012       99.312        0.076      342.850       18.546      855.601
05/18/2014  14:16:00     -315.607     -147.262       -0.353      177.300      125.030       73.674    31435.287    15632.531     5427.841        8.688        2.625      348.273       75.701        0.047      342.954       18.722      855.548
05/18/2014  14:17:00     -298.296     -106.324        1.300      138.588      116.109       70.560    19206.736    13481.265     4978.661        6.897        1.883      316.678       78.123        0.061      343.019       18.831      855.527
05/18/2014  14:18:00     -236.927     -104.563        1.487      167.417      149.255       71.348    28028.359    22277.169     5090.470        6.122        2.770      258.975       75.637        0.085      343.398       19.479      855.551
05/18/2014  14:19:00     -250.633     -138.129       19.371      237.066      173.685       81.897    56200.417    30166.365     6707.152        8.765        4.654      286.175       77.955        0.074      343.662       19.929      855.585
05/18/2014  14:20:00     -374.584     -150.434       11.626      200.728      178.951       91.282    40291.663    32023.637     8332.372       12.185        4.032      403.663       90.426        0.050      343.392       19.467      855.648
05/18/2014  14:21:00     -190.346     -151.723       23.973      197.315      221.597       97.019    38933.274    49105.030     9412.686        7.862        4.873      243.416       85.416        0.123      343.446       19.561      855.680
05/18/2014  14:22:00     -455.645     -308.118        5.038      250.925      216.307      117.306    62963.542    46788.718    13760.727       21.302        6.176      550.045      130.873        0.057      343.219       19.175      855.700
05/18/2014  14:23:00     -181.300     -170.212       13.570      141.062      176.253       78.461    19898.485    31065.286     6156.081        5.956        2.856      248.680       62.642        0.063      343.041       18.870      855.696
05/18/2014  14:24:00     -238.760     -104.613       28.164      177.509      157.023       79.657    31509.507    24656.230     6345.175        6.561        3.126      260.673       89.517        0.118      343.213       19.164      855.629
05/18/2014  14:25:00     -273.977     -237.014       16.901      238.300      199.113       96.823    56786.675    39646.132     9374.787       11.864        5.290      362.269      100.310        0.077      343.036       18.861      855.616
05/18/2014  14:26:00     -230.909     -178.158       41.823      263.918      242.279      102.968    69652.659    58699.167    10602.367       11.285        6.948      291.649      131.646        0.204      343.443       19.558      855.577
05/18/2014  14:27:00     -359.336     -401.165        1.214      208.968      234.910      106.390    43667.820    55182.594    11318.823       20.009        5.508      538.568      110.573        0.042      343.116       18.998      855.616
05/18/2014  14:28:00     -340.731     -331.599        8.706      237.849      278.627       94.197    56572.034    77633.207     8873.128       18.458        7.154      475.453      118.027        0.062      343.039       18.866      855.607
05/18/2014  14:29:00      -80.753     -174.420        3.471       94.458      117.140       58.448     8922.299    13721.832     3416.120        3.150        1.303      192.206       47.361        0.061      343.235       19.201      855.567
05/18/2014  14:30:00      -84.952     -149.990       -1.031      113.753      133.910       69.237    12939.725    17931.922     4793.826        3.268        1.783      172.377       60.393        0.123      343.450       19.570      855.492
05/18/2014  14:31:00     -345.334     -379.226      -12.032      223.312      255.151       87.721    49868.140    65101.875     7695.041       19.291        6.133      512.901       71.066        0.019      343.414       19.505      855.535
05/18/2014  14:32:00     -471.560     -313.785       -5.958      284.239      169.445      107.185    80792.046    28711.660    11488.525       22.090        6.050      566.418      130.233        0.053      343.489       19.633      855.583
05/18/2014  14:33:00     -369.198     -189.421        6.759      222.229      176.280      102.204    49385.569    31074.769    10445.715       13.155        4.545      414.955       96.388        0.054      343.020       18.835      855.650
05/18/2014  14:34:00     -299.207     -133.199      -10.043      173.614      137.250       72.297    30141.956    18837.559     5226.918        8.078        2.710      327.516       80.594        0.061      343.028       18.849      855.686
05/18/2014  14:35:00     -279.684     -257.295       -4.774      202.035      144.785       82.160    40818.292    20962.649     6750.211       10.648        3.427      380.032       93.974        0.061      342.971       18.752      855.658
05/18/2014  14:36:00     -383.779     -312.501       -8.019      196.372      168.176       86.369    38562.080    28283.192     7459.544       15.964        3.715      494.917       84.888        0.029      342.721       18.325      855.636
05/18/2014  14:37:00     -323.124      -57.859        2.061      210.824      165.043       80.814    44446.596    27239.169     6530.859        9.297        3.911      328.264       82.624        0.063      343.102       18.975      855.631
05/18/2014  14:38:00     -183.354     -240.222      -26.045      173.094      148.874       59.092    29961.621    22163.502     3491.815        7.380        2.781      302.201       48.894        0.026      342.759       18.391      855.672
05/18/2014  14:39:00     -219.475      -93.795       -2.098      177.362      218.342       76.635    31457.272    47673.429     5872.870        7.097        4.250      238.677       79.216        0.110      343.032       18.856      855.650
05/18/2014  14:40:00     -462.262       31.913      -30.649      184.964      136.833       81.983    34211.652    18723.266     6721.159       13.764        2.983      463.362       77.020        0.028      343.176       19.102      855.666
05/18/2014  14:41:00     -255.300      -84.299        9.380      220.977      131.770       96.886    48830.928    17363.422     9386.823        7.396        3.779      268.858      113.367        0.178      343.550       19.737      855.677
05/18/2014  14:42:00     -468.728     -148.115       -8.604      229.327      166.255       86.883    52590.644    27640.616     7548.585       16.473        4.389      491.573       87.610        0.032      343.068       18.916      855.685
05/18/2014  14:43:00     -368.705     -122.091      -10.945      286.795      164.389      101.287    82251.144    27023.901    10259.027       13.523        5.977      388.394      106.620        0.075      342.991       18.786      855.638
05/18/2014  14:44:00     -382.316      -85.067      -23.125      245.793      132.621       82.025    60414.313    17588.374     6728.028       11.932        4.237      391.665      105.364        0.072      343.359       19.411      855.638
05/18/2014  14:45:00     -300.703     -179.463        9.651      270.581      201.929       94.020    73213.875    40775.460     8839.847       12.275        6.141      350.185       94.460        0.073      343.405       19.490      855.695
05/18/2014  14:46:00     -418.161     -343.197      -12.082      248.156      206.630      117.537    61581.308    42695.751    13814.964       20.542        5.905      540.965      142.339        0.069      343.007       18.811      855.687
05/18/2014  14:47:00     -163.214     -195.215        7.479      195.002      141.928       94.581    38025.895    20143.607     8945.472        6.595        3.356      254.456       97.734        0.148      343.294       19.302      855.695
05/18/2014  14:48:00     -223.570     -142.016       13.177      178.297      153.165       88.507    31789.760    23459.586     7833.454        6.669        3.154      264.862       90.584        0.117      343.569       19.771      855.690
05/18/2014  14:49:00     -315.288     -191.694      -17.384      146.737      166.644       82.476    21531.729    27770.153     6802.244        9.627        2.805      368.989       82.285        0.050      343.135       19.031      855.754
05/18/2014  14:50:00     -299.751      -63.787       -5.610      163.079      151.128       77.991    26594.825    22839.673     6082.585        7.472        2.776      306.463       81.071        0.070      343.152       19.057      855.754
05/18/2014  14:51:00     -289.026     -139.055        4.232      174.757      160.942       84.386    30539.971    25902.220     7120.979        8.321        3.178      320.738       94.616        0.087      343.228       19.189      855.745
05/18/2014  14:52:00     -405.847     -262.654       -3.773      175.864      137.071       70.527    30928.128    18788.576     4974.040       14.419        2.735      483.424       68.994        0.020      342.599       18.119      855.772
05/18/2014  14:53:00     -136.167      -91.478       18.721      151.053      121.173       56.310    22816.990    14682.923     3170.832        3.396        2.034      164.042       65.314        0.159      343.198       19.139      855.736
05/18/2014  14:54:00     -166.516     -149.875        8.367      129.564      107.356       61.412    16786.946    11525.219     3771.399        4.117        1.604      224.031       62.288        0.077      342.812       18.481      855.684
05/18/2014  14:55:00     -258.134     -170.432        4.765      183.986      125.845       74.405    33850.892    15836.903     5536.127        7.545        2.761      309.322       58.404        0.036      343.169       19.088      855.664
05/18/2014  14:56:00     -339.128      -27.561      -27.137      156.088      155.407       67.531    24363.513    24151.338     4560.474        8.478        2.654      340.246       77.917        0.052      343.402       19.485      855.688
05/18/2014  14:57:00     -447.345     -146.176      -24.209      155.412      146.709       83.454    24152.738    21523.409     6964.575       13.735        2.632      470.621       79.470        0.029      343.243       19.215      855.696
05/18/2014  14:58:00     -217.480      -70.320        8.152      142.429      137.754       78.932    20285.925    18976.120     6230.216        4.889        2.275      228.566       73.041        0.102      343.400       19.483      855.722
05/18/2014  14:59:00     -407.451       26.428      -27.902      208.370      140.728       84.190    43418.103    19804.363     7087.946       11.889        3.516      408.308       91.832        0.051      343.166       19.084      855.731
05/18/2014  15:00:00     -302.223      -36.864      -22.380      225.543      211.918       84.244    50869.455    44909.172     7097.076        9.802        5.144      304.463       83.399        0.075      343.299       19.309      855.645
05/18/2014  15:01:00     -338.107      -41.185      -11.586      196.412      124.294       81.893    38577.720    15448.907     6706.513        8.843        3.037      340.606      100.535        0.087      343.499       19.651      855.706
05/18/2014  15:02:00     -352.742      -35.084      -17.536      258.301      137.911       73.926    66719.307    19019.485     5465.022       10.857        4.560      354.482      105.725        0.089      343.729       20.043      855.749
05/18/2014  15:03:00     -533.321      -85.703      -29.487      220.983      165.483       84.914    48833.667    27384.667     7210.410       18.802        4.171      540.163       94.835        0.031      343.225       19.183      855.708
05/18/2014  15:04:00     -523.277      -67.120       -4.949      230.342      172.022       94.771    53057.362    29591.540     8981.564       18.497        4.582      527.564      100.206        0.036      343.115       18.996      855.724
05/18/2014  15:05:00     -330.654     -196.407      -11.693      191.790      202.543       82.489    36783.422    41023.794     6804.420       11.631        4.231      384.588       88.200        0.053      342.942       18.702      855.776
05/18/2014  15:06:00     -418.991     -127.607      -22.958      222.007      148.769       83.238    49286.997    22132.291     6928.544       13.534        3.917      437.992       99.414        0.052      343.081       18.938      855.724
05/18/2014  15:07:00     -635.511      -92.002      -38.313      174.932      220.231       90.966    30601.279    48501.715     8274.849       25.058        4.369      642.136       88.828        0.019      343.095       18.962      855.692
05/18/2014  15:08:00     -200.723     -173.270       11.409      205.841      191.599       86.111    42370.537    36710.160     7415.042        7.845        4.325      265.165      111.997        0.178      343.476       19.612      855.762
05/18/2014  15:09:00     -384.424     -259.061       -3.394      236.010      184.010       93.214    55700.508    33859.580     8688.804       15.656        4.912      463.567      107.501        0.054      343.072       18.925      855.774
05/18/2014  15:10:00     -256.267     -297.217      -11.735      206.059      267.043       90.751    42460.452    71312.069     8235.673       13.805        6.100      392.443      108.498        0.076      343.257       19.240      855.753
05/18/2014  15:11:00     -257.443     -284.806        4.932      190.050      156.149       99.582    36118.929    24382.462     9916.512       10.890        3.521      383.916       89.833        0.055      343.299       19.310      855.779
05/18/2014  15:12:00     -290.118     -200.700       18.431      212.873      185.851      109.797    45314.978    34540.512    12055.415       10.833        4.596      352.773      118.581        0.113      343.041       18.872      855.751
05/18/2014  15:13:00      -94.898      -75.688        9.306      117.117      128.595       47.360    13716.496    16536.594     2243.014        2.365        1.625      121.385       53.615        0.195      343.326       19.359      855.764
05/18/2014  15:14:00      -85.604       24.639       17.508      108.932       53.963       48.681    11866.114     2912.030     2369.819        1.269        0.857       89.079       64.857        0.530      343.627       19.872      855.734
05/18/2014  15:15:00     -208.225     -133.689      -11.300      107.695      129.653       68.687    11598.183    16809.857     4717.946        4.724        1.656      247.448       60.320        0.059      343.454       19.574      855.793
05/18/2014  15:16:00     -345.940     -243.517      -10.291      235.407      215.506      107.809    55416.449    46443.011    11622.751       14.626        5.674      423.055      134.168        0.101      343.280       19.278      855.786
05/18/2014  15:17:00     -335.360     -321.487        6.151      245.003      194.385      129.110    60026.373    37785.515    16669.410       16.515        5.724      464.565      152.327        0.108      342.878       18.593      855.793
05/18/2014  15:18:00     -445.238      -78.270      -25.506      193.815      205.014       66.788    37564.345    42030.698     4460.700       14.452        4.203      452.065       76.462        0.029      342.883       18.601      855.811
05/18/2014  15:19:00     -280.624     -118.853       24.706      280.582      235.274      127.068    78726.405    55353.809    16146.224       12.183        7.511      304.756      141.886        0.217      343.405       19.491      855.754
05/18/2014  15:20:00     -375.565     -217.542       11.630      250.910      264.552      123.423    62955.711    69987.904    15233.251       16.831        7.409      434.020      120.864        0.078      343.227       19.188      855.809
05/18/2014  15:21:00     -309.508     -191.825       -3.949      225.239      187.996       89.926    50732.630    35342.586     8086.699       11.337        4.708      364.132       94.192        0.067      343.121       19.006      855.853
05/18/2014  15:22:00     -375.708     -220.282       10.053      207.888      185.241       95.248    43217.575    34314.061     9072.134       13.817        4.330      435.523      106.332        0.060      343.277       19.270      855.846
05/18/2014  15:23:00     -413.786     -199.446       -0.822      319.198      224.142      108.433   101887.448    50239.578    11757.784       18.741        8.194      459.344      114.699        0.062      343.151       19.057      855.827
05/18/2014  15:24:00     -607.520     -239.025       -3.077      279.615      217.353      118.732    78184.458    47242.301    14097.224       28.285        6.976      652.850      139.393        0.046      343.055       18.894      855.836
05/18/2014  15:25:00     -619.109     -281.208      -22.518      287.026      253.981      130.235    82384.086    64506.540    16961.173       31.333        8.193      679.981      140.488        0.043      342.741       18.361      855.883
05/18/2014  15:26:00     -365.734     -203.327      -23.835      264.217      201.422       88.401    69810.446    40570.914     7814.722       14.691        5.910      418.454      106.346        0.065      342.913       18.654      855.908
05/18/2014  15:27:00     -169.671     -134.684       19.133      151.047      165.765       74.816    22815.264    27477.937     5597.443        5.158        2.795      216.628       81.868        0.143      343.096       18.966      855.941
05/18/2014  15:28:00     -337.519     -149.689      -21.232      250.233      184.911       80.284    62616.715    34191.903     6445.472       11.999        5.163      369.223       93.507        0.064      342.804       18.468      855.907
05/18/2014  15:29:00     -178.222        0.420        8.215      131.143      127.354       51.355    17198.447    16219.011     2637.308        3.394        1.803      178.223       51.187        0.082      343.125       19.014      855.897
05/18/2014  15:30:00     -396.337     -287.349      -27.355      202.165      176.711       77.923    40870.672    31226.865     6071.925       15.927        3.908      489.543       78.541        0.026      342.853       18.551      855.872
05/18/2014  15:31:00     -204.329     -221.686        1.462      123.486      159.162       64.704    15248.804    25332.578     4186.629        6.782        2.238      301.488       59.480        0.039      343.153       19.062      855.868
05/18/2014  15:32:00     -234.770     -283.181       17.218      171.910      137.814       76.305    29553.143    18992.713     5822.458        9.498        2.718      367.843       64.951        0.031      343.038       18.865      855.914
05/18/2014  15:33:00     -271.466     -240.515       -4.020      177.609      175.574       81.626    31544.969    30826.297     6662.737       10.028        3.452      362.686       76.626        0.045      343.103       18.976      855.912
05/18/2014  15:34:00     -406.662     -123.576       10.537      200.363      202.658      105.971    40145.380    41070.131    11229.779       13.658        4.622      425.024       96.994        0.052      343.104       18.977      855.934
05/18/2014  15:35:00     -468.020     -291.918      -13.955      266.158      226.141      112.298    70839.890    51139.584    12610.861       21.949        6.730      551.596      131.999        0.057      343.021       18.837      855.921
05/18/2014  15:36:00     -542.582     -319.599      -14.290      301.043      258.474      120.659    90626.732    66808.740    14558.576       28.433        8.600      629.714      153.001        0.059      342.798       18.458      855.911
05/18/2014  15:37:00     -257.111     -106.529       -6.024      144.342      142.264       68.876    20834.552    20239.078     4743.895        6.165        2.291      278.307       55.528        0.040      343.068       18.915      855.933
05/18/2014  15:38:00     -231.747     -215.742        4.407      210.399      143.842       84.702    44267.864    20690.419     7174.474        8.619        3.607      316.625       96.638        0.093      343.119       19.003      855.898
05/18/2014  15:39:00     -163.149     -120.939        6.181      110.425      114.100       64.927    12193.648    13018.895     4215.563        3.535        1.471      203.086       76.441        0.142      343.031       18.855      855.880
05/18/2014  15:40:00     -304.486     -199.504       12.933      200.868      170.563      104.789    40347.921    29091.609    10980.656       10.653        4.021      364.025      108.805        0.089      343.108       18.985      855.886
05/18/2014  15:41:00     -658.431     -180.590      -23.758      195.958      242.637      110.019    38399.504    58872.836    12104.263       28.802        5.469      682.748       99.369        0.021      342.777       18.420      855.860
05/18/2014  15:42:00     -471.368      -30.037      -13.702      244.646      228.484       86.865    59851.800    52205.107     7545.482       17.142        5.980      472.324       89.972        0.036      343.075       18.928      855.791
05/18/2014  15:43:00     -392.204     -125.310        7.967      250.699      174.652      102.903    62849.781    30503.427    10589.006       13.675        5.197      411.736      114.801        0.078      343.305       19.321      855.890
05/18/2014  15:44:00     -256.743     -105.365       14.807      272.605      183.514      112.483    74313.236    33677.390    12652.457        9.892        6.032      277.523      126.588        0.208      343.117       19.000      855.867
05/18/2014  15:45:00     -432.337     -286.095       -0.315      211.411      201.497      110.103    44694.540    40601.171    12122.704       18.307        4.871      518.426      124.714        0.058      342.978       18.764      855.882
05/18/2014  15:46:00     -552.488     -271.277      -23.141      314.682      199.579      113.397    99025.024    39831.867    12858.893       26.551        7.586      615.495      126.292        0.042      342.819       18.493      855.841
05/18/2014  15:47:00     -411.586     -420.017       -3.986      220.501      236.703      120.179    48620.472    56028.479    14442.992       23.244        5.955      588.062      138.744        0.056      342.813       18.483      855.899
05/18/2014  15:48:00     -268.153     -252.270       -4.249      225.376      149.712       77.661    50794.155    22413.641     6031.226       10.739        3.962      368.166       68.666        0.035      342.727       18.336      855.890
05/18/2014  15:49:00     -264.410     -234.849       15.834      195.432      208.589       77.947    38193.739    43509.288     6075.679       10.653        4.389      353.648       85.806        0.059      343.114       18.996      855.890
05/18/2014  15:50:00     -465.938     -317.930      -10.365      314.086      281.781      110.544    98650.073    79400.697    12219.865       25.424        9.514      564.073      124.678        0.049      342.752       18.378      855.899
05/18/2014  15:51:00     -478.922     -280.567      -14.509      213.437      189.749       80.758    45555.285    36004.602     6521.791       19.817        4.404      555.053       85.896        0.024      342.428       17.827      855.945
05/18/2014  15:52:00     -329.071     -163.487      -14.688      235.336      121.452       77.412    55382.811    14750.534     5992.686       10.566        3.806      367.445      102.710        0.078      342.578       18.084      855.872
05/18/2014  15:53:00     -335.070     -113.944      -20.097      177.415      184.919       74.477    31475.970    34194.923     5546.753        9.842        3.561      353.914       83.051        0.055      342.614       18.145      855.851
05/18/2014  15:54:00     -532.999     -332.241        0.602      295.644      193.740      113.483    87405.666    37535.328    12878.387       26.612        6.891      628.070      125.210        0.040      342.497       17.944      855.800
05/18/2014  15:55:00     -454.851     -208.266      -11.766      233.676      194.782      101.657    54604.349    37939.976    10334.087       17.662        5.144      500.265      104.880        0.044      342.666       18.231      855.774
05/18/2014  15:56:00     -334.590     -279.270       -2.388      211.445      190.082       79.070    44708.929    36131.326     6252.141       13.850        4.355      435.824       81.101        0.035      342.747       18.371      855.813
05/18/2014  15:57:00     -632.176     -348.299       -2.865      264.914      228.331      115.637    70179.544    52135.243    13371.989       32.830        6.784      721.775      128.860        0.032      342.513       17.971      855.795
05/18/2014  15:58:00     -467.413     -319.378       -5.087      253.529      175.248      108.830    64276.981    30711.867    11844.064       21.365        5.342      566.108      142.626        0.063      342.488       17.928      855.801
05/18/2014  15:59:00     -295.016     -208.024       19.773      160.890      133.687       86.302    25885.647    17872.163     7447.956        9.094        2.560      360.983       85.219        0.056      342.848       18.541      855.773
05/18/2014  16:00:00     -503.489     -350.541      -18.998      303.212      205.824      111.626    91937.529    42363.615    12460.298       26.172        7.338      613.498      131.987        0.046      342.898       18.627      855.778
05/18/2014  16:01:00     -514.539     -327.833      -10.497      233.733      206.674      118.651    54631.232    42713.987    14078.105       24.186        5.571      610.102      122.356        0.040      342.793       18.448      855.770
05/18/2014  16:02:00     -434.793     -309.673        1.715      305.572      204.311      105.889    93374.367    41743.052    11212.404       21.561        7.316      533.800      109.609        0.042      342.915       18.655      855.804
05/18/2014  16:03:00     -524.271     -336.874      -22.244      274.505      236.845      123.568    75353.234    56095.599    15269.073       26.775        7.336      623.173      135.177        0.047      342.643       18.195      855.807
05/18/2014  16:04:00     -671.634     -302.663      -13.077      265.707      251.459      111.841    70600.439    63231.481    12508.464       34.457        7.317      736.680      127.247        0.030      342.512       17.971      855.825
05/18/2014  16:05:00     -363.304     -252.020       14.421      247.561      174.908       98.141    61286.655    30592.983     9631.576       14.859        5.076      442.158      117.522        0.071      342.669       18.237      855.820
05/18/2014  16:06:00     -559.764     -335.271       -8.717      282.573      190.595      116.224    79847.631    36326.400    13508.104       27.772        6.484      652.489      133.748        0.042      342.466       17.893      855.831
05/18/2014  16:07:00     -531.787     -427.088       -3.312      222.240      186.460      108.518    49390.396    34767.207    11776.235       28.055        4.797      682.057      114.450        0.028      342.518       17.979      855.781
05/18/2014  16:08:00     -485.039     -200.982       -3.161      249.735      220.293       95.637    62367.481    48529.169     9146.393       19.783        6.002      525.030      103.316        0.039      342.812       18.481      855.802
05/18/2014  16:09:00     -400.931     -283.661       14.699      242.714      198.710      115.736    58910.266    39485.571    13394.785       17.659        5.590      491.131      113.344        0.053      342.649       18.203      855.813
05/18/2014  16:10:00     -417.104     -275.855       -6.388      289.008      206.391      102.129    83525.811    42597.276    10430.291       19.331        6.828      500.072      102.467        0.042      342.694       18.282      855.761
05/18/2014  16:11:00     -479.620     -417.635      -26.760      290.896      216.642      105.135    84620.441    46933.961    11053.273       27.386        7.130      635.967      113.206        0.032      342.671       18.240      855.778
05/18/2014  16:12:00     -486.159     -255.714        7.870      235.434      201.585      113.172    55429.323    40636.319    12807.987       20.532        5.444      549.309      112.126        0.042      342.665       18.231      855.786
05/18/2014  16:13:00     -671.965     -448.229       -4.080      323.622      260.096      129.076   104731.163    67650.026    16660.625       42.071        9.452      807.741      138.250        0.029      342.435       17.841      855.778
05/18/2014  16:14:00     -512.642     -337.083      -10.698      226.627      219.303      112.435    51359.959    48093.786    12641.710       24.430        5.605      613.537      117.826        0.037      342.581       18.088      855.784
05/18/2014  16:15:00     -479.890     -254.101      -13.679      260.740      172.037       94.382    67985.466    29596.559     8907.994       20.075        5.325      543.012      116.143        0.046      342.588       18.099      855.774
05/18/2014  16:16:00     -423.162     -246.328       17.037      245.777      224.793       96.309    60406.125    50532.115     9275.395       18.010        6.011      489.636      118.456        0.059      342.681       18.257      855.736
05/18/2014  16:17:00     -529.576     -325.560       -2.462      231.025      205.198      113.246    53372.710    42106.108    12824.585       24.735        5.415      621.643      122.723        0.039      342.539       18.016      855.739
05/18/2014  16:18:00     -392.892     -237.083        2.943      212.764      217.944      103.318    45268.674    47499.649    10674.627       15.699        5.172      458.881       95.986        0.044      342.577       18.081      855.725
05/18/2014  16:19:00     -420.768     -227.202       -3.885      216.197      159.427       95.535    46740.996    25416.922     9126.964       15.497        4.064      478.191      105.249        0.048      342.573       18.074      855.712
05/18/2014  16:20:00     -375.386     -275.180        6.977      249.675      168.016      109.059    62337.729    28229.238    11893.955       15.955        5.123      465.445      111.121        0.057      342.489       17.931      855.728
05/18/2014  16:21:00     -363.888     -142.130      -12.143      175.062      146.261       78.284    30646.588    21392.364     6128.383       10.545        2.908      390.660       82.784        0.045      342.508       17.966      855.708
05/18/2014  16:22:00     -424.717     -211.023      -19.627      233.536      195.588       86.273    54538.954    38254.499     7443.042       16.275        5.012      474.253      100.564        0.045      342.718       18.322      855.707
05/18/2014  16:23:00     -271.058     -228.218        9.719      246.759      182.876      119.286    60889.900    33443.720    14229.239       11.708        5.428      354.339      120.780        0.116      342.942       18.702      855.689
05/18/2014  16:24:00     -574.385     -396.812       -7.171      328.985      217.901      153.722   108231.268    47480.862    23630.599       33.335        8.967      698.125      166.797        0.057      342.499       17.947      855.634
05/18/2014  16:25:00     -406.801     -130.847        5.928      260.451      232.944      118.324    67834.478    54263.032    14000.490       15.934        6.805      427.327      134.603        0.099      342.885       18.603      855.660
05/18/2014  16:26:00     -361.028      -48.673      -13.361      222.025      151.738       98.584    49295.131    23024.428     9718.765       10.745        4.102      364.294      113.594        0.097      342.947       18.710      855.723
05/18/2014  16:27:00     -453.429      -66.506      -14.775      266.607      231.330      110.460    71079.140    53513.405    12201.472       17.349        6.840      458.280      101.148        0.049      342.811       18.478      855.684
05/18/2014  16:28:00     -409.876     -215.713      -13.101      304.411      185.258       97.286    92665.799    34320.484     9464.633       17.555        6.823      463.174      130.064        0.079      342.783       18.431      855.743
05/18/2014  16:29:00     -323.865     -356.865       -7.976      277.587      250.386      120.089    77054.584    62693.352    14421.466       19.321        7.708      481.914      135.728        0.079      342.729       18.341      855.715
05/18/2014  16:30:00     -510.197     -239.068        5.637      279.522      187.329      105.733    78132.779    35092.119    11179.516       22.092        6.220      563.431      120.341        0.046      342.828       18.510      855.708
05/18/2014  16:31:00     -551.837     -173.599      -20.602      224.022      194.873       99.046    50185.660    37975.661     9810.060       21.651        4.899      578.499      116.944        0.041      342.603       18.127      855.735
05/18/2014  16:32:00     -294.443     -163.952       13.050      230.708      195.838      100.772    53225.956    38352.524    10155.061       10.772        5.087      337.012      118.054        0.123      342.653       18.210      855.738
05/18/2014  16:33:00     -534.931     -291.200       -2.203      256.473      196.972      103.100    65778.615    38798.100    10629.509       24.306        5.760      609.056      105.148        0.030      342.505       17.958      855.747
05/18/2014  16:34:00     -361.289     -161.050       -8.264      275.747      188.312       95.422    76036.626    35461.589     9105.435       13.855        6.030      395.559      127.038        0.103      342.571       18.072      855.770
05/18/2014  16:35:00     -316.703     -202.770        2.312      207.017      179.050       99.920    42856.000    32058.904     9983.965       11.314        4.245      376.053      112.327        0.089      342.646       18.199      855.782
05/18/2014  16:36:00     -374.513      -99.797      -12.543      139.234      150.273       78.562    19386.171    22582.001     6172.017        9.925        2.407      387.582       73.497        0.036      342.475       17.907      855.757
05/18/2014  16:37:00     -307.843     -182.454        5.508      239.313      180.962      100.735    57270.559    32747.087    10147.624       11.411        5.008      357.850      113.876        0.101      342.663       18.228      855.712
05/18/2014  16:38:00     -519.375     -242.379       -6.207      253.732      221.012      113.304    64380.142    48846.320    12837.722       22.728        6.303      573.147      129.403        0.051      342.766       18.404      855.727
05/18/2014  16:39:00     -426.561     -179.065      -22.642      258.352      189.137       98.039    66745.627    35772.796     9611.601       16.331        5.607      462.622      110.172        0.057      342.855       18.554      855.755
05/18/2014  16:40:00     -406.521     -198.171      -17.822      223.125      175.744       98.564    49784.711    30886.083     9714.779       14.760        4.519      452.252      109.177        0.058      342.775       18.418      855.749
05/18/2014  16:41:00     -486.170     -141.058      -29.744      261.811      158.395       98.891    68544.926    25089.092     9779.375       18.026        5.171      506.220      103.883        0.042      342.749       18.374      855.786
05/18/2014  16:42:00     -415.102     -110.474        2.767      324.912      217.675      123.085   105568.056    47382.332    15149.950       17.628        8.405      429.551      127.668        0.088      342.683       18.261      855.757
05/18/2014  16:43:00     -416.756      -38.877       -6.443      266.300      186.323       99.910    70915.941    34716.252     9982.064       14.540        5.781      418.566      114.700        0.075      342.853       18.550      855.779
05/18/2014  16:44:00     -250.775     -170.880        6.548      174.922      169.529       95.936    30597.608    28740.240     9203.679        8.032        3.427      303.460       97.673        0.104      342.898       18.628      855.789
05/18/2014  16:45:00     -360.129     -209.736        1.681      211.001      154.143       77.602    44521.497    23760.074     6022.005       12.398        3.715      416.752       92.138        0.049      342.845       18.537      855.776
05/18/2014  16:46:00     -382.456     -230.278       -3.520      178.064      145.766       97.191    31706.626    21247.761     9446.074       13.084        3.120      446.431      101.086        0.051      342.735       18.351      855.790
05/18/2014  16:47:00     -243.841     -236.969       13.785      173.665      184.051       70.721    30159.701    33874.756     5001.496        9.241        3.452      340.019       74.329        0.048      342.672       18.243      855.742
05/18/2014  16:48:00     -318.336     -245.551       -4.568      197.125      178.764       91.378    38858.401    31956.521     8349.874       12.039        3.958      402.036       88.073        0.048      342.566       18.063      855.724
05/18/2014  16:49:00     -202.232     -283.101        9.068      238.017      190.936       96.139    56651.977    36456.445     9242.663       11.172        5.118      347.914       82.349        0.056      342.687       18.269      855.698
05/18/2014  16:50:00     -497.214     -249.147      -34.360      217.747      148.560       95.231    47413.599    22069.997     9068.872       19.450        3.928      556.144      103.722        0.035      342.667       18.235      855.727
05/18/2014  16:51:00     -423.576     -185.736       21.869      347.772      214.154      134.723   120945.403    45861.772    18150.161       19.964        9.248      462.509      161.196        0.121      342.823       18.498      855.642
05/18/2014  16:52:00     -525.018     -193.119      -26.190      245.449      216.276      127.307    60245.134    46775.327    16206.991       21.840        6.161      559.409      113.148        0.041      342.496       17.941      855.704
05/18/2014  16:53:00     -534.318     -295.290      -10.472      255.652      212.655      115.544    65357.894    45221.967    13350.503       24.834        6.197      610.485      118.042        0.037      342.416       17.808      855.743
05/18/2014  16:54:00     -445.358     -264.168      -15.398      289.353      202.968      101.709    83725.299    41196.079    10344.697       20.179        6.763      517.812      116.074        0.050      342.303       17.616      855.720
05/18/2014  16:55:00     -345.607     -173.635        8.216      179.606      144.489       83.217    32258.390    20877.111     6925.117       10.485        3.003      386.773       84.653        0.048      342.391       17.764      855.710
05/18/2014  16:56:00     -404.725      -81.948       -3.355      226.533      192.591       89.275    51317.211    37091.155     7970.093       13.343        4.819      412.938       94.563        0.052      342.491       17.934      855.719
05/18/2014  16:57:00     -197.224     -110.922       27.583      173.262      136.039       91.292    30019.698    18506.534     8334.242        5.440        2.843      226.276       85.714        0.143      342.705       18.299      855.743
05/18/2014  16:58:00     -329.348     -163.587       22.827      240.510      154.518      103.910    57844.959    23875.738    10797.317       11.412        4.626      367.737      130.804        0.127      342.787       18.437      855.752
05/18/2014  16:59:00     -368.004     -184.747       -4.559      207.759      154.844       80.112    43163.730    23976.799     6417.945       12.155        3.678      411.775       79.746        0.038      342.654       18.211      855.776
05/18/2014  17:00:00     -367.398      -81.884      -26.633      146.722      154.268       80.849    21527.381    23798.470     6536.520        9.712        2.593      376.412       80.936        0.046      342.748       18.372      855.759
05/18/2014  17:01:00     -339.793      -54.085        9.284      200.840      122.394       79.483    40336.878    14980.381     6317.555        9.004        3.082      344.070       94.232        0.075      342.756       18.385      855.728
05/18/2014  17:02:00     -355.660     -175.056        0.778      237.290      222.712       85.843    56306.753    49600.427     7368.941       13.518        5.664      396.407      112.920        0.081      342.888       18.610      855.765
05/18/2014  17:03:00     -592.772     -115.291      -19.083      278.946      229.814      111.976    77811.091    52814.264    12538.623       25.407        7.158      603.880      125.294        0.043      342.734       18.348      855.769
05/18/2014  17:04:00     -642.932     -255.359      -29.337      295.006      199.942      112.662    87028.524    39976.877    12692.766       30.954        6.985      691.787      132.567        0.037      342.438       17.844      855.769
05/18/2014  17:05:00     -503.507      -60.116        6.075      246.443      169.523      103.368    60734.345    28738.054    10684.897       17.864        5.008      507.083      119.648        0.056      342.711       18.309      855.844
05/18/2014  17:06:00     -655.873        4.958      -46.040      263.754      191.654      102.872    69565.982    36731.183    10582.653       27.457        5.844      655.892      126.165        0.037      342.414       17.803      855.880
05/18/2014  17:07:00     -454.962     -106.986       -7.017      197.688      164.139       81.112    39080.411    26941.721     6579.075       14.553        3.630      467.372       94.180        0.041      342.330       17.662      855.882
05/18/2014  17:08:00     -294.529      -25.943       17.245      232.818      136.003       82.930    54204.420    18496.949     6877.357        8.363        3.979      295.669      100.225        0.115      342.538       18.015      855.849
05/18/2014  17:09:00     -643.593     -238.427       -9.991      225.014      174.282       97.375    50631.382    30374.242     9481.850       28.081        4.524      686.337      104.190        0.023      342.201       17.443      855.825
05/18/2014  17:10:00     -316.241      -17.404       22.588      249.844      174.990       96.912    62421.982    30621.649     9391.869       10.161        5.122      316.719      107.601        0.115      342.517       17.978      855.884
05/18/2014  17:11:00     -307.364     -127.521       -1.111      197.089      142.778       75.847    38844.150    20385.479     5752.839        8.785        3.249      332.768       83.473        0.063      342.509       17.967      855.884
05/18/2014  17:12:00     -272.982     -154.741       -5.299      251.399      173.921       91.644    63201.433    30248.557     8398.667       10.015        5.092      313.790      108.078        0.119      342.564       18.059      855.897
05/18/2014  17:13:00     -402.546      -41.998      -13.754      226.712      164.441       93.545    51398.419    27040.930     8750.643       12.558        4.359      404.731       97.408        0.058      342.574       18.074      855.944
05/18/2014  17:14:00     -383.778       -5.314      -44.191      234.548      138.670       75.937    55012.776    19229.282     5766.404       11.462        4.000      383.815       80.882        0.044      342.356       17.706      855.966
05/18/2014  17:15:00     -322.334     -105.767       -0.559      200.149      188.202       88.830    40059.808    35420.030     7890.846        9.921        4.169      339.243       97.024        0.082      342.538       18.015      855.953
05/18/2014  17:16:00     -237.564      -97.069       11.325      179.761      152.097       77.833    32313.840    23133.504     6057.976        6.373        3.075      256.630       78.631        0.094      342.427       17.825      855.967
05/18/2014  17:17:00     -411.584      -61.243      -25.578      242.710      134.380       78.490    58908.126    18058.023     6160.656       12.845        4.156      416.116      100.654        0.059      342.414       17.805      855.923
05/18/2014  17:18:00     -595.909      -27.220      -35.782      269.152      191.253      113.275    72442.770    36577.671    12831.168       23.947        6.093      596.531      126.221        0.045      342.279       17.574      855.933
05/18/2014  17:19:00     -387.650     -196.522       -1.102      281.202      224.092       97.830    79074.748    50217.358     9570.776       16.385        6.943      434.618      121.606        0.078      342.356       17.705      855.893
05/18/2014  17:20:00     -435.839     -213.025      -15.965      330.748      215.726      113.793   109393.951    46537.534    12948.873       20.220        8.444      485.113      125.942        0.067      342.492       17.935      855.938
05/18/2014  17:21:00     -341.076     -216.405        6.550      263.379      168.687      110.378    69368.649    28455.286    12183.339       13.659        5.500      403.936      132.253        0.107      342.485       17.926      855.980
05/18/2014  17:22:00     -407.363     -164.929      -12.917      243.613      225.035       95.207    59347.503    50640.915     9064.428       15.616        5.953      439.484      104.150        0.056      342.426       17.823      856.073
05/18/2014  17:23:00     -344.236     -233.254      -14.085      184.636      172.402      103.466    34090.371    29722.427    10705.177       12.380        3.726      415.819      104.652        0.063      342.323       17.648      856.062
05/18/2014  17:24:00     -338.798     -126.254        2.023      195.863      154.140       84.043    38362.211    23759.148     7063.230        9.994        3.459      361.558      101.217        0.078      342.299       17.608      856.064
05/18/2014  17:25:00     -562.383      -50.119      -41.643      225.583      167.273       91.262    50887.502    27980.209     8328.788       20.384        4.360      564.612      108.639        0.037      342.279       17.573      856.066
05/18/2014  17:26:00     -481.590      -97.792       -1.794      287.359      209.800       93.236    82575.158    44015.887     8693.019       18.836        6.764      491.419      107.890        0.048      342.379       17.745      856.067
05/18/2014  17:27:00     -234.337      -70.428      -10.668      189.667      175.491      105.549    35973.435    30797.087    11140.598        6.893        3.896      244.692      120.427        0.242      342.474       17.906      856.106
05/18/2014  17:28:00     -404.204      -31.156      -17.907      159.939      135.193       70.499    25580.599    18277.071     4970.143       10.674        2.441      405.403       45.429        0.013      342.131       17.322      856.087
05/18/2014  17:29:00     -492.957     -125.901      -18.102      184.896      127.661       70.963    34186.688    16297.268     5035.784       15.734        2.776      508.780       73.282        0.021      342.098       17.267      856.040
05/18/2014  17:30:00     -321.817     -201.576       19.122      232.767      171.396       88.072    54180.335    29376.452     7756.611       11.792        4.566      379.736      116.110        0.093      342.322       17.647      856.049
05/18/2014  17:31:00     -493.589     -239.423      -18.583      306.818      217.044      115.275    94137.127    47108.031    13288.295       22.788        7.727      548.592      159.177        0.084      342.324       17.652      856.003
05/18/2014  17:32:00     -498.868      -82.018      -18.976      342.812      307.628      124.441   117519.904    94634.989    15485.649       24.175       11.382      505.566      146.887        0.084      342.425       17.823      856.033
05/18/2014  17:33:00     -360.350     -263.759        4.304      229.096      197.153       93.133    52485.199    38869.218     8673.674       14.971        5.001      446.565      106.486        0.057      342.277       17.571      856.051
05/18/2014  17:34:00     -210.234     -162.312       31.708      208.590      176.362       89.788    43509.940    31103.383     8061.936        7.710        4.134      265.601       82.797        0.097      342.315       17.635      856.056
05/18/2014  17:35:00     -593.371     -343.757      -39.469      274.753      247.604      115.152    75489.278    61307.668    13260.014       31.091        7.503      685.754      106.314        0.024      342.166       17.382      856.062
05/18/2014  17:36:00     -492.453     -295.762       12.113      250.887      178.595      102.396    62944.138    31896.049    10484.913       21.771        5.266      574.444      123.071        0.046      342.167       17.384      856.077
05/18/2014  17:37:00     -460.707     -215.743       -2.891      236.802      161.392      101.830    56075.034    26047.284    10369.290       17.563        4.625      508.719      117.426        0.053      342.234       17.498      856.098
05/18/2014  17:38:00     -459.826     -338.801       -9.309      242.200      201.519      116.133    58660.723    40609.998    13486.977       21.951        5.638      571.162      115.650        0.041      342.081       17.238      856.113
05/18/2014  17:39:00     -469.839     -119.524      -26.798      179.901      175.291       83.649    32364.220    30726.969     6997.166       15.291        3.504      484.804       88.727        0.033      342.169       17.388      856.085
05/18/2014  17:40:00     -365.560     -226.299        0.788      235.139      173.550      102.272    55290.478    30119.632    10459.520       14.034        4.793      429.937      114.827        0.071      342.154       17.361      856.057
05/18/2014  17:41:00     -280.989     -225.469        1.518      174.715      189.345       72.952    30525.305    35851.436     5322.034       10.073        3.585      360.265       81.518        0.051      342.307       17.624      856.032
05/18/2014  17:42:00     -243.207     -240.459       33.090      197.821      163.129       99.261    39133.333    26610.928     9852.699        9.682        3.780      342.009      103.781        0.092      342.077       17.231      856.027
05/18/2014  17:43:00     -252.170     -177.657        5.709      141.264      121.301       65.085    19955.648    14713.916     4236.101        6.704        1.945      308.467       61.048        0.039      342.193       17.429      856.013
05/18/2014  17:44:00     -270.257      -95.451      -26.907      163.216      101.062       61.344    26639.334    10213.552     3763.138        6.174        2.031      286.618       80.100        0.078      342.343       17.683      856.007
05/18/2014  17:45:00     -234.507     -119.034        3.212      183.322      158.355       71.458    33606.960    25076.168     5106.244        6.647        3.189      262.987       82.921        0.099      342.497       17.946      856.010
05/18/2014  17:46:00     -457.862     -196.835      -11.105      209.056      232.721      101.306    43704.601    54158.947    10262.905       17.829        5.406      498.378       98.800        0.039      342.394       17.769      855.980
05/18/2014  17:47:00     -401.140     -185.930        3.808      197.387      169.624       93.226    38961.587    28772.378     8691.151       13.595        3.821      442.135       98.750        0.050      342.447       17.859      856.007
05/18/2014  17:48:00     -474.536     -222.488      -19.646      285.739      205.340      119.679    81646.945    42164.588    14323.093       20.658        6.907      524.104      125.757        0.058      342.269       17.557      855.984
05/18/2014  17:49:00     -655.206     -307.422      -27.950      312.350      284.360      126.250    97562.355    80860.446    15938.943       35.943        9.718      723.743      153.772        0.045      342.109       17.287      856.016
05/18/2014  17:50:00     -311.925     -138.560        5.650      235.417      171.638       96.228    55421.322    29459.531     9259.771       10.532        4.707      341.315      120.964        0.126      342.318       17.640      856.074
05/18/2014  17:51:00     -523.418     -352.348       -2.356      258.630      207.119      130.372    66889.640    42898.206    16996.742       26.243        6.339      630.963      142.474        0.051      342.088       17.249      856.035
05/18/2014  17:52:00     -350.172     -272.753       -0.495      234.740      170.027      116.143    55103.056    28909.268    13489.272       14.724        4.875      443.863      126.334        0.081      342.243       17.513      856.016
05/18/2014  17:53:00     -391.662     -124.161       14.211      264.103      163.482       95.350    69750.188    26726.216     9091.606       13.727        5.278      410.871      120.811        0.086      342.342       17.682      856.042
05/18/2014  17:54:00     -408.541     -146.895      -15.555      214.314      192.624       96.472    45930.675    37104.033     9306.943       14.052        4.617      434.148      110.362        0.065      342.285       17.586      856.062
05/18/2014  17:55:00     -290.740     -203.745       14.463      198.125      183.549      104.547    39253.420    33690.223    10929.994       10.505        4.194      355.024      108.778        0.094      342.279       17.575      856.048
05/18/2014  17:56:00     -433.962     -284.794      -13.195      231.599      230.081       97.241    53638.235    52937.187     9455.802       19.280        5.802      519.067      102.473        0.039      342.101       17.271      856.083
05/18/2014  17:57:00     -534.014     -264.371       -8.810      274.980      220.041      122.342    75614.248    48417.873    14967.495       24.704        6.950      595.872      133.283        0.050      341.970       17.049      856.055
05/18/2014  17:58:00     -409.656     -283.030       -8.744      209.331      170.762      102.505    43819.586    29159.491    10507.252       16.573        4.174      497.919      106.032        0.045      341.986       17.076      856.037
05/18/2014  17:59:00     -195.527     -198.029        5.097      152.704      145.170       74.777    23318.416    21074.312     5591.666        6.372        2.499      278.292       74.366        0.071      342.029       17.151      856.045
05/18/2014  18:00:00     -433.408     -313.660      -30.284      211.611      202.214       92.429    44779.167    40890.645     8543.077       19.066        4.711      535.000       90.087        0.028      342.035       17.159      856.037
05/18/2014  18:01:00     -590.518     -377.641      -27.371      225.346      184.207      100.327    50780.685    33932.070    10065.523       29.341        4.739      700.945       97.450        0.019      341.901       16.933      856.007
05/18/2014  18:02:00     -512.318     -291.849      -16.691      260.428      246.507      103.914    67822.697    60765.558    10798.176       24.363        6.969      589.615      109.000        0.034      341.935       16.991      855.962
05/18/2014  18:03:00     -444.295     -251.007      -13.815      264.593      193.741       94.728    70009.349    37535.750     8973.328       18.853        5.826      510.297      113.334        0.049      341.886       16.905      855.996
05/18/2014  18:04:00     -410.133     -161.338      -19.361      192.589      154.520       75.638    37090.463    23876.427     5721.131       13.064        3.334      440.725       64.892        0.022      342.089       17.253      855.955
05/18/2014  18:05:00     -499.922     -327.446       -3.434      310.888      232.063      129.690    96651.386    53853.392    16819.367       26.221        8.366      597.614      165.314        0.077      341.844       16.836      855.960
05/18/2014  18:06:00     -390.238     -142.648      -16.877      261.623      178.437      112.226    68446.749    31839.593    12594.652       14.288        5.644      415.493      111.235        0.072      342.048       17.182      855.962
05/18/2014  18:07:00     -315.501     -213.765      -13.356      165.961      177.015       85.537    27542.930    31334.472     7316.575       10.579        3.310      381.099       87.247        0.052      342.059       17.200      855.965
05/18/2014  18:08:00     -286.101     -101.874       -0.927      174.640      148.744       67.401    30499.242    22124.890     4542.905        7.469        2.858      303.698       76.193        0.063      342.042       17.171      855.954
05/18/2014  18:09:00     -413.691     -180.018       -1.109      222.434      172.636       90.922    49476.868    29803.144     8266.848       14.553        4.377      451.162      105.481        0.055      342.022       17.138      855.891
05/18/2014  18:10:00     -446.646     -111.627       12.523      287.091      208.807      108.305    82421.489    43600.184    11730.065       17.490        6.888      460.383      139.932        0.092      342.129       17.319      855.900
05/18/2014  18:11:00     -519.365     -395.440      -16.574      279.200      240.216      114.636    77952.548    57703.714    13141.392       28.756        7.440      652.773      134.657        0.043      341.978       17.062      855.870
05/18/2014  18:12:00     -510.122     -416.079      -15.676      303.414      252.955      131.811    92060.313    63986.106    17374.080       30.347        8.671      658.290      148.491        0.051      341.815       16.784      855.875
05/18/2014  18:13:00     -542.630     -403.769       -9.823      298.725      201.017      135.769    89236.848    40407.813    18433.254       30.280        7.404      676.370      151.838        0.050      341.852       16.847      855.874
05/18/2014  18:14:00     -511.355     -325.681       -8.052      269.877      219.471      107.921    72833.443    48167.436    11646.912       25.011        6.632      606.261      120.136        0.039      341.848       16.842      855.930
05/18/2014  18:15:00     -377.691     -229.310       -2.896      202.291      163.209       94.295    40921.485    26637.161     8891.572       13.583        3.823      441.852       84.223        0.036      341.865       16.869      855.943
05/18/2014  18:16:00     -549.535     -203.880      -19.173      284.654      236.213      119.269    81027.766    55796.567    14225.019       24.746        7.552      586.136      129.753        0.049      341.827       16.808      855.932
05/18/2014  18:17:00     -313.888     -145.314       14.096      259.933      196.443      127.607    67565.010    38589.984    16283.425       12.112        6.122      345.893      147.417        0.182      341.939       16.996      855.932
05/18/2014  18:18:00     -526.029     -209.340      -38.734      214.896      155.863       94.468    46180.410    24293.130     8924.224       20.070        3.970      566.153       91.060        0.026      341.951       17.017      855.978
05/18/2014  18:19:00     -679.792     -293.437      -24.873      269.817      199.356      112.218    72801.364    39742.891    12592.918       33.696        6.257      740.420      128.147        0.030      341.839       16.827      855.996
05/18/2014  18:20:00     -514.632     -102.078       -4.406      294.478      198.709      116.386    86717.232    39485.129    13545.606       20.749        6.987      524.658      147.226        0.079      341.866       16.874      855.989
05/18/2014  18:21:00     -452.385     -213.550      -19.740      257.093      223.206      116.517    66096.755    49820.901    13576.275       19.004        6.475      500.256      119.053        0.057      341.860       16.863      855.974
05/18/2014  18:22:00     -435.514     -305.297      -15.314      221.635      186.107      106.338    49122.200    34635.750    11307.725       18.907        4.753      531.863       99.595        0.035      341.765       16.701      855.967
05/18/2014  18:23:00     -476.035     -226.852      -15.057      331.622      193.536      119.533   109973.195    37456.011    14288.034       21.998        8.086      527.324      143.842        0.074      341.859       16.860      855.992
05/18/2014  18:24:00     -476.105     -280.783       -7.209      260.623      198.009      105.433    67924.549    39207.494    11116.142       21.188        5.912      552.735      106.619        0.037      341.711       16.610      856.021
05/18/2014  18:25:00     -468.262     -336.866      -13.989      252.807      214.987      102.353    63911.239    46219.423    10476.047       22.675        6.030      576.843      101.602        0.031      341.781       16.727      856.025
05/18/2014  18:26:00     -732.097     -478.991      -29.502      288.603      216.559      121.076    83291.591    46897.836    14659.373       45.553        7.242      874.871      135.929        0.024      341.648       16.505      855.989
05/18/2014  18:27:00     -603.893     -329.831      -10.113      287.292      189.652      118.724    82536.708    35968.056    14095.499       30.306        6.630      688.095      137.028        0.040      341.738       16.654      856.022
05/18/2014  18:28:00     -438.259     -217.723        7.524      229.652      196.316      108.159    52740.079    38539.958    11698.324       17.123        5.149      489.362      103.357        0.045      341.709       16.607      856.065
05/18/2014  18:29:00     -424.860     -175.809       -9.278      237.638      188.208      103.483    56471.990    35422.270    10708.680       15.703        5.130      459.799      109.142        0.056      341.689       16.573      856.030
05/18/2014  18:30:00     -420.771     -208.202       -8.116      182.010      152.248       84.194    33127.611    23179.451     7088.662       14.192        3.170      469.464       83.598        0.032      341.757       16.688      856.038
05/18/2014  18:31:00     -308.384     -198.629       -6.132      213.003      191.599       92.805    45370.266    36710.340     8612.750       11.262        4.535      366.817      105.701        0.083      341.894       16.921      856.062
05/18/2014  18:32:00     -345.133     -271.035       -6.842      183.207      177.190       95.002    33564.813    31396.349     9025.402       13.329        3.699      438.836       94.855        0.047      341.865       16.870      856.108
05/18/2014  18:33:00     -324.219     -279.459        7.233      284.558      282.913      132.687    80973.206    80039.662    17605.743       18.091        8.931      428.037      154.704        0.131      341.831       16.813      856.065
05/18/2014  18:34:00     -330.348      -83.469       29.431      262.505      190.618      107.627    68909.109    36335.228    11583.493       11.687        5.841      340.730      129.378        0.144      341.918       16.962      856.087
05/18/2014  18:35:00     -395.964     -243.548       16.311      274.942      185.346      102.170    75593.130    34352.964    10438.746       16.835        6.019      464.869      136.771        0.087      341.759       16.691      856.118
05/18/2014  18:36:00     -617.275     -315.349      -10.870      352.684      210.528      128.061   124385.670    44321.855    16399.617       33.281        9.255      693.162      166.805        0.058      341.593       16.408      856.128
05/18/2014  18:37:00     -571.803     -199.023      -13.249      237.659      206.096       99.105    56481.959    42475.642     9821.755       23.774        5.439      605.449      117.416        0.038      341.604       16.428      856.124
05/18/2014  18:38:00     -574.278     -264.934      -29.631      342.165      270.619      102.382   117076.784    73234.410    10482.049       30.079       10.040      632.444      113.318        0.032      341.623       16.460      856.176
05/18/2014  18:39:00     -550.713     -322.018      -27.141      271.509      247.285      123.957    73717.397    61149.881    15365.325       27.895        7.512      637.951      142.851        0.050      341.562       16.358      856.185
05/18/2014  18:40:00     -536.791     -356.481       -8.527      223.416      210.131      122.843    49914.633    44155.123    15090.297       26.221        5.458      644.378      123.301        0.037      341.458       16.181      856.192
05/18/2014  18:41:00     -506.380     -351.687      -25.347      233.183      176.070      101.463    54374.226    31000.582    10294.683       23.819        4.783      616.526       96.220        0.024      341.478       16.214      856.211
05/18/2014  18:42:00     -517.772     -335.942      -10.297      269.656      179.964      107.702    72714.461    32387.175    11599.826       24.885        5.835      617.207      119.206        0.037      341.407       16.095      856.206
05/18/2014  18:43:00     -421.784     -283.257       17.757      278.815      233.405      120.271    77737.736    54477.754    14465.140       20.254        7.334      508.071      147.902        0.085      341.465       16.192      856.221
05/18/2014  18:44:00     -523.250     -271.797      -15.623      290.564      221.496      111.664    84427.522    49060.261    12468.771       24.690        7.298      589.631      123.038        0.044      341.495       16.243      856.228
05/18/2014  18:45:00     -499.760     -245.146      -10.649      241.744      163.355      109.409    58440.153    26684.719    11970.312       20.351        4.855      556.648      111.936        0.040      341.483       16.222      856.242
05/18/2014  18:46:00     -514.853     -302.825       -2.026      298.102      228.692      116.700    88864.928    52300.132    13618.857       25.575        7.739      597.308      132.795        0.049      341.423       16.123      856.230
05/18/2014  18:47:00     -369.759     -216.427        3.242      260.902      197.072      121.908    68069.685    38837.234    14861.455       15.265        6.088      428.442      137.367        0.103      341.509       16.268      856.261
05/18/2014  18:48:00     -322.225     -174.521        3.574      240.371      182.586       95.215    57778.099    33337.539     9065.976       11.722        5.009      366.451      127.387        0.121      341.534       16.310      856.258
05/18/2014  18:49:00     -248.120     -192.454       13.641      175.787      150.373       85.110    30901.067    22611.940     7243.711        7.976        3.038      314.010       97.618        0.097      341.592       16.409      856.261
05/18/2014  18:50:00     -574.749     -316.792      -23.915      245.405      212.559      103.085    60223.499    45181.430    10626.546       27.363        5.802      656.272      100.910        0.024      341.514       16.276      856.284
05/18/2014  18:51:00     -471.225     -303.617       -9.134      243.663      252.789      106.594    59371.721    63902.355    11362.271       22.445        6.732      560.568      134.629        0.058      341.453       16.172      856.277
05/18/2014  18:52:00     -528.756     -321.880        0.739      300.366      302.739      136.728    90219.789    91650.802    18694.598       29.184       10.028      619.023      173.166        0.078      341.361       16.017      856.271
05/18/2014  18:53:00     -558.777     -163.786      -12.570      264.053      203.263      114.495    69724.207    41315.905    13109.161       23.166        6.207      582.286      134.514        0.053      341.362       16.018      856.256
05/18/2014  18:54:00     -299.204     -253.096       -8.602      233.407      171.394      101.054    54478.732    29375.742    10211.952       12.384        4.703      391.894      109.015        0.077      341.486       16.228      856.271
05/18/2014  18:55:00     -568.323     -267.014       -5.720      350.277      259.899      128.204   122694.115    67547.680    16436.309       30.046       10.334      627.923      153.505        0.060      341.358       16.012      856.235
05/18/2014  18:56:00     -598.539     -179.807      -26.325      231.859      244.057      114.963    53758.434    59563.604    13216.521       25.888        6.327      624.964      114.973        0.034      341.411       16.101      856.255
05/18/2014  18:57:00     -685.984     -344.462      -31.031      305.981      247.025      117.373    93624.297    61021.192    13776.405       37.927        8.421      767.612      136.788        0.032      341.300       15.914      856.239
05/18/2014  18:58:00     -608.436     -282.014      -13.858      295.248      262.191      111.341    87171.374    68744.218    12396.884       30.908        8.416      670.617      128.110        0.036      341.259       15.845      856.240
05/18/2014  18:59:00     -636.815     -270.782       -6.954      298.276      176.721      112.770    88968.831    31230.320    12717.030       30.588        6.646      691.994      139.339        0.041      341.278       15.877      856.254
05/18/2014  19:00:00     -371.800     -283.159       -2.661      242.099      173.610      110.798    58611.988    30140.497    12276.208       15.970        5.051      467.348      129.724        0.077      341.317       15.944      856.244
05/18/2014  19:01:00     -542.978     -237.009      -23.969      283.049      217.044      112.117    80116.713    47108.104    12570.315       24.566        6.990      592.451      120.854        0.042      341.366       16.025      856.235
05/18/2014  19:02:00     -452.157     -317.067      -19.158      228.399      187.048      112.387    52165.914    34987.009    12630.789       20.254        4.989      552.248      108.442        0.039      341.332       15.967      856.246
05/18/2014  19:03:00     -444.815     -287.472       -1.485      192.276      171.442       97.922    36970.123    29392.293     9588.665       17.821        3.798      529.623      103.872        0.038      341.337       15.976      856.271
05/18/2014  19:04:00     -424.410     -196.750       -7.810      229.155      161.055       99.391    52512.145    25938.602     9878.652       15.359        4.416      467.798      110.444        0.056      341.340       15.981      856.289
05/18/2014  19:05:00     -532.721     -197.533       -3.721      293.175      188.980       97.399    85951.311    35713.300     9486.636       22.696        6.558      568.164      112.585        0.039      341.326       15.958      856.281
05/18/2014  19:06:00     -647.294     -361.372        6.775      357.241      254.683      118.070   127621.286    64863.523    13940.563       37.798       10.321      741.336      154.460        0.043      341.199       15.741      856.262
05/18/2014  19:07:00     -586.841     -337.726      -13.928      357.181      263.504      118.594   127578.335    69434.313    14064.490       33.481       10.554      677.083      160.600        0.056      341.197       15.740      856.226
05/18/2014  19:08:00     -377.920     -287.365        0.460      282.641      207.632      116.402    79885.965    43111.140    13549.515       18.095        6.827      474.766      142.685        0.090      341.281       15.882      856.276
05/18/2014  19:09:00     -276.578     -214.080       15.170      215.478      177.996       96.684    46430.658    31682.494     9347.833       10.499        4.373      349.751       98.195        0.079      341.301       15.915      856.258
05/18/2014  19:10:00     -509.134     -166.106      -34.412      324.857      195.961      117.181   105531.828    38400.603    13731.452       22.280        7.883      535.545      121.163        0.051      341.232       15.798      856.265
05/18/2014  19:11:00     -429.846     -181.514      -11.600      313.610      196.949      105.782    98351.245    38788.876    11189.785       18.306        7.416      466.599      138.026        0.088      341.266       15.855      856.268
05/18/2014  19:12:00     -259.499     -202.255       -0.706      191.760      182.696       88.421    36772.067    33377.964     7818.310        9.309        3.898      329.009      104.209        0.100      341.302       15.918      856.248
05/18/2014  19:13:00     -339.116      -34.956        2.786      165.493      145.702       83.907    27388.056    21229.059     7040.409        8.593        2.783      340.913       90.090        0.070      341.328       15.963      856.277
05/18/2014  19:14:00     -375.477     -189.760      -19.031      206.063      162.348       86.264    42462.033    26356.962     7441.534       12.679        3.813      420.704      100.613        0.057      341.282       15.883      856.268
05/18/2014  19:15:00     -473.962     -136.102       -1.905      250.426      221.886      100.875    62713.395    49233.489    10175.708       18.262        6.106      493.116      106.816        0.047      341.249       15.828      856.272
05/18/2014  19:16:00     -508.428     -150.964      -10.143      254.193      169.433      108.736    64613.930    28707.486    11823.489       19.325        5.257      530.367      125.147        0.056      341.169       15.692      856.250
05/18/2014  19:17:00     -466.997     -213.731      -15.920      221.482      212.233       87.055    49054.065    45042.655     7578.526       18.283        5.084      513.582      102.687        0.040      341.197       15.739      856.230
05/18/2014  19:18:00     -426.548     -189.614      -15.665      261.762      174.400      107.922    68519.395    30415.516    11647.242       16.434        5.529      466.794      116.720        0.063      341.209       15.760      856.234
05/18/2014  19:19:00     -573.934     -302.968      -23.348      342.353      281.223      146.501   117205.660    79086.326    21462.462       31.970       10.888      648.991      162.937        0.063      341.129       15.623      856.188
05/18/2014  19:20:00     -488.312     -155.848       15.537      225.464      180.019      105.565    50833.993    32406.992    11143.873       17.866        4.719      512.579      119.087        0.054      341.192       15.731      856.222
05/18/2014  19:21:00     -605.613     -254.022        5.815      329.787      223.308      128.661   108759.309    49866.516    16553.720       30.322        8.759      656.731      159.287        0.059      341.099       15.573      856.233
05/18/2014  19:22:00     -411.042     -245.222       14.019      264.162      237.665      128.061    69781.314    56484.484    16399.556       18.595        7.133      478.632      140.729        0.086      341.071       15.527      856.209
05/18/2014  19:23:00     -414.081     -276.096       -5.875      267.064      189.945      108.432    71323.212    36079.139    11757.401       18.342        5.958      497.686      119.198        0.057      341.088       15.554      856.218
05/18/2014  19:24:00     -489.303     -292.679       -5.770      287.988      189.848      116.752    82937.081    36042.149    13631.039       22.883        6.631      570.156      120.740        0.045      341.064       15.515      856.213
05/18/2014  19:25:00     -464.309     -374.213       -6.201      298.651      199.903      112.005    89192.709    39961.123    12545.165       24.865        7.085      596.338      128.470        0.046      341.071       15.526      856.237
05/18/2014  19:26:00     -307.064     -103.570       -6.133      239.954      142.749       94.283    57577.906    20377.392     8889.311        9.593        4.342      324.061      101.407        0.098      341.130       15.627      856.258
05/18/2014  19:27:00     -242.552     -198.941       -0.456      188.523      180.982       97.145    35540.990    32754.426     9437.191        8.806        3.887      313.701       97.256        0.096      341.119       15.608      856.240
05/18/2014  19:28:00     -345.333     -230.452       14.263      239.330      201.701       80.961    57278.771    40683.163     6554.727       13.852        5.226      415.166       89.941        0.047      341.079       15.540      856.248
05/18/2014  19:29:00     -515.064     -158.569       -1.194      222.491      198.952       91.232    49502.280    39581.995     8323.314       19.390        4.870      538.921       96.591        0.032      341.028       15.452      856.252
05/18/2014  19:30:00     -392.377     -300.946       -9.850      210.692      211.701       99.641    44391.264    44817.504     9928.336       17.186        4.957      494.498      103.282        0.044      340.998       15.403      856.267
05/18/2014  19:31:00     -461.591     -238.880      -14.080      212.172      137.559       79.000    45016.967    18922.481     6240.966       17.024        3.509      519.740       83.361        0.026      340.995       15.398      856.307
05/18/2014  19:32:00     -394.189     -223.678       15.000      249.097      197.318      104.697    62049.512    38934.564    10961.478       15.877        5.597      453.229      131.463        0.084      340.979       15.370      856.323
05/18/2014  19:33:00     -458.832     -173.544       -3.090      168.932      112.919       81.888    28538.179    12750.744     6705.692       14.431        2.400      490.555       88.326        0.032      340.980       15.371      856.368
05/18/2014  19:34:00     -250.187      -94.408       -0.289      146.800      133.401       78.299    21550.179    17795.836     6130.735        5.848        2.274      267.407       75.607        0.080      341.014       15.431      856.385
05/18/2014  19:35:00     -374.221      -37.217      -12.788      195.943      138.171       87.939    38393.712    19091.189     7733.189       10.339        3.261      376.067       89.938        0.057      340.987       15.382      856.388
05/18/2014  19:36:00     -300.602     -158.507       -0.418      175.712      173.383       85.780    30874.559    30061.833     7358.190        9.188        3.415      339.833       78.232        0.053      340.988       15.386      856.391
05/18/2014  19:37:00     -404.048     -192.291      -21.094      230.991      176.567       85.228    53356.801    31175.874     7263.864       14.622        4.590      447.472      101.782        0.052      340.954       15.327      856.429
05/18/2014  19:38:00     -316.281     -223.106       -5.299      223.392      134.060       90.741    49903.943    17972.052     8234.014       11.296        3.806      387.053      102.895        0.071      340.936       15.298      856.437
05/18/2014  19:39:00     -256.920     -138.070       -4.335      142.314      150.333       81.692    20253.295    22599.917     6673.664        6.730        2.476      291.670       83.185        0.081      340.915       15.262      856.465
05/18/2014  19:40:00     -407.722      -98.671       -8.408      204.586      141.985       78.100    41855.394    20159.828     6099.648       12.207        3.406      419.492       86.981        0.043      340.888       15.217      856.508
05/18/2014  19:41:00     -255.350      -87.680       19.140      193.061      160.391       86.221    37272.516    25725.408     7434.084        7.183        3.522      269.984       89.943        0.111      340.887       15.215      856.537
05/18/2014  19:42:00     -228.773      -92.632      -11.657      137.260      138.172       64.159    18840.372    19091.402     4116.404        5.154        2.102      246.815       62.749        0.065      340.892       15.224      856.550
05/18/2014  19:43:00     -237.792      -82.355        1.665      135.895      114.145       62.567    18467.419    13029.066     3914.595        4.936        1.771      251.649       46.485        0.034      340.852       15.155      856.566
05/18/2014  19:44:00     -271.191      -93.408        6.450      177.015      144.676       74.331    31334.259    20931.216     5525.109        7.004        2.890      286.826       93.677        0.107      340.840       15.134      856.594
05/18/2014  19:45:00     -165.576      -81.898       -4.595      120.920       95.807       47.785    14621.663     9179.058     2283.410        3.011        1.304      184.724       52.685        0.081      340.882       15.207      856.627
05/18/2014  19:46:00     -383.315     -100.022       -9.146      196.880      122.680       67.845    38761.845    15050.489     4602.925       10.770        2.921      396.150       77.704        0.038      340.816       15.093      856.644
05/18/2014  19:47:00     -333.080     -129.537       -6.102      125.181      101.113       66.494    15670.207    10223.825     4421.419        7.903        1.516      357.382       66.808        0.035      340.815       15.093      856.680
05/18/2014  19:48:00     -154.383      -56.277        5.140      132.322       67.328       58.002    17509.103     4533.049     3364.239        2.621        1.270      164.321       65.536        0.159      340.850       15.153      856.681
05/18/2014  19:49:00     -223.837      -55.773       -6.235      115.712       92.716       56.200    13389.159     8596.273     3158.488        3.919        1.257      230.681       59.023        0.065      340.861       15.172      856.708
05/18/2014  19:50:00     -138.929      -71.907       -5.362      136.188      108.709       60.653    18547.072    11817.644     3678.818        2.927        1.702      156.435       54.003        0.119      340.790       15.052      856.706
05/18/2014  19:51:00     -283.315      -22.085      -14.642      124.370      125.662       55.375    15467.948    15790.842     3066.441        5.764        1.716      284.174       50.506        0.032      340.792       15.056      856.725
05/18/2014  19:52:00     -286.261      -91.026       -1.819      163.737      143.964       83.141    26809.650    20725.603     6912.432        7.233        2.722      300.385       88.331        0.086      340.733       14.955      856.698
05/18/2014  19:53:00     -184.333      -47.677        1.554      136.913      124.993       67.809    18745.101    15623.326     4598.031        3.760        1.948      190.399       55.587        0.085      340.707       14.912      856.718
05/18/2014  19:54:00     -257.014      -87.639        2.109      179.022      157.920       88.556    32048.928    24938.684     7842.208        6.927        3.241      271.545      100.737        0.138      340.697       14.893      856.711
05/18/2014  19:55:00     -286.372      -55.628       -6.422      138.418      122.054       69.050    19159.617    14897.150     4767.884        6.198        1.941      291.725       73.078        0.063      340.669       14.845      856.735
05/18/2014  19:56:00     -182.708      -83.477        7.197      133.286       96.880       65.488    17765.157     9385.736     4288.671        3.591        1.572      200.875       74.991        0.139      340.675       14.856      856.752
05/18/2014  19:57:00     -257.356      -40.370        0.934      176.427      124.052       77.971    31126.629    15389.008     6079.507        6.022        2.630      260.503       87.005        0.112      340.639       14.795      856.740
05/18/2014  19:58:00     -320.949     -109.765       -8.977      206.341      129.510       86.225    42576.684    16772.799     7434.801        9.095        3.339      339.200       93.332        0.076      340.613       14.750      856.750
05/18/2014  19:59:00     -361.405      -92.943       -6.405      159.325      140.956       72.047    25384.387    19868.702     5190.798        9.486        2.522      373.165       73.549        0.039      340.616       14.756      856.740
05/18/2014  20:00:00     -404.567     -218.416       -5.169      278.592      186.979      100.481    77613.260    34961.095    10096.396       16.701        6.134      459.760      106.441        0.054      340.602       14.732      856.729
05/18/2014  20:01:00     -410.025     -254.371      -15.563      265.094      174.127      107.607    70274.711    30320.178    11579.322       17.260        5.609      482.519      133.665        0.077      340.595       14.720      856.689
05/18/2014  20:02:00     -395.102     -118.771      -10.094      201.315      150.211       73.495    40527.849    22563.286     5401.566       11.939        3.425      412.568       68.546        0.028      340.588       14.710      856.700
05/18/2014  20:03:00     -364.794     -151.732      -11.872      230.650      177.452       96.020    53199.395    31489.330     9219.784       12.505        4.695      395.092       83.986        0.045      340.564       14.667      856.666
05/18/2014  20:04:00     -355.284     -271.975       14.807      278.340      185.022      102.871    77473.161    34233.083    10582.427       16.133        6.114      447.434      118.816        0.071      340.543       14.632      856.650
05/18/2014  20:05:00     -255.605     -200.671        6.080      253.714      185.628      110.812    64370.579    34457.866    12279.277       10.835        5.555      324.966      129.116        0.158      340.550       14.646      856.633
05/18/2014  20:06:00     -415.307     -213.391       -4.665      208.353      166.852      104.710    43410.807    27839.610    10964.267       15.011        4.111      466.921       97.852        0.044      340.508       14.574      856.653
05/18/2014  20:07:00     -367.163     -155.736       -6.417      176.566      127.945       73.621    31175.377    16369.997     5420.009       10.602        2.648      398.826       73.190        0.034      340.527       14.606      856.663
05/18/2014  20:08:00     -342.743     -206.190       -1.825      157.786      151.984       91.962    24896.350    23099.098     8457.031       10.821        2.823      399.984       95.103        0.057      340.484       14.533      856.668
05/18/2014  20:09:00     -296.735     -190.214      -12.268      144.575      140.568       73.785    20902.059    19759.380     5444.172        8.524        2.305      352.467       65.268        0.034      340.482       14.529      856.699
05/18/2014  20:10:00     -310.805      -50.590      -13.880      163.525      126.535       85.775    26740.580    16011.197     7357.267        7.472        2.505      314.895       83.324        0.070      340.505       14.568      856.715
05/18/2014  20:11:00     -342.236      -58.222       -7.350      204.516      208.810       89.942    41826.675    43601.620     8089.593       10.702        4.676      347.154       97.540        0.079      340.451       14.479      856.739
05/18/2014  20:12:00     -346.476     -140.300      -15.726      228.952      146.801       75.429    52418.810    21550.425     5689.576       10.980        3.983      373.804       84.582        0.051      340.463       14.498      856.758
05/18/2014  20:13:00     -468.010      -82.366      -24.004      170.219      149.016       93.078    28974.493    22205.684     8663.473       14.311        2.992      475.202       97.414        0.042      340.433       14.448      856.772
05/18/2014  20:14:00     -403.607      -84.172      -11.001      193.000      128.536       85.584    37249.165    16521.599     7324.546       11.559        3.055      412.290      104.730        0.065      340.390       14.376      856.810
05/18/2014  20:15:00     -327.663      -80.094       11.348      194.581      122.113       76.380    37861.802    14911.538     5833.943        8.625        2.930      337.310       83.820        0.062      340.392       14.379      856.853
05/18/2014  20:16:00     -409.760      -60.955       -6.330      214.918      146.196       83.880    46189.569    21373.348     7035.888       12.311        3.730      414.269      101.658        0.060      340.368       14.337      856.880
05/18/2014  20:17:00     -367.358      -87.889       -2.325      260.985      135.634       84.697    68112.927    18396.680     7173.504       11.816        4.684      377.726      104.325        0.076      340.366       14.336      856.888
05/18/2014  20:18:00     -292.303       -9.131      -21.117      146.862      113.616       67.631    21568.377    12908.581     4573.919        6.250        1.953      292.445       77.258        0.070      340.367       14.337      856.900
05/18/2014  20:19:00     -242.282      -44.465        0.531      127.292      116.439       65.707    16203.239    13557.936     4317.440        4.737        1.704      246.329       70.106        0.081      340.397       14.385      856.908
05/18/2014  20:20:00     -342.871      -20.287      -12.633      135.366      118.047       74.170    18323.881    13935.123     5501.225        7.794        1.888      343.471       70.535        0.042      340.347       14.301      856.923
05/18/2014  20:21:00     -313.494      -11.035      -15.717      141.707       92.070       65.996    20080.746     8476.825     4355.447        6.577        1.646      313.688       59.887        0.036      340.343       14.295      856.934
05/18/2014  20:22:00     -300.614      -67.461        3.775      117.838       93.756       61.983    13885.803     8790.248     3841.850        6.072        1.326      308.090       63.164        0.042      340.313       14.243      856.954
05/18/2014  20:23:00     -264.168      -36.412        1.666      145.453      127.080       71.384    21156.642    16149.332     5095.721        5.675        2.120      266.665       74.796        0.079      340.297       14.218      856.959
05/18/2014  20:24:00     -249.921     -164.806       -6.229      137.723      144.242       76.510    18967.575    20805.744     5853.847        6.763        2.281      299.369       78.094        0.068      340.301       14.225      856.977
05/18/2014  20:25:00     -251.702      -54.499       -4.936      122.788      109.965       60.705    15076.865    12092.394     3685.116        4.860        1.543      257.535       63.867        0.062      340.287       14.200      856.981
05/18/2014  20:26:00     -308.724      -77.739        7.864      132.930      116.808       59.757    17670.385    13644.183     3570.903        6.814        1.744      318.362       63.257        0.039      340.228       14.101      857.007
05/18/2014  20:27:00     -430.386     -134.943       -3.076      239.129      170.991       90.898    57182.542    29238.036     8262.437       14.905        4.734      451.045      102.281        0.051      340.211       14.072      856.978
05/18/2014  20:28:00     -352.096      -28.567        0.540      128.848      135.473       70.346    16601.913    18352.987     4948.589        8.234        1.995      353.253       74.991        0.045      340.239       14.118      856.981
05/18/2014  20:29:00     -266.398     -148.323       -7.863      158.915      128.052       65.419    25253.864    16397.411     4279.680        6.947        2.297      304.906       67.956        0.050      340.216       14.081      857.003
05/18/2014  20:30:00     -433.097      -63.179      -33.796      206.406      153.602       87.526    42603.557    23593.509     7660.762       13.327        3.693      437.681       90.052        0.042      340.216       14.080      856.983
05/18/2014  20:31:00     -345.635     -101.185       -2.175      217.464      146.390       80.250    47290.463    21429.987     6440.006       10.242        3.758      360.142      102.281        0.081      340.197       14.046      856.984
05/18/2014  20:32:00     -296.141      -86.617       17.021      170.326      156.021       84.916    29011.050    24342.688     7210.746        7.802        3.028      308.548      101.002        0.107      340.192       14.041      856.995
05/18/2014  20:33:00     -351.712      -36.806        2.591      171.234      126.575       69.483    29320.951    16021.280     4827.847        8.761        2.509      353.633       78.923        0.050      340.227       14.098      856.982
05/18/2014  20:34:00     -303.152      -16.648       -8.116      156.295      116.130       69.706    24427.988    13486.232     4858.890        6.750        2.139      303.609       76.953        0.064      340.206       14.062      856.978
05/18/2014  20:35:00     -186.130      -33.298       14.231      154.864       99.362       66.076    23982.737     9872.770     4366.091        3.708        1.911      189.085       55.408        0.086      340.214       14.079      856.977
05/18/2014  20:36:00     -194.256     -113.098        2.506      142.642      109.912       66.572    20346.674    12080.633     4431.876        4.369        1.843      224.781       71.314        0.101      340.168       14.000      856.967
05/18/2014  20:37:00     -193.550     -100.568        2.969      142.549       83.787       63.112    20320.088     7020.229     3983.111        3.945        1.566      218.118       68.522        0.099      340.173       14.008      856.951
05/18/2014  20:38:00     -213.593     -100.587        7.410      148.846      109.187       62.540    22155.076    11921.757     3911.245        4.688        1.899      236.093       53.294        0.051      340.153       13.976      856.957
05/18/2014  20:39:00     -298.825     -127.179        1.182      159.569      102.560       62.542    25462.340    10518.590     3911.463        7.267        1.995      324.763       70.792        0.048      340.102       13.888      856.937
05/18/2014  20:40:00     -396.012     -159.646        0.108      185.792      143.381       75.556    34518.730    20558.175     5708.719       12.154        3.039      426.980       79.951        0.035      340.079       13.848      856.949
05/18/2014  20:41:00     -351.647     -135.935      -12.590      144.795      143.493       67.623    20965.646    20590.322     4572.859        9.420        2.306      377.006       76.338        0.041      340.070       13.835      856.963
05/18/2014  20:42:00     -294.973     -116.895        5.002      151.019      133.764       68.773    22806.740    17892.791     4729.688        7.305        2.271      317.290       74.387        0.055      340.084       13.859      856.986
05/18/2014  20:43:00     -263.791     -100.781        5.805      210.548      135.882       86.556    44330.618    18463.956     7491.898        7.502        3.514      282.387      101.350        0.129      340.080       13.851      856.984
05/18/2014  20:44:00     -422.624     -201.506       -3.998      225.665      176.572      109.508    50924.495    31177.501    11992.101       15.664        4.705      468.205      123.333        0.069      340.061       13.820      857.006
05/18/2014  20:45:00     -357.849     -223.808        2.030      229.923      142.220       97.813    52864.498    20226.422     9567.378       13.039        4.133      422.074      103.017        0.060      340.075       13.842      856.984
05/18/2014  20:46:00     -281.204      -81.131        7.219      165.426      163.197       72.273    27365.759    26633.134     5223.449        7.245        2.961      292.674       85.068        0.084      340.090       13.868      857.027
05/18/2014  20:47:00     -278.997     -137.344        6.849      180.853      116.292       73.985    32707.745    13523.905     5473.786        7.422        2.585      310.971       76.474        0.060      340.058       13.814      857.034
05/18/2014  20:48:00     -313.184      -91.680       -3.481      188.852      121.844       83.934    35665.220    14845.895     7044.978        8.202        2.878      326.327       94.991        0.085      340.045       13.791      857.067
05/18/2014  20:49:00     -259.777     -127.533        5.499      147.589      163.730       71.398    21782.474    26807.526     5097.678        6.872        2.684      289.393       81.436        0.079      340.043       13.787      857.082
05/18/2014  20:50:00     -177.188      -75.865        4.805      121.864      105.732       70.717    14850.718    11179.251     5000.833        3.410        1.552      192.746       75.477        0.153      340.045       13.791      857.099
05/18/2014  20:51:00     -200.870     -136.492        0.664      143.642      116.809       71.835    20632.999    13644.384     5160.266        4.920        1.972      242.855       70.870        0.085      339.985       13.689      857.109
05/18/2014  20:52:00     -373.975      -69.369       -9.331      286.365      122.435       71.823    82004.891    14990.223     5158.504       12.343        5.108      380.354       98.092        0.067      340.019       13.748      857.103
05/18/2014  20:53:00     -223.052      -59.196       13.856      140.121      132.219       73.007    19633.926    17481.766     5330.054        4.794        2.122      230.773       82.307        0.127      340.032       13.769      857.116
05/18/2014  20:54:00     -254.825     -121.249       -7.584      106.791      106.500       49.009    11404.372    11342.145     2401.886        5.242        1.257      282.200       41.046        0.021      339.970       13.666      857.127
05/18/2014  20:55:00     -170.450      -63.541        1.777      154.831       83.423       59.556    23972.748     6959.477     3546.896        3.378        1.724      181.909       70.796        0.151      339.980       13.684      857.128
05/18/2014  20:56:00     -267.860      -17.885        3.399      179.128       97.102       76.742    32086.668     9428.841     5889.330        5.973        2.370      268.456       90.427        0.113      339.992       13.703      857.137
05/18/2014  20:57:00     -254.407     -164.778       -5.223      132.075      114.126       71.445    17443.935    13024.813     5104.340        6.373        1.779      303.109       67.303        0.049      339.936       13.608      857.142
05/18/2014  20:58:00     -349.832     -232.319      -20.269      148.784      107.557       67.461    22136.533    11568.477     4550.933       10.750        1.913      419.946       68.276        0.026      339.932       13.601      857.125
05/18/2014  20:59:00     -211.241     -144.555       -8.049      110.631       96.239       61.407    12239.281     9261.862     3770.801        4.542        1.264      255.966       60.059        0.055      339.958       13.645      857.127
05/18/2014  21:00:00     -328.733     -207.668       -1.329      184.534      110.446       72.225    34052.667    12198.314     5216.505       10.132        2.573      388.834       90.847        0.055      339.922       13.583      857.119
05/18/2014  21:01:00     -264.644     -162.493       -3.466      191.983      161.592       79.813    36857.537    26112.028     6370.107        8.288        3.467      310.548       95.524        0.095      339.944       13.621      857.125
05/18/2014  21:02:00     -143.406      -55.831        1.678      126.315       79.094       62.022    15955.482     6255.786     3846.669        2.487        1.303      153.890       70.919        0.212      339.932       13.601      857.145
05/18/2014  21:03:00     -295.332     -145.557       -3.822      182.107      146.788       86.230    33163.055    21546.588     7435.696        8.527        3.107      329.254      111.136        0.114      339.877       13.507      857.149
05/18/2014  21:04:00     -280.086     -126.304      -11.963      157.437       87.396       60.846    24786.544     7638.078     3702.205        6.533        1.806      307.247       66.277        0.047      339.885       13.521      857.172
05/18/2014  21:05:00     -230.893      -49.832       -9.772      155.005      106.287       66.265    24026.659    11296.959     4391.098        4.779        1.986      236.209       76.621        0.105      339.938       13.613      857.190
05/18/2014  21:06:00     -297.407     -105.623        5.953      176.536      111.832       61.825    31165.128    12506.342     3822.376        7.356        2.375      315.605       75.976        0.058      339.830       13.429      857.190
05/18/2014  21:07:00     -167.776      -87.911       18.896      120.390      138.665       67.744    14493.802    19228.027     4589.265        3.726        1.916      189.413       69.829        0.136      339.865       13.488      857.219
05/18/2014  21:08:00     -145.509      -20.563      -16.791      100.634       79.795       38.667    10127.289     6367.184     1495.133        1.993        0.899      146.954       30.529        0.043      340.064       13.824      857.214
05/18/2014  21:09:00     -265.140      -61.210        0.655      163.942      137.374       69.599    26876.993    18871.603     4844.000        6.231        2.530      272.114       76.168        0.078      339.838       13.443      857.232
05/18/2014  21:10:00     -172.032      -96.354       -4.323      115.137      110.888       55.459    13256.544    12296.046     3075.756        3.376        1.431      197.178       51.155        0.067      339.811       13.396      857.232
05/18/2014  21:11:00     -228.671      -59.539       10.063      144.125      142.115       74.537    20771.975    20196.800     5555.713        5.122        2.326      236.295       81.829        0.120      339.824       13.420      857.244
05/18/2014  21:12:00     -262.769      -50.587       -1.678      133.334      110.655       62.897    17778.045    12244.619     3956.020        5.279        1.699      267.594       69.667        0.068      339.812       13.399      857.266
05/18/2014  21:13:00     -258.599      -85.678       -7.738      141.230      108.343       55.425    19945.881    11738.238     3071.951        5.451        1.738      272.422       56.048        0.042      339.823       13.415      857.274
05/18/2014  21:14:00      -61.222       -7.191       30.964      101.117       74.673       58.439    10224.548     5576.058     3415.086        1.198        0.961       61.643       58.498        0.901      339.796       13.375      857.292
05/18/2014  21:15:00     -185.771      -81.048       11.293      119.198      108.015       60.320    14208.048    11667.170     3638.502        3.535        1.476      202.681       53.600        0.070      339.763       13.317      857.313
05/18/2014  21:16:00     -190.625      -56.340        1.994      116.155       85.921       49.689    13492.077     7382.358     2468.969        3.143        1.167      198.777       52.802        0.071      339.777       13.342      857.337
05/18/2014  21:17:00     -135.133      -97.044       -2.883      145.602      113.347       61.220    21199.838    12847.482     3747.911        3.273        1.890      166.368       78.456        0.222      339.792       13.366      857.332
05/18/2014  21:18:00     -270.801     -127.316      -13.876      151.987       83.218       52.597    23100.019     6925.210     2766.407        6.126        1.640      299.236       52.582        0.031      339.715       13.235      857.339
05/18/2014  21:19:00     -354.672     -127.842      -29.100      138.616      133.324       68.307    19214.358    17775.354     4665.782        9.231        2.083      377.009       62.234        0.027      339.708       13.224      857.347
05/18/2014  21:20:00     -227.955        7.872        0.172      227.905      109.797       82.401    51940.610    12055.451     6789.874        6.139        3.539      228.091      111.183        0.238      339.744       13.285      857.319
05/18/2014  21:21:00     -181.526      -53.049       18.261      116.209       85.836       42.166    13504.519     7367.803     1778.008        2.937        1.133      189.119       43.352        0.053      339.740       13.280      857.336
05/18/2014  21:22:00     -169.220        7.149       11.463      103.180       78.103       50.518    10646.132     6100.059     2552.034        2.405        0.965      169.371       50.972        0.091      339.762       13.317      857.348
05/18/2014  21:23:00     -206.800     -104.882      -19.380      175.566      129.180       70.778    30823.276    16687.364     5009.540        5.332        2.626      231.876       73.302        0.100      339.714       13.233      857.333
05/18/2014  21:24:00     -391.780      -58.760      -18.640      186.387      123.754       88.231    34740.229    15314.977     7784.775       10.755        2.892      396.162       94.652        0.057      339.655       13.134      857.343
05/18/2014  21:25:00     -295.822      -54.025      -15.863      151.659      135.287       70.544    23000.436    18302.448     4976.442        6.847        2.314      300.714       73.127        0.059      339.668       13.156      857.362
05/18/2014  21:26:00     -108.456      -29.443        7.759       94.057       96.741       53.425     8846.805     9358.815     2854.178        1.687        1.053      112.382       44.182        0.155      339.675       13.169      857.391
05/18/2014  21:27:00     -169.029       -4.206       -4.317      132.216       79.321       54.257    17481.067     6291.839     2943.825        2.766        1.336      169.081       60.293        0.127      339.691       13.195      857.400
05/18/2014  21:28:00     -349.432        5.650      -19.427      208.521      129.719       69.706    43480.828    16827.052     4858.965        9.383        3.258      349.477       80.976        0.054      339.661       13.144      857.429
05/18/2014  21:29:00     -194.266      -44.135        7.688      141.542      101.252       57.503    20034.072    10251.977     3306.598        3.666        1.680      199.217       74.896        0.141      339.642       13.112      857.437
05/18/2014  21:30:00     -259.408      -32.535       -3.846      178.349      106.518       53.670    31808.199    11345.997     2880.446        5.719        2.302      261.440       68.604        0.069      339.619       13.075      857.463
05/18/2014  21:31:00     -346.569      -38.562      -19.297      117.613      118.987       57.178    13832.928    14158.010     3269.313        7.661        1.563      348.708       49.080        0.020      339.622       13.078      857.460
05/18/2014  21:32:00     -228.133      -65.452       -5.557      117.658       91.257       55.938    13843.462     8327.842     3129.071        4.082        1.265      237.337       43.624        0.034      339.631       13.093      857.493
05/18/2014  21:33:00     -218.952      -37.980      -20.379       93.944       85.888       45.658     8825.538     7376.766     2084.661        3.404        0.914      222.222       41.006        0.034      339.629       13.091      857.539
05/18/2014  21:34:00     -349.344      -44.277      -20.198      129.979       98.567       56.257    16894.592     9715.410     3164.830        7.709        1.489      352.138       60.072        0.029      339.577       13.002      857.569
05/18/2014  21:35:00     -280.683       12.655      -35.493      117.650       44.063       40.605    13841.474     1941.574     1648.771        4.881        0.872      280.968       52.330        0.035      339.609       13.059      857.604
05/18/2014  21:36:00     -154.802      -16.058       -6.441      121.650       83.853       47.469    14798.819     7031.319     2253.306        2.417        1.204      155.632       50.572        0.106      339.626       13.086      857.610
05/18/2014  21:37:00     -310.396      -30.942      -24.853      136.126      101.382       49.854    18530.361    10278.299     2485.381        6.460        1.565      311.934       44.383        0.020      339.592       13.028      857.631
05/18/2014  21:38:00     -369.000      -80.084      -25.417      110.213       72.424       45.341    12147.012     5245.199     2055.785        8.133        0.972      377.590       47.906        0.016      339.501       12.873      857.639
05/18/2014  21:39:00     -432.253     -114.888      -11.685      216.687      139.810       66.483    46953.119    19546.796     4420.013       13.554        3.546      447.261       85.298        0.036      339.505       12.880      857.641
05/18/2014  21:40:00     -192.940      -91.506        7.169      115.127      101.451       51.794    13254.316    10292.403     2682.590        3.593        1.311      213.539       58.325        0.075      339.477       12.833      857.631
05/18/2014  21:41:00     -296.339      -32.802      -17.027       89.778       73.088       47.070     8060.086     5341.803     2215.606        5.240        0.781      298.149       51.135        0.029      339.501       12.873      857.637
05/18/2014  21:42:00     -319.480      -83.253       -7.135      115.670      108.489       51.201    13379.434    11769.943     2621.571        6.840        1.389      330.150       47.412        0.021      339.526       12.915      857.636
05/18/2014  21:43:00     -384.218      -40.572      -13.353      153.302      117.744       60.123    23501.430    13863.585     3614.733        9.521        2.049      386.354       67.654        0.031      339.493       12.861      857.612
05/18/2014  21:44:00     -242.132      -31.441       -1.215      111.482       68.568       52.573    12428.142     4701.603     2763.893        3.975        0.995      244.165       53.853        0.049      339.471       12.824      857.615
05/18/2014  21:45:00     -225.368      -38.812      -10.609       93.436       74.435       49.268     8730.287     5540.544     2427.343        3.455        0.835      228.685       44.926        0.039      339.491       12.857      857.608
05/18/2014  21:46:00     -265.599      -26.696      -12.765      141.582      122.317       63.691    20045.564    14961.356     4056.496        5.523        1.953      266.938       59.407        0.050      339.479       12.837      857.589
05/18/2014  21:47:00     -316.721      -97.108      -10.265      226.485      140.033       76.895    51295.519    19609.209     5912.832        9.332        3.841      331.274      101.920        0.095      339.454       12.795      857.569
05/18/2014  21:48:00     -272.190      -29.303       -1.648      141.838      119.990       60.620    20117.927    14397.613     3674.752        5.656        1.910      273.762       50.383        0.034      339.461       12.807      857.573
05/18/2014  21:49:00     -217.959     -127.157        3.018      177.972      128.684       62.525    31674.051    16559.613     3909.334        5.790        2.607      252.339       76.281        0.091      339.432       12.760      857.550
05/18/2014  21:50:00     -213.894      -91.872      -16.188      132.743      119.329       54.236    17620.579    14239.399     2941.564        4.462        1.740      232.790       71.033        0.093      339.421       12.741      857.547
05/18/2014  21:51:00     -115.099      -47.738       11.081      141.144       75.882       48.585    19921.643     5758.118     2360.507        2.184        1.402      124.606       63.658        0.261      339.461       12.807      857.554
05/18/2014  21:52:00     -195.615      -68.761        3.709      126.605       84.986       48.200    16028.770     7222.638     2323.255        3.429        1.279      207.348       54.698        0.070      339.407       12.717      857.558
05/18/2014  21:53:00     -253.435        1.604       -5.420      140.988      107.790       55.121    19877.528    11618.580     3038.333        4.939        1.727      253.440       57.219        0.051      339.431       12.756      857.548
05/18/2014  21:54:00     -235.970      -86.720       -0.720      139.529       94.672       59.539    19468.340     8962.740     3544.899        4.758        1.599      251.400       63.202        0.063      339.422       12.741      857.559
05/18/2014  21:55:00     -370.949     -147.261      -12.681      163.576      129.482       70.292    26757.154    16765.652     4940.920       10.395        2.423      399.111       69.913        0.031      339.376       12.662      857.565
05/18/2014  21:56:00     -192.454     -107.666        0.797      175.260      103.231       75.790    30716.237    10656.733     5744.156        4.786        2.356      220.523       84.313        0.146      339.382       12.676      857.588
05/18/2014  21:57:00     -263.876     -122.612       -3.061      151.444      152.011       53.734    22935.182    23107.205     2887.336        6.679        2.446      290.972       68.326        0.055      339.384       12.677      857.591
05/18/2014  21:58:00     -307.449        0.861       -3.524      197.124      158.189       64.381    38857.939    25023.672     4144.954        8.127        3.401      307.450       83.257        0.073      339.389       12.686      857.608
05/18/2014  21:59:00     -228.588      -43.015      -16.465       99.935      105.593       49.898     9986.923    11149.963     2489.791        3.900        1.181      232.600       50.966        0.048      339.413       12.726      857.622
05/18/2014  22:00:00     -290.948      -39.161       -5.323      170.668      114.840       67.992    29127.705    13188.311     4622.930        6.657        2.347      293.572       81.239        0.077      339.357       12.632      857.623
05/18/2014  22:01:00     -177.434      -32.492       -7.333      115.346       93.589       56.279    13304.726     8758.878     3167.379        2.891        1.262      180.384       62.599        0.120      339.398       12.702      857.635
05/18/2014  22:02:00     -235.401      -60.654       -4.424      113.136       84.093       52.542    12799.687     7071.574     2760.645        4.087        1.132      243.090       51.726        0.045      339.363       12.643      857.642
05/18/2014  22:03:00     -298.700      -74.499      -13.706      162.825      114.624       66.692    26512.076    13138.648     4447.760        6.952        2.205      307.850       70.132        0.052      339.328       12.581      857.678
05/18/2014  22:04:00     -446.608      -70.865      -34.727      146.453      130.827       60.119    21448.501    17115.786     3614.327       12.392        2.109      452.195       74.306        0.027      339.342       12.606      857.685
05/18/2014  22:05:00     -357.957      -73.340        1.311      166.661      143.053       72.891    27775.822    20464.237     5313.140        9.352        2.678      365.393       82.861        0.051      339.354       12.626      857.685
05/18/2014  22:06:00     -279.401      -37.404       -0.175      141.287      101.938       61.072    19962.093    10391.306     3729.732        5.677        1.704      281.893       70.291        0.062      339.336       12.595      857.719
05/18/2014  22:07:00     -445.282      -80.129      -15.577      164.902      118.868       80.462    27192.756    14129.483     6474.185       12.636        2.390      452.434       71.460        0.025      339.297       12.529      857.736
05/18/2014  22:08:00     -348.258     -106.662      -11.572      196.747      111.245       67.233    38709.409    12375.460     4520.246        9.419        2.780      364.226       75.785        0.043      339.283       12.508      857.738
05/18/2014  22:09:00     -288.898      -52.818       -9.896      141.000      104.684       72.251    19880.921    10958.679     5220.242        6.120        1.803      293.687       76.051        0.067      339.351       12.621      857.749
05/18/2014  22:10:00     -458.460       -5.996      -34.922      163.531      114.707       74.968    26742.446    13157.729     5620.204       12.847        2.276      458.499       79.281        0.030      339.331       12.587      857.745
05/18/2014  22:11:00     -218.142      -46.711        5.949      141.416      102.173       66.645    19998.542    10439.269     4441.596        4.233        1.744      223.087       56.057        0.063      339.330       12.586      857.746
05/18/2014  22:12:00     -406.057      -82.055       -4.818      142.128      127.106       82.347    20200.366    16155.866     6781.010       10.738        2.157      414.265       85.854        0.043      339.269       12.483      857.735
05/18/2014  22:13:00     -481.123     -135.813      -20.616      234.406      112.824       69.821    54945.989    12729.224     4874.988       16.144        3.628      499.924       80.926        0.026      339.269       12.484      857.729
05/18/2014  22:14:00     -423.870      -53.819       -9.533      166.421      139.983       79.413    27695.858    19595.100     6306.493       11.811        2.680      427.273       84.561        0.039      339.282       12.506      857.738
05/18/2014  22:15:00     -333.630     -109.839      -14.011      135.115      148.379       67.134    18256.147    22016.315     4506.991        8.417        2.239      351.246       70.045        0.040      339.300       12.536      857.732
05/18/2014  22:16:00     -406.859      -86.288      -26.878      201.339      184.008       79.744    40537.335    33859.002     6359.157       12.721        4.038      415.909       96.862        0.054      339.278       12.499      857.691
05/18/2014  22:17:00     -285.768      -91.024      -11.981      159.020      132.089       80.354    25287.412    17447.577     6456.703        6.963        2.460      299.915       88.251        0.087      339.273       12.489      857.688
05/18/2014  22:18:00     -241.316      -52.443       -9.355       97.331      117.434       57.875     9473.351    13790.774     3349.549        4.384        1.331      246.948       50.989        0.043      339.286       12.510      857.696
05/18/2014  22:19:00     -269.476     -113.081       -2.624      196.911      155.311       85.941    38773.978    24121.467     7385.802        7.783        3.514      292.241      102.419        0.123      339.285       12.511      857.686
05/18/2014  22:20:00     -107.301      -45.990       25.417      110.388       93.417       67.936    12185.438     8726.690     4615.366        1.990        1.276      116.742       64.669        0.307      339.323       12.576      857.703
05/18/2014  22:21:00     -200.527     -114.178       -7.909      147.970       96.322       63.942    21895.125     9278.002     4088.594        4.428        1.763      230.754       66.161        0.082      339.314       12.560      857.696
05/18/2014  22:22:00     -259.768      -83.731       -0.174      180.340      147.837       76.950    32522.521    21855.906     5921.335        6.738        3.015      272.930       88.872        0.106      339.343       12.608      857.704
05/18/2014  22:23:00     -479.870      -91.725       -9.437      197.488      153.947       95.658    39001.518    23699.539     9150.371       15.530        3.593      488.558      105.818        0.047      339.311       12.553      857.714
05/18/2014  22:24:00     -243.898      -54.269        1.689      138.837      102.052       68.353    19275.615    10414.523     4672.151        4.839        1.718      249.862       70.246        0.079      339.361       12.639      857.722
05/18/2014  22:25:00     -238.885     -161.529        5.444      174.147      142.784       79.018    30327.055    20387.336     6243.789        7.006        2.848      288.370       80.377        0.078      339.303       12.540      857.732
05/18/2014  22:26:00     -164.633     -160.475       19.918      134.475      175.602       82.609    18083.465    30836.010     6824.165        5.449        2.787      229.905       94.825        0.170      339.321       12.570      857.753
05/18/2014  22:27:00     -223.561     -153.618       15.970      154.235      146.039       82.655    23788.339    21327.495     6831.788        6.288        2.597      271.252       85.636        0.100      339.305       12.543      857.746
05/18/2014  22:28:00     -233.663      -31.177        3.392      147.153      141.172       58.098    21654.023    19929.455     3375.435        5.026        2.248      235.734       47.852        0.041      339.342       12.607      857.736
05/18/2014  22:29:00     -207.523     -117.119        0.938      172.190      153.370       73.906    29649.471    23522.289     5462.158        5.770        2.932      238.291       89.609        0.141      339.294       12.526      857.706
05/18/2014  22:30:00     -195.156     -135.037       19.195      176.092      146.806       76.880    31008.547    21551.915     5910.596        5.757        2.924      237.320       75.594        0.101      339.281       12.505      857.711
05/18/2014  22:31:00     -320.873     -168.058       -2.557      182.457      155.160       87.636    33290.407    24074.483     7680.057        9.811        3.252      362.219       91.381        0.064      339.259       12.466      857.696
05/18/2014  22:32:00     -475.328     -141.320      -16.185      223.798      173.764       88.995    50085.765    30194.064     7920.057       16.717        4.410      495.891      107.177        0.047      339.274       12.493      857.687
05/18/2014  22:33:00     -235.320      -60.471        4.622      179.410      129.835       62.441    32187.839    16857.040     3898.912        5.599        2.647      242.965       58.082        0.057      339.316       12.563      857.674
05/18/2014  22:34:00     -179.590      -27.308       -1.652      117.152      107.554       65.203    13724.612    11567.859     4251.458        3.127        1.477      181.654       43.067        0.056      339.326       12.578      857.666
05/18/2014  22:35:00     -205.367       -8.901       21.353      183.698      102.067       79.338    33744.890    10417.703     6294.492        4.657        2.523      205.560       82.827        0.162      339.308       12.549      857.636
05/18/2014  22:36:00     -414.727     -203.479       -5.209      198.504      157.095       87.782    39403.945    24678.752     7705.665       14.259        3.589      461.954      107.182        0.054      339.246       12.444      857.629
05/18/2014  22:37:00     -374.644     -156.990      -19.451      169.575      142.203       76.850    28755.563    20221.736     5905.875       11.012        2.744      406.207       84.780        0.044      339.256       12.461      857.609
05/18/2014  22:38:00     -293.071     -164.008        1.155      218.583      183.911      105.703    47778.384    33823.259    11173.095       10.276        4.639      335.841      116.208        0.120      339.275       12.494      857.582
05/18/2014  22:39:00     -364.535     -198.476      -22.261      217.020      149.456      112.610    47097.767    22337.156    12681.009       12.743        4.106      415.064      123.736        0.089      339.250       12.451      857.543
05/18/2014  22:40:00     -229.847     -102.084        9.602      194.012      170.521       87.021    37640.797    29077.545     7572.634        6.880        3.715      251.497      102.735        0.167      339.251       12.453      857.549
05/18/2014  22:41:00     -322.461     -178.972      -17.604      213.623      140.910       85.733    45634.661    19855.671     7350.197       10.457        3.642      368.798       91.769        0.062      339.231       12.419      857.564
05/18/2014  22:42:00     -425.187     -103.030      -11.559      213.213      140.615       86.429    45459.846    19772.468     7469.952       13.210        3.635      437.492       93.397        0.046      339.258       12.464      857.541
05/18/2014  22:43:00     -338.003     -147.490       -9.947      257.017      161.202      105.741    66057.644    25986.010    11181.218       11.964        5.161      368.781      104.170        0.080      339.252       12.455      857.549
05/18/2014  22:44:00     -317.005        4.996      -18.605      188.152      117.061       79.216    35401.327    13703.344     6275.169        7.811        2.769      317.044       75.578        0.057      339.305       12.543      857.574
05/18/2014  22:45:00     -300.753     -114.133       -0.935      154.300      141.139       68.620    23808.471    19920.129     4708.684        7.595        2.422      321.681       55.341        0.030      339.260       12.469      857.591
05/18/2014  22:46:00     -257.467      -70.335      -14.806      125.306      122.385       62.694    15701.696    14978.200     3930.581        5.303        1.731      266.901       63.926        0.057      339.265       12.476      857.626
05/18/2014  22:47:00     -182.944     -145.384        0.457      138.340      106.451       70.499    19137.967    11331.805     4970.069        4.502        1.772      233.677       65.191        0.078      339.208       12.382      857.655
05/18/2014  22:48:00     -403.284      -56.208      -15.594      162.001      148.809       76.925    26244.329    22144.196     5917.396       11.016        2.715      407.182       71.971        0.031      339.228       12.415      857.679
05/18/2014  22:49:00     -438.790     -141.556        6.350      205.645      130.781       74.776    42289.825    17103.714     5591.421       13.879        3.249      461.058       90.223        0.038      339.158       12.298      857.684
05/18/2014  22:50:00     -468.680      -62.248      -22.444      175.574      136.472       80.970    30826.333    18624.645     6556.076       14.001        2.800      472.795       70.837        0.022      339.171       12.319      857.710
05/18/2014  22:51:00     -427.475      -67.663      -22.984      168.644      105.881       72.929    28440.893    11210.772     5318.661       11.640        2.249      432.797       79.738        0.034      339.168       12.313      857.700
05/18/2014  22:52:00     -343.692      -62.036       -2.879      140.481      129.274       63.863    19734.792    16711.871     4078.483        8.124        2.026      349.246       64.022        0.034      339.160       12.301      857.716
05/18/2014  22:53:00     -252.456      -89.342       -0.407      136.288      112.487       63.514    18574.396    12653.345     4033.967        5.348        1.763      267.799       61.862        0.053      339.159       12.298      857.742
05/18/2014  22:54:00     -131.617      -61.139        7.038      153.086      111.638       65.826    23435.240    12463.061     4333.097        3.066        2.012      145.124       74.624        0.264      339.211       12.387      857.753
05/18/2014  22:55:00     -356.026     -120.444      -15.651      181.427      117.241       65.692    32915.916    13745.519     4315.488        9.623        2.549      375.848       50.702        0.018      339.168       12.314      857.795
05/18/2014  22:56:00     -397.008      -97.741      -30.041      155.218      153.456       69.099    24092.690    23548.778     4774.689       11.023        2.621      408.862       77.578        0.036      339.154       12.289      857.826
05/18/2014  22:57:00     -402.524      -99.991      -10.917      145.879      105.688       60.251    21280.758    11169.928     3630.193       10.410        1.804      414.757       58.926        0.020      339.138       12.262      857.818
05/18/2014  22:58:00     -290.073      -78.920      -11.024      158.674       95.282       58.346    25177.316     9078.644     3404.204        6.407        1.883      300.617       60.141        0.040      339.137       12.260      857.851
05/18/2014  22:59:00     -237.000      -87.760       -2.500      137.248       95.502       55.603    18837.056     9120.587     3091.748        4.746        1.552      252.727       66.035        0.068      339.138       12.261      857.853
05/18/2014  23:00:00     -380.870      -57.704      -13.035      150.542      127.182       75.732    22662.859    16175.211     5735.366        9.656        2.229      385.217       76.833        0.040      339.136       12.259      857.888
05/18/2014  23:01:00     -276.181     -116.266      -22.109       93.625       73.378       53.629     8765.689     5384.394     2876.112        5.365        0.851      299.656       47.854        0.026      339.125       12.240      857.889
05/18/2014  23:02:00     -236.828      -39.783       -7.751       83.665       71.394       45.170     6999.807     5097.053     2040.329        3.593        0.707      240.146       44.965        0.035      339.107       12.211      857.912
05/18/2014  23:03:00     -147.270       -0.829       -3.188       55.247       76.055       34.677     3052.183     5784.362     1202.527        1.587        0.502      147.272       24.952        0.029      339.243       12.442      857.908
05/18/2014  23:04:00     -128.400       10.046       -3.697      126.673       77.591       44.546    16045.991     6020.329     1984.385        2.032        1.203      128.792       50.506        0.154      339.180       12.334      857.917
05/18/2014  23:05:00     -210.349        3.039       -1.972      187.140       85.069       60.403    35021.335     7236.814     3648.544        4.507        2.295      210.371       92.045        0.191      339.172       12.320      857.934
05/18/2014  23:06:00     -312.307     -131.349      -12.003      136.314      116.572       67.231    18581.431    13589.064     4520.035        7.580        1.835      338.804       69.688        0.042      339.129       12.248      857.915
05/18/2014  23:07:00     -299.269      -35.538      -18.034      145.480      109.286       56.636    21164.399    11943.430     3207.587        6.373        1.816      301.372       59.992        0.040      339.126       12.242      857.939
05/18/2014  23:08:00     -237.962      -28.319      -12.775      105.760       62.881       49.148    11185.073     3954.064     2415.490        3.757        0.878      239.642       47.300        0.039      339.101       12.201      857.963
05/18/2014  23:09:00     -157.192      -62.663      -17.361      109.647       63.073       50.376    12022.502     3978.248     2537.752        2.373        0.927      169.222       54.236        0.103      339.077       12.160      857.984
05/18/2014  23:10:00      -97.945      -24.991      -24.950       63.983       48.081       47.568     4093.858     2311.816     2262.707        0.975        0.433      101.083       43.563        0.186      339.103       12.206      857.974
05/18/2014  23:11:00      -69.783       -6.107       10.873       71.238       53.556       43.136     5074.922     2868.251     1860.711        0.741        0.490       70.050       29.034        0.172      339.103       12.206      857.999
05/18/2014  23:12:00     -279.568       23.128      -23.386      107.395      105.186       51.025    11533.626    11064.049     2603.514        5.222        1.260      280.523       54.609        0.038      339.125       12.241      858.020
05/18/2014  23:13:00     -179.750      -13.653       -6.372      125.744      105.331       70.859    15811.456    11094.590     5021.067        3.223        1.596      180.267       67.734        0.141      339.098       12.197      858.021
05/18/2014  23:14:00     -145.511       -5.135       -1.101      163.197       94.297       57.110    26633.256     8891.840     3261.568        2.999        1.939      145.602       77.193        0.281      339.032       12.086      858.028
05/18/2014  23:15:00     -185.965      -24.401      -13.725       73.658       72.616       39.851     5425.463     5273.124     1588.133        2.382        0.614      187.559       36.300        0.037      339.112       12.219      858.045
05/18/2014  23:16:00     -265.922      -26.395      -16.161      131.752      102.372       54.395    17358.622    10480.038     2958.792        5.123        1.540      267.229       59.641        0.050      339.050       12.116      858.037
05/18/2014  23:17:00     -239.862      -53.994      -13.808       88.029       98.742       46.709     7749.168     9750.044     2181.764        4.016        0.984      245.864       44.388        0.033      338.995       12.023      858.030
05/18/2014  23:18:00     -214.148      -73.978       -9.984      106.898       97.549       53.064    11427.243     9515.751     2815.809        3.759        1.188      226.566       28.673        0.016      339.031       12.085      858.024
05/18/2014  23:19:00     -253.007      -57.029      -15.642       98.137       73.107       45.912     9630.790     5344.648     2107.930        4.229        0.854      259.354       50.003        0.037      339.027       12.078      858.032
05/18/2014  23:20:00     -223.550     -103.092        2.335      106.704       91.726       51.725    11385.699     8413.580     2675.438        4.154        1.124      246.175       56.154        0.052      338.968       11.978      858.020
05/18/2014  23:21:00     -391.326     -112.729      -26.069      124.851      118.191       65.897    15587.719    13969.072     4342.455       10.020        1.695      407.240       65.466        0.026      338.974       11.987      858.015
05/18/2014  23:22:00     -309.348      -90.866       -6.395      124.686      108.621       63.701    15546.606    11798.510     4057.797        6.769        1.570      322.417       54.656        0.029      338.984       12.004      858.010
05/18/2014  23:23:00     -389.258      -21.684      -38.066      180.687      140.347       66.514    32647.951    19697.228     4424.083       10.509        2.838      389.862       80.279        0.042      339.007       12.043      858.002
05/18/2014  23:24:00     -202.963     -117.019        2.091      118.186      118.152       54.568    13968.038    13960.009     2977.720        4.289        1.545      234.280       63.436        0.073      338.996       12.025      858.025
05/18/2014  23:25:00     -430.496      -34.782      -28.759      156.222       99.065       73.702    24405.385     9813.958     5431.951       11.350        1.983      431.899       83.135        0.037      339.002       12.035      858.043
05/18/2014  23:26:00     -331.051      -27.625      -14.549      138.934      104.827       67.021    19302.680    10988.629     4491.831        7.267        1.739      332.202       75.658        0.052      338.965       11.974      858.057
05/18/2014  23:27:00     -300.575      -95.904       -5.735      161.275      121.654       76.521    26009.580    14799.617     5855.496        7.311        2.333      315.504       83.683        0.070      338.956       11.958      858.057
05/18/2014  23:28:00     -319.310      -31.163      -11.449      147.657      125.101       69.853    21802.487    15650.299     4879.378        7.269        2.117      320.827       65.567        0.042      338.981       12.000      858.057
05/18/2014  23:29:00     -121.686      -64.054       15.201      138.494       94.001       60.011    19180.619     8836.152     3601.328        2.537        1.581      137.515       59.540        0.187      338.975       11.992      858.056
05/18/2014  23:30:00     -308.452      -89.760        1.328      141.500       93.319       57.226    20022.305     8708.496     3274.801        6.760        1.600      321.247       67.046        0.044      338.942       11.934      858.076
05/18/2014  23:31:00     -318.071      -35.866      -16.192      123.661       93.138       56.471    15292.015     8674.703     3188.921        6.493        1.358      320.087       55.823        0.030      338.943       11.936      858.085
05/18/2014  23:32:00     -217.774      -55.078       13.524      125.300      101.541       64.147    15700.178    10310.659     4114.834        4.038        1.506      224.631       68.190        0.092      338.978       11.994      858.090
05/18/2014  23:33:00     -299.375      -62.090      -20.311      173.225      145.939       68.331    30006.973    21298.047     4669.086        7.492        2.799      305.746       80.634        0.070      338.995       12.023      858.081
05/18/2014  23:34:00     -251.541     -110.822       -3.904      106.836      132.356       54.021    11413.856    17518.134     2918.264        5.370        1.593      274.872       43.564        0.025      338.972       11.984      858.090
05/18/2014  23:35:00     -289.966      -98.669       -9.741      128.383      134.401       59.734    16482.072    18063.653     3568.132        6.600        1.906      306.294       62.686        0.042      339.000       12.031      858.081
05/18/2014  23:36:00     -265.988      -80.920       -1.002      168.993      119.120       73.302    28558.668    14189.625     5373.240        6.270        2.406      278.024       76.473        0.076      339.052       12.119      858.081
05/18/2014  23:37:00     -210.025      -64.301       -7.578      110.312       90.500       54.128    12168.740     8190.331     2929.829        3.579        1.164      219.647       62.409        0.081      339.017       12.061      858.082
05/18/2014  23:38:00     -111.196      -46.908       -2.446      155.589       81.912       63.478    24208.055     6709.642     4029.464        2.475        1.747      120.685       58.509        0.235      339.012       12.052      858.068
05/18/2014  23:39:00     -296.677     -168.436      -18.185      176.984      136.303       79.535    31323.210    18578.578     6325.894        8.646        2.811      341.157       73.890        0.047      338.969       11.979      858.045
05/18/2014  23:40:00     -383.955     -163.574      -14.928      152.968       94.246       68.163    23399.354     8882.321     4646.169       10.566        1.846      417.346       65.138        0.024      338.928       11.910      858.062
05/18/2014  23:41:00     -164.422      -45.904        6.617      124.321      107.780       66.702    15455.668    11616.438     4449.169        3.035        1.576      170.709       63.086        0.137      339.001       12.036      858.067
05/18/2014  23:42:00     -209.150      -61.609       -5.923       94.159       93.316       46.580     8865.941     8707.967     2169.674        3.366        0.987      218.035       46.652        0.046      339.018       12.062      858.086
05/18/2014  23:43:00     -185.487      -62.388       15.208      113.105      100.504       61.700    12792.676    10101.056     3806.903        3.261        1.335      195.698       52.782        0.073      338.975       11.990      858.101
05/18/2014  23:44:00     -157.201      -18.433        0.587       94.957       67.381       54.505     9016.916     4540.135     2970.842        2.079        0.826      158.278       39.248        0.061      339.079       12.166      858.085
05/18/2014  23:45:00     -313.583     -120.235      -21.491      154.911      131.532       75.021    23997.503    17300.574     5628.109        8.008        2.346      335.844       72.936        0.047      338.958       11.960      858.087
05/18/2014  23:46:00     -286.546      -94.246       -9.245      126.438      124.157       65.376    15986.508    15415.075     4274.001        6.337        1.784      301.647       59.719        0.039      338.976       11.990      858.086
05/18/2014  23:47:00     -240.768      -56.337       -4.419      165.062       97.870       64.739    27245.622     9578.462     4191.078        5.108        2.051      247.271       77.865        0.099      338.980       11.998      858.089
05/18/2014  23:48:00     -272.201      -34.603       -5.478      131.041       93.963       65.299    17171.690     8829.054     4263.905        5.279        1.513      274.392       73.557        0.072      338.906       11.872      858.091
05/18/2014  23:49:00     -120.524      -57.671       -1.369      154.379       85.302       55.673    23832.834     7276.352     3099.524        2.602        1.710      133.612       41.248        0.095      338.935       11.923      858.088
05/18/2014  23:50:00     -214.618      -81.145        3.014      141.474       78.212       62.666    20014.895     6117.118     3927.029        4.135        1.503      229.446       65.711        0.082      338.920       11.896      858.088
05/18/2014  23:51:00     -117.557      -54.764        6.701      103.684       98.337       61.722    10750.276     9670.099     3809.631        2.054        1.212      129.687       66.332        0.262      338.939       11.928      858.085
05/18/2014  23:52:00     -193.970      -70.503       -0.325      147.989      104.706       72.095    21900.794    10963.272     5197.682        4.032        1.903      206.386       82.522        0.160      338.894       11.853      858.082
05/18/2014  23:53:00     -302.782      -59.333       -4.912      132.477      134.317       73.355    17550.031    18041.038     5380.905        6.809        2.049      308.541       77.364        0.063      338.887       11.840      858.089
05/18/2014  23:54:00     -278.041      -75.115      -24.644       76.585       92.114       42.172     5865.282     8484.988     1778.508        4.984        0.806      288.008       32.098        0.012      338.870       11.812      858.097
05/18/2014  23:55:00     -226.406      -61.407        7.693      147.169       94.771       68.276    21658.654     8981.622     4661.673        4.519        1.765      234.586       87.012        0.138      338.852       11.783      858.101
05/18/2014  23:56:00     -325.663      -65.729      -10.773      139.903      128.648       67.181    19572.984    16550.351     4513.228        7.556        2.032      332.230       67.530        0.041      338.869       11.811      858.100
05/18/2014  23:57:00     -284.145     -130.587       -9.110      166.903      119.983       68.362    27856.630    14395.802     4673.365        7.239        2.346      312.716       73.959        0.056      338.836       11.756      858.095
05/18/2014  23:58:00     -206.798      -58.338       -1.927      145.293      102.983       67.701    21110.053    10605.480     4583.443        4.123        1.815      214.869       73.512        0.117      338.890       11.847      858.100
05/18/2014  23:59:00     -253.554      -27.709       -5.030      215.085       88.323       63.741    46261.711     7800.899     4062.908        6.159        2.906      255.064       92.753        0.132      338.882       11.833      858.108
